[[{"header":{"parameterUnit":"m.s-1","parameterCategory":1,"la1":30.6,"la2":28.766,"lo1":-90.7593,"lo2":-88.6598,"dy":0.0162,"dx":0.0183,"nx":116,"ny":114,"refTime":"2023-10-14T18:00:00:Z","depth":0,"parameterNumber":2,"parameterNumberName":"U-component_of_WINDS"},"data":[0.0,0.0,0.0,0.0,0.0,0.0,0.0,0.0,0.0,0.0,0.0,0.0,0.0,0.0,0.0,0.0,0.0,0.0,0.0,0.0,0.0,0.0,0.0,0.0,0.0,0.0,0.0,0.0,0.0,0.0,0.0,0.0,0.0,0.0,0.0,0.0,0.0,0.0,0.0,0.0,0.0,0.0,0.0,0.0,0.0,0.0,0.0,0.0,0.0,0.0,0.0,0.0,0.0,0.0,0.0,0.0,0.0,0.0,0.0,0.0,0.0,0.0,0.0,0.0,0.0,0.0,0.0,0.0,0.0,0.0,0.0,0.0,0.0,0.0,0.0,0.0,0.0,0.0,0.0,0.0,0.0,0.0,0.0,0.0,0.0,0.0,0.0,0.0,0.0,0.0,0.0,0.0,0.0,0.0,0.0,0.0,0.0,0.0,0.0,0.0,0.0,0.0,0.0,0.0,0.0,0.0,0.0,0.0,0.0,0.0,0.0,0.0,0.0,0.0,0.0,0.0,0.0,0.0,0.0,0.0,0.0,0.0,0.0,0.0,0.0,0.0,0.0,0.0,0.0,0.0,0.0,0.0,0.0,0.0,0.0,0.0,0.0,0.0,0.0,0.0,0.0,0.0,0.0,0.0,0.0,0.0,0.0,0.0,0.0,0.0,0.0,0.0,0.0,0.0,0.0,0.0,0.0,0.0,0.0,0.0,0.0,0.0,0.0,0.0,0.0,0.0,0.0,0.0,0.0,0.0,0.0,0.0,0.0,0.0,0.0,0.0,0.0,0.0,0.0,0.0,0.0,0.0,0.0,0.0,0.0,0.0,0.0,0.0,0.0,0.0,0.0,0.0,0.0,0.0,0.0,0.0,0.0,0.0,0.0,0.0,0.0,0.0,0.0,0.0,0.0,0.0,0.0,0.0,0.0,0.0,0.0,0.0,0.0,0.0,0.0,0.0,0.0,0.0,0.0,0.0,0.0,0.0,0.0,0.0,0.0,0.0,0.0,0.0,0.0,0.0,0.0,0.0,0.0,0.0,0.0,0.0,0.0,0.0,0.0,0.0,0.0,0.0,0.0,0.0,0.0,0.0,0.0,0.0,0.0,0.0,0.0,0.0,0.0,0.0,0.0,0.0,0.0,0.0,0.0,0.0,0.0,0.0,0.0,0.0,0.0,0.0,0.0,0.0,0.0,0.0,0.0,0.0,0.0,0.0,0.0,0.0,0.0,0.0,0.0,0.0,0.0,0.0,0.0,0.0,0.0,0.0,0.0,0.0,0.0,0.0,0.0,0.0,0.0,0.0,0.0,0.0,0.0,0.0,0.0,0.0,0.0,0.0,0.0,0.0,0.0,0.0,0.0,0.0,0.0,0.0,0.0,0.0,0.0,0.0,0.0,0.0,0.0,0.0,0.0,0.0,0.0,0.0,0.0,0.0,0.0,0.0,0.0,0.0,0.0,0.0,0.0,0.0,0.0,0.0,0.0,0.0,0.0,0.0,0.0,0.0,0.0,0.0,0.0,0.0,0.0,0.0,0.0,0.0,0.0,0.0,0.0,0.0,0.0,0.0,0.0,0.0,0.0,0.0,0.0,0.0,0.0,0.0,0.0,0.0,0.0,0.0,0.0,0.0,0.0,0.0,0.0,0.0,0.0,0.0,0.0,0.0,0.0,0.0,0.0,0.0,0.0,0.0,0.0,0.0,0.0,0.0,0.0,0.0,0.0,0.0,0.0,0.0,0.0,0.0,0.0,0.0,0.0,0.0,0.0,0.0,0.0,0.0,0.0,0.0,0.0,0.0,0.0,0.0,0.0,0.0,0.0,0.0,0.0,0.0,0.0,0.0,0.0,0.0,0.0,0.0,0.0,0.0,0.0,0.0,0.0,0.0,0.0,0.0,0.0,0.0,0.0,0.0,0.0,0.0,0.0,0.0,0.0,0.0,0.0,0.0,0.0,0.0,0.0,0.0,0.0,0.0,0.0,0.0,0.0,0.0,0.0,0.0,0.0,0.0,0.0,0.0,0.0,0.0,0.0,0.0,0.0,0.0,0.0,0.0,0.0,0.0,0.0,0.0,0.0,0.0,0.0,0.0,0.0,0.0,0.0,0.0,0.0,0.0,0.0,0.0,0.0,0.0,0.0,0.0,0.0,0.0,0.0,0.0,0.0,0.0,0.0,0.0,0.0,0.0,0.0,0.0,0.0,0.0,0.0,0.0,0.0,0.0,0.0,0.0,0.0,0.0,0.0,0.0,0.0,0.0,0.0,0.0,0.0,0.0,0.0,0.0,0.0,0.0,0.0,0.0,0.0,0.0,0.0,0.0,0.0,0.0,0.0,0.0,0.0,0.0,0.0,0.0,0.0,0.0,0.0,0.0,0.0,0.0,0.0,0.0,0.0,0.0,0.0,0.0,0.0,0.0,0.0,0.0,0.0,0.0,0.0,0.0,0.0,0.0,0.0,0.0,0.0,0.0,0.0,0.0,0.0,0.0,0.0,0.0,0.0,0.0,0.0,0.0,0.0,0.0,0.0,0.0,0.0,0.0,0.0,0.0,0.0,0.0,0.0,0.0,0.0,0.0,0.0,0.0,0.0,0.0,0.0,0.0,0.0,0.0,0.0,0.0,0.0,0.0,0.0,0.0,0.0,0.0,0.0,0.0,0.0,0.0,0.0,0.0,0.0,0.0,0.0,0.0,0.0,0.0,0.0,0.0,0.0,0.0,0.0,0.0,0.0,0.0,0.0,0.0,0.0,0.0,0.0,0.0,0.0,0.0,0.0,0.0,0.0,0.0,0.0,0.0,0.0,0.0,0.0,0.0,0.0,0.0,0.0,0.0,0.0,0.0,0.0,0.0,0.0,0.0,0.0,0.0,0.0,0.0,0.0,0.0,0.0,0.0,0.0,0.0,0.0,0.0,0.0,0.0,0.0,0.0,0.0,0.0,0.0,0.0,0.0,0.0,0.0,0.0,0.0,0.0,0.0,0.0,0.0,0.0,0.0,0.0,0.0,0.0,0.0,0.0,0.0,0.0,0.0,0.0,0.0,0.0,0.0,0.0,0.0,0.0,0.0,0.0,0.0,0.0,0.0,0.0,0.0,0.0,0.0,0.0,0.0,0.0,0.0,0.0,0.0,0.0,0.0,0.0,0.0,0.0,0.0,0.0,0.0,0.0,0.0,0.0,0.0,0.0,0.0,0.0,0.0,0.0,0.0,0.0,0.0,0.0,0.0,0.0,0.0,0.0,0.0,0.0,0.0,0.0,0.0,0.0,0.0,0.0,0.0,0.0,0.0,0.0,0.0,0.0,0.0,0.0,0.0,0.0,0.0,0.0,0.0,0.0,0.0,0.0,0.0,0.0,0.0,0.0,0.0,0.0,0.0,0.0,0.0,0.0,0.0,0.0,0.0,0.0,0.0,0.0,0.0,0.0,0.0,0.0,0.0,0.0,0.0,0.0,0.0,0.0,0.0,0.0,0.0,0.0,0.0,0.0,0.0,0.0,0.0,0.0,0.0,0.0,0.0,0.0,0.0,0.0,0.0,0.0,0.0,0.0,0.0,0.0,0.0,0.0,0.0,0.0,0.0,0.0,0.0,0.0,0.0,0.0,0.0,0.0,0.0,0.0,0.0,0.0,0.0,0.0,0.0,0.0,0.0,0.0,0.0,0.0,0.0,0.0,0.0,0.0,0.0,0.0,0.0,0.0,0.0,0.0,0.0,0.0,0.0,0.0,0.0,0.0,0.0,0.0,0.0,0.0,0.0,0.0,0.0,0.0,0.0,0.0,0.0,0.0,0.0,0.0,0.0,0.0,0.0,0.0,0.0,0.0,0.0,0.0,0.0,0.0,0.0,0.0,0.0,0.0,0.0,0.0,0.0,0.0,0.0,0.0,0.0,0.0,0.0,0.0,0.0,0.0,0.0,0.0,0.0,0.0,0.0,0.0,0.0,0.0,0.0,0.0,0.0,0.0,0.0,0.0,0.0,0.0,0.0,0.0,0.0,0.0,0.0,0.0,0.0,0.0,0.0,0.0,0.0,0.0,0.0,0.0,0.0,0.0,0.0,0.0,0.0,0.0,0.0,0.0,0.0,0.0,0.0,0.0,0.0,0.0,0.0,0.0,0.0,0.0,0.0,0.0,0.0,0.0,0.0,0.0,0.0,0.0,0.0,0.0,0.0,0.0,0.0,0.0,0.0,0.0,0.0,0.0,0.0,0.0,0.0,0.0,0.0,0.0,0.0,0.0,0.0,0.0,0.0,0.0,0.0,0.0,0.0,0.0,0.0,0.0,0.0,0.0,0.0,0.0,0.0,0.0,0.0,0.0,0.0,0.0,0.0,0.0,0.0,0.0,0.0,0.0,0.0,0.0,0.0,0.0,0.0,0.0,0.0,0.0,0.0,0.0,0.0,0.0,0.0,0.0,0.0,0.0,0.0,0.0,0.0,0.0,0.0,0.0,0.0,0.0,0.0,0.0,0.0,0.0,0.0,0.0,0.0,0.0,0.0,0.0,0.0,0.0,0.0,0.0,0.0,0.0,0.0,0.0,0.0,0.0,0.0,0.0,0.0,0.0,0.0,0.0,0.0,0.0,0.0,0.0,0.0,0.0,0.0,0.0,0.0,0.0,0.0,0.0,0.0,0.0,0.0,0.0,0.0,0.0,0.0,0.0,0.0,0.0,0.0,0.0,0.0,0.0,0.0,0.0,0.0,0.0,0.0,0.0,0.0,0.0,0.0,0.0,0.0,0.0,0.0,0.0,0.0,0.0,0.0,0.0,0.0,0.0,0.0,0.0,0.0,0.0,0.0,0.0,0.0,0.0,0.0,0.0,0.0,0.0,0.0,0.0,0.0,0.0,0.0,0.0,0.0,0.0,0.0,0.0,0.0,0.0,0.0,0.0,0.0,0.0,0.0,0.0,0.0,0.0,0.0,0.0,0.0,0.0,0.0,0.0,0.0,0.0,0.0,0.0,0.0,0.0,0.0,0.0,0.0,0.0,0.0,0.0,0.0,0.0,0.0,0.0,0.0,0.0,0.0,0.0,0.0,0.0,0.0,0.0,0.0,0.0,0.0,0.0,0.0,0.0,0.0,0.0,0.0,0.0,0.0,0.0,0.0,0.0,0.0,0.0,0.0,0.0,0.0,0.0,0.0,0.0,0.0,0.0,0.0,0.0,0.0,0.0,0.0,0.0,0.0,0.0,0.0,0.0,0.0,0.0,0.0,0.0,0.0,0.0,0.0,0.0,0.0,0.0,0.0,0.0,0.0,0.0,0.0,0.0,0.0,0.0,0.0,0.0,0.0,0.0,0.0,0.0,0.0,0.0,0.0,0.0,0.0,0.0,0.0,0.0,0.0,0.0,0.0,0.0,0.0,0.0,0.0,0.0,0.0,0.0,0.0,0.0,0.0,0.0,0.0,0.0,0.0,0.0,0.0,0.0,0.0,0.0,0.0,0.0,0.0,0.0,0.0,0.0,0.0,0.0,0.0,0.0,0.0,0.0,0.0,0.0,0.0,0.0,0.0,0.0,0.0,0.0,0.0,0.0,0.0,0.0,0.0,0.0,0.0,0.0,0.0,0.0,0.0,0.0,0.0,0.0,0.0,0.0,0.0,0.0,0.0,0.0,0.0,0.0,0.0,0.0,0.0,0.0,0.0,0.0,0.0,0.0,0.0,0.0,0.0,0.0,0.0,0.0,0.0,0.0,0.0,0.0,0.0,0.0,0.0,0.0,0.0,0.0,0.0,0.0,0.0,0.0,0.0,0.0,0.0,0.0,0.0,0.0,0.0,0.0,0.0,0.0,0.0,0.0,0.0,0.0,0.0,0.0,0.0,0.0,0.0,0.0,0.0,0.0,0.0,0.0,0.0,0.0,0.0,0.0,0.0,0.0,0.0,0.0,0.0,0.0,0.0,0.0,0.0,0.0,0.0,0.0,0.0,0.0,0.0,0.0,0.0,0.0,0.0,0.0,0.0,0.0,0.0,0.0,0.0,0.0,0.0,0.0,0.0,0.0,0.0,0.0,0.0,0.0,0.0,0.0,0.0,0.0,0.0,0.0,0.0,0.0,0.0,0.0,0.0,0.0,0.0,0.0,0.0,0.0,0.0,0.0,1.2631,0.0,0.0,0.0,0.0,0.0,0.0,0.0,0.0,0.0,0.0,0.0,0.0,0.0,0.0,0.0,0.0,0.0,0.0,0.0,0.0,0.0,0.0,0.0,0.0,0.0,0.0,0.0,0.0,0.0,0.0,0.0,0.0,0.0,0.0,0.0,0.0,0.0,0.0,0.0,0.0,0.0,0.0,0.0,0.0,0.0,0.0,0.0,0.0,0.0,0.0,0.0,0.0,0.0,0.0,0.0,0.0,0.0,0.0,0.0,0.0,0.0,0.0,0.0,0.0,0.0,0.0,0.0,0.0,0.0,0.0,0.0,0.0,0.0,0.0,0.0,0.0,0.0,0.0,0.0,0.0,0.0,0.0,0.0,0.0,0.0,0.0,0.0,0.0,0.0,0.0,0.0,0.0,0.0,0.0,0.0,0.0,0.0,0.0,0.0,0.0,0.0,0.0,0.0,0.0,0.0,0.0,0.0,0.0,0.0,0.0,0.0,0.0,0.0,0.0,0.0,0.0,1.2818,0.0,0.0,0.0,0.0,0.0,0.0,0.0,0.0,0.0,0.0,0.0,0.0,0.0,0.0,0.0,0.0,0.0,0.0,0.0,0.0,0.0,0.0,0.0,0.0,0.0,0.0,0.0,0.0,0.0,0.0,0.0,0.0,0.0,0.0,0.0,0.0,0.0,0.0,0.0,0.0,0.0,0.0,0.0,0.0,0.0,0.0,0.0,0.0,0.0,0.0,0.0,0.0,0.0,0.0,0.0,0.0,0.0,0.0,0.0,0.0,0.0,0.0,0.0,0.0,0.0,0.0,0.0,0.0,0.0,0.0,0.0,0.0,0.0,0.0,0.0,0.0,0.0,0.0,0.0,0.0,0.0,0.0,0.0,0.0,0.0,0.0,0.0,0.0,0.0,0.0,0.0,0.0,0.0,0.0,0.0,0.0,0.0,0.0,0.0,0.0,0.0,0.0,0.0,0.0,0.0,0.0,0.0,0.0,0.0,0.0,1.3616,1.3793,1.3821,1.3704,1.3478,1.3209,1.2895,0.0,0.0,0.0,0.0,0.0,0.0,0.0,0.0,0.0,0.0,0.0,0.0,0.0,0.0,0.0,0.0,0.0,0.0,0.0,0.0,0.0,0.0,0.0,0.0,0.0,0.0,0.0,0.0,0.0,0.0,0.0,0.0,0.0,0.0,0.0,0.0,0.0,0.0,0.0,0.4206,0.3964,0.4154,0.4655,0.0,0.0,0.0,0.0,0.0,0.0,0.0,0.0,0.0,0.0,0.0,0.0,0.0,0.0,0.0,0.0,0.0,0.0,0.0,0.0,0.0,0.0,0.0,0.0,0.0,0.0,0.0,0.0,0.0,0.0,0.0,0.0,0.0,0.0,0.0,0.0,0.0,0.0,0.0,0.0,0.0,0.0,0.0,0.0,0.937,0.9079,0.0,0.0,0.0,0.0,0.0,0.0,0.0,0.0,0.0,0.0,0.0,0.0,0.0,0.0,1.3618,1.3498,1.3593,1.3933,1.4259,1.4563,1.4873,1.5237,1.5409,1.5384,1.5344,0.0,1.3773,1.4196,0.0,0.0,0.0,0.0,0.0,0.0,0.0,0.0,0.0,0.0,0.0,0.0,0.0,0.0,0.0,0.0,0.0,0.0,0.0,0.0,0.0,0.0,0.0,0.0,0.0,0.0,0.0,0.0,0.0,0.0,0.0,0.0,0.0,0.0,0.0,0.0,0.4508,0.4803,0.4696,0.4567,0.4659,0.4893,0.4539,0.4505,0.4707,0.4426,0.0,0.0,0.0,0.0,0.0,0.0,0.0,0.0,0.0,0.0,0.0,0.0,0.0,0.0,0.0,0.0,0.0,0.0,0.0,0.0,0.0,0.0,0.0,0.0,0.0,0.0,0.0,0.0,0.0,0.0,0.0,0.0,0.0,0.0,0.0,0.0,0.0,0.0,0.0,0.929,0.976,0.9889,1.0151,1.0387,0.0,0.0,0.0,0.0,0.0,0.0,0.0,0.0,0.0,1.394,1.4037,1.4223,1.4573,1.4688,1.4817,1.5007,1.5115,1.5267,1.5432,1.5622,1.5705,1.5705,1.5705,1.5402,1.4925,1.5161,1.5266,1.5266,0.0,0.0,0.0,0.0,0.0,0.0,0.0,0.0,0.0,0.0,0.0,0.0,0.0,0.0,0.0,0.0,0.0,0.0,0.0,0.0,0.0,0.0,0.0,0.0,0.0,0.0,0.0,0.0,0.0,0.0,0.0,0.0,0.0,0.0,0.5002,0.5218,0.5076,0.5133,0.5157,0.5146,0.4877,0.4729,0.4655,0.4402,0.4347,0.0,0.0,0.0,0.0,0.0,0.0,0.0,0.0,0.0,0.0,0.0,0.0,0.0,0.0,0.0,0.0,0.0,0.0,0.0,0.0,0.0,0.0,0.0,0.0,0.0,0.0,0.0,0.0,0.0,0.0,0.0,0.0,0.0,0.0,0.0,0.0,0.0,0.0,1.0063,1.0763,1.124,1.1353,1.1608,0.0,0.0,0.0,0.0,0.0,0.0,1.3909,1.4022,1.4306,1.4771,1.5083,1.5304,1.5458,1.5778,1.6011,1.6164,1.6313,1.6352,1.6329,1.6653,1.6703,1.6544,1.6544,1.6637,1.6741,1.6009,1.5721,1.5753,1.5705,1.5721,0.0,1.5824,1.5854,1.5863,0.0,0.0,0.0,0.0,0.0,0.0,0.0,0.0,0.0,0.0,0.0,0.0,0.0,0.0,0.0,0.0,0.0,0.0,0.0,0.0,0.0,0.0,0.0,0.0,0.0,0.0,0.0,0.4397,0.5002,0.5294,0.5289,0.5481,0.5563,0.5556,0.5282,0.5067,0.4855,0.4468,0.4478,0.4763,0.0,0.0,0.0,0.0,0.0,0.0,0.0,0.0,0.0,0.0,0.0,0.0,0.0,0.0,0.0,0.0,0.0,0.0,0.0,0.0,0.0,0.0,0.0,0.0,0.0,0.0,0.0,0.0,0.0,0.0,0.0,0.0,0.0,0.0,0.0,0.0,0.0,0.0,0.0,1.3126,1.2944,0.0,0.0,0.0,0.0,1.3418,1.3802,1.4348,1.5071,1.5479,1.581,1.611,1.611,1.6228,1.6436,1.6507,1.6839,1.7421,1.799,1.8162,1.8018,1.9232,1.9439,1.8841,1.8841,1.9195,1.957,1.6838,1.5785,1.5882,1.5753,1.5785,1.5921,1.6188,1.6268,1.6323,0.0,0.0,0.0,0.0,0.0,0.0,0.0,0.0,0.0,0.0,0.0,0.0,0.0,0.0,0.0,0.0,0.0,0.0,0.0,0.0,0.0,0.0,0.0,0.0,0.0,0.0,0.5241,0.4986,0.5458,0.5618,0.5495,0.5559,0.5596,0.5596,0.5408,0.5244,0.506,0.4621,0.45,0.4597,0.4431,0.441,0.0,0.0,0.0,0.0,0.0,0.0,0.0,0.0,0.0,0.0,0.0,0.0,0.0,0.0,0.0,0.0,0.0,0.0,0.0,0.0,0.0,0.0,0.0,0.0,0.0,0.0,0.0,0.0,0.0,0.0,0.0,0.0,0.0,0.0,0.0,0.0,0.0,1.3626,1.3444,0.0,0.0,1.444,1.4687,1.5131,1.5557,1.5887,1.6152,1.6585,1.6866,1.6973,1.7271,1.7645,1.8107,1.7754,1.7875,1.8455,1.8292,1.8165,1.8119,1.8967,1.9231,1.9021,1.9449,1.9777,1.9917,1.8886,1.8238,1.7845,1.7407,1.7274,1.7328,1.7422,1.7468,1.7486,0.0,0.0,0.0,0.0,0.0,0.0,0.0,0.0,0.0,0.0,0.0,0.0,0.0,0.0,0.0,0.0,0.0,0.0,0.0,0.0,0.0,0.0,0.0,0.0,0.0,0.5657,0.5728,0.5604,0.6071,0.6172,0.5908,0.6042,0.6042,0.589,0.5687,0.5557,0.5446,0.5013,0.475,0.4593,0.4427,0.4354,0.4336,0.0,0.0,0.0,0.0,0.0,0.0,0.0,0.0,0.0,0.0,0.0,0.0,0.0,0.0,0.0,0.0,0.0,0.0,0.0,0.0,0.0,0.0,0.0,0.0,0.0,0.0,0.0,0.0,0.0,0.0,0.0,0.0,0.0,0.0,0.0,1.4225,1.472,1.4662,1.488,1.5608,1.5767,1.5961,1.6285,1.682,1.7077,1.6947,1.7638,1.7931,1.7639,1.8142,1.8556,1.8909,1.8939,1.9184,1.9686,1.984,1.9822,1.9659,2.0478,2.0732,2.0534,2.0987,2.1306,2.1484,2.1044,2.0734,2.0399,1.9216,1.8747,1.8739,1.8798,1.8806,1.8825,0.0,0.0,0.0,0.0,0.0,0.0,0.0,0.0,0.0,0.0,0.0,0.0,0.0,0.0,0.0,0.0,0.0,0.0,0.0,0.0,0.0,0.0,0.0,0.0,0.563,0.5666,0.5858,0.6242,0.683,0.6921,0.6539,0.6921,0.6892,0.6492,0.6165,0.6023,0.5996,0.5668,0.5264,0.4812,0.4606,0.447,0.4404,0.0,0.0,0.0,0.0,0.0,0.0,0.0,0.0,0.0,0.0,0.0,0.0,0.0,0.0,0.0,0.0,0.0,0.0,0.0,0.0,0.0,0.0,0.0,0.0,0.0,0.0,0.0,0.0,0.0,0.0,0.0,0.0,0.0,1.5059,1.563,1.6211,1.6472,1.6614,1.6786,1.6991,1.6853,1.6746,1.6755,1.7561,1.7876,1.7462,1.8634,1.895,1.8183,1.873,1.8966,1.8818,2.0004,2.0771,2.1111,2.2685,2.3143,2.2635,2.3888,2.4117,2.3505,2.3525,2.3907,2.4407,2.3163,2.3011,2.3306,2.0966,2.0066,2.0076,2.0197,2.0225,2.0241,0.0,0.0,0.0,0.0,0.0,0.0,0.0,0.0,0.0,0.0,0.0,0.0,0.0,0.0,0.0,0.0,0.0,0.0,0.0,0.0,0.0,0.0,0.0,0.0,0.6471,0.6995,0.7251,0.7217,0.7533,0.7498,0.7155,0.7263,0.7101,0.6717,0.6617,0.653,0.6433,0.6335,0.5968,0.5421,0.5014,0.4796,0.4662,0.0,0.0,0.0,0.0,0.0,0.0,0.0,0.0,0.0,0.0,0.0,0.0,0.0,0.0,0.0,0.0,0.0,0.0,0.0,0.0,0.0,0.0,0.0,0.0,0.0,0.0,0.0,0.0,0.0,0.0,0.0,0.0,1.5424,1.5499,1.5856,1.6243,1.6607,1.6676,1.6855,1.7249,1.7497,1.775,1.8052,1.8605,1.8828,1.8577,1.9177,1.943,1.9184,1.9629,2.0384,2.143,2.0836,2.1298,2.2806,2.233,2.2298,2.2625,2.3415,2.3665,2.3525,2.4017,2.4337,2.4467,2.4118,2.4078,2.4073,2.2496,2.159,2.1162,2.1204,2.0882,2.0416,0.0,0.0,0.0,0.0,0.0,0.0,0.0,0.0,0.0,0.0,0.0,0.0,0.0,0.0,0.0,0.0,0.0,0.0,0.0,0.0,0.0,0.0,0.0,0.6619,0.7165,0.7514,0.7708,0.7767,0.8032,0.7974,0.7644,0.7568,0.7329,0.6964,0.6844,0.6731,0.6602,0.6602,0.6271,0.5716,0.5444,0.5098,0.4776,0.49,0.5143,0.5437,0.5626,0.6233,0.6961,0.7093,0.0,0.0,0.0,0.0,0.0,0.0,0.0,0.0,0.0,0.0,0.0,0.0,0.0,0.0,0.0,0.0,0.0,0.0,0.0,0.0,0.0,0.0,0.0,0.0,1.5708,1.5982,1.6097,1.6425,1.6793,1.72,1.7389,1.7688,1.8152,1.8398,1.8643,1.8879,1.9473,1.9712,1.9401,2.0294,2.0564,1.9977,2.0852,2.1439,2.1661,2.1636,2.2225,2.3361,2.3111,2.3327,2.4001,2.4351,2.4504,0.0,2.4923,2.5087,2.5087,2.5087,2.5087,0.0,0.0,0.0,0.0,0.0,2.1932,2.1115,0.0,0.0,0.0,0.0,0.0,0.0,0.0,0.0,0.0,0.0,0.0,0.0,0.0,0.0,0.0,0.0,0.0,0.0,0.0,0.0,0.0,0.7343,0.6788,0.685,0.7679,0.7578,0.7701,0.8052,0.8349,0.8333,0.7998,0.7822,0.7558,0.7213,0.6957,0.6781,0.6671,0.664,0.6324,0.5837,0.5856,0.5443,0.4875,0.5508,0.5794,0.5978,0.6926,0.7357,0.7551,0.7866,0.0,0.0,0.0,0.0,0.0,0.0,0.0,0.0,0.0,0.0,0.0,0.0,0.0,0.0,0.0,0.0,0.0,0.0,0.0,0.0,0.0,0.0,0.0,0.0,1.6205,1.6736,1.6824,1.723,1.7666,1.802,1.844,1.884,1.9248,1.9357,1.9405,1.9434,2.0234,2.0536,2.0182,0.0,0.0,0.0,0.0,2.2161,2.0776,2.2417,2.3311,2.3395,2.4428,2.5253,2.5895,2.5895,2.5895,2.5895,2.5895,2.5895,2.5895,2.5895,2.5885,2.5777,2.4857,2.444,2.4282,2.3753,2.2826,0.0,0.0,0.0,0.0,0.0,0.0,0.0,0.0,0.0,0.0,0.0,0.0,0.0,0.0,0.0,0.0,0.0,0.0,0.0,0.0,0.0,0.644,0.6682,0.7165,0.7517,0.7695,0.808,0.8324,0.8398,0.8468,0.8333,0.8003,0.7958,0.776,0.7432,0.7217,0.7106,0.7069,0.6913,0.6564,0.6126,0.624,0.5934,0.5482,0.5924,0.6402,0.6903,0.7412,0.7829,0.8155,0.8326,0.8423,0.8528,0.8924,0.0,0.0,0.0,0.0,0.0,0.0,0.0,0.0,0.0,0.0,0.0,0.0,0.0,0.0,0.0,0.0,0.0,0.0,0.0,0.0,1.64,1.659,1.6941,1.7649,1.8108,1.841,1.8471,1.8879,1.9189,1.9296,1.9733,2.012,2.0332,2.0963,2.1448,2.1745,2.1563,0.0,2.1856,2.2163,2.2337,2.2348,2.323,2.398,2.4576,0.0,0.0,2.5895,2.5895,2.5895,2.5895,2.5895,2.5895,2.5895,2.5895,2.5791,2.5591,2.4809,2.4039,2.328,2.2427,2.1475,2.0623,0.0,0.0,0.0,0.0,0.0,0.0,0.0,0.0,0.0,0.0,0.0,0.0,0.0,0.0,0.0,0.0,0.0,0.0,0.0,0.6439,0.6635,0.6944,0.7268,0.7573,0.7841,0.8109,0.8252,0.8252,0.8252,0.8171,0.8003,0.7938,0.7805,0.7655,0.7641,0.7585,0.7479,0.7215,0.7013,0.6842,0.6698,0.6715,0.6806,0.683,0.7291,0.7958,0.8389,0.8722,0.8945,0.8872,0.8913,0.9031,0.9155,0.9411,0.9754,0.0,0.0,0.0,0.0,0.0,0.0,0.0,0.0,0.0,0.0,0.0,0.0,0.0,0.0,1.541,0.0,0.0,1.6543,1.6976,1.722,1.7503,1.7932,1.8537,1.8947,1.8947,1.9934,2.0498,2.0273,2.1017,2.1371,2.107,2.1734,2.2052,2.1811,2.2363,2.2471,2.1967,2.262,2.2749,2.2242,2.329,2.394,2.4207,2.4669,2.5115,2.5549,2.5686,2.5686,2.5549,2.5549,2.5549,2.5549,2.5549,2.5485,2.5306,2.4338,2.3747,2.3379,2.2768,2.1663,2.0447,0.0,0.0,0.0,0.0,0.0,0.0,0.0,0.0,0.0,0.0,0.0,0.0,0.0,0.0,0.0,0.0,0.0,0.0,0.0,0.6327,0.6769,0.727,0.7269,0.7471,0.7901,0.7946,0.7971,0.7971,0.7994,0.8014,0.8019,0.7911,0.7856,0.7861,0.7991,0.7925,0.7721,0.7541,0.7525,0.7554,0.7294,0.7618,0.8225,0.7881,0.8175,0.8819,0.9329,0.9515,0.9487,0.9301,0.929,0.9351,0.9315,0.9686,1.0196,1.0378,1.0603,0.0,0.0,0.0,0.0,0.0,0.0,0.0,0.0,0.0,1.5014,1.5327,1.5532,1.5757,1.6093,1.6558,1.7009,1.7369,1.7692,1.7935,1.8022,1.8692,1.9207,1.9294,2.0715,2.1583,2.1298,2.2159,2.2469,2.1805,2.2573,2.2745,2.1973,2.3242,2.3408,2.2144,2.2974,2.2952,2.1909,2.2996,2.3529,2.3503,2.4122,2.4691,2.52,2.5232,2.5232,2.52,2.52,2.52,2.52,2.5158,2.502,2.4754,2.3747,2.326,2.3086,2.288,2.1725,2.0218,0.0,0.0,0.0,0.0,0.0,0.0,0.0,0.0,0.0,0.0,0.0,0.0,0.0,0.0,0.0,0.0,0.0,0.0,0.5656,0.6355,0.6798,0.6866,0.7251,0.7497,0.7554,0.7729,0.7829,0.7829,0.7993,0.8079,0.8079,0.8072,0.8064,0.8064,0.7898,0.7717,0.7557,0.7937,0.7999,0.7879,0.8127,0.864,0.9197,0.8803,0.8778,0.9051,0.9695,0.9628,0.9265,0.9355,0.9308,0.9269,0.9559,0.9978,1.0393,1.0537,0.0,1.0771,1.0697,1.1475,1.2454,1.3045,1.3917,1.4657,0.0,0.0,1.5352,1.5386,1.602,1.6513,1.6385,1.7033,1.7574,1.7487,1.7527,1.768,1.8041,1.847,1.8908,1.926,2.0322,2.1126,2.1438,2.2116,2.2571,2.2643,2.352,2.3998,2.3891,2.3466,2.3321,2.3562,2.268,2.2359,2.2671,2.2604,2.2867,2.3503,2.2933,2.3554,2.5179,2.437,2.4434,2.52,2.52,2.52,2.52,2.5009,2.4413,2.3564,2.327,2.2132,2.0701,2.0647,1.994,1.9004,0.0,0.0,0.0,0.0,0.0,0.0,0.0,0.0,0.0,0.0,0.0,0.0,0.0,0.0,0.0,0.0,0.0,0.0,0.5613,0.6136,0.6558,0.6782,0.7146,0.7386,0.7505,0.7579,0.7626,0.7626,0.7818,0.7922,0.7927,0.8173,0.8269,0.8274,0.8194,0.8041,0.7874,0.8175,0.8377,0.8501,0.8767,0.931,0.9942,0.9531,0.9446,0.9541,0.9612,0.973,0.0,0.0,0.9541,0.9988,0.9768,0.9939,1.0235,1.0295,1.0345,0.0,1.1414,1.2242,1.3063,0.0,1.4468,1.4926,1.5439,1.5869,1.6235,1.6504,1.7051,1.7405,1.7187,1.7449,1.7664,0.0,1.7704,1.7904,1.8075,1.8644,1.9203,1.96,2.0156,2.0859,2.1807,2.2979,2.3646,2.3613,2.3839,2.3789,2.3418,2.2809,2.2501,2.2577,2.157,2.1244,2.1744,2.1752,2.1863,2.2046,2.2287,2.2957,2.3973,2.3682,2.4026,2.4786,2.4786,2.4786,2.4786,2.47,2.4101,2.3151,2.2526,2.1463,2.0294,2.0294,1.9652,1.8804,0.0,0.0,0.0,0.0,0.0,0.0,0.0,0.0,0.0,0.0,0.0,0.0,0.0,0.0,0.0,0.0,0.0,0.0,0.0,0.5945,0.6323,0.6623,0.7004,0.0,0.7419,0.7522,0.7579,0.7579,0.7792,0.788,0.7889,0.8121,0.8243,0.8234,0.823,0.8176,0.8099,0.8471,0.8778,0.9062,0.9365,0.9803,1.0255,0.9888,0.9752,0.9743,0.9602,0.975,0.0,0.0,0.9832,1.0463,0.9972,1.0028,1.0276,1.0231,1.0365,1.08,1.1952,1.2822,0.0,1.4713,1.5151,1.5518,1.629,1.6768,1.7161,1.7507,1.7803,1.794,1.775,1.7681,1.7627,1.7587,1.7781,1.8009,1.8226,1.8761,1.9276,1.9698,1.995,2.0538,2.156,2.3169,2.4078,2.3929,2.4041,2.381,2.3113,2.2381,2.1939,2.1789,2.069,2.0419,2.1078,2.0777,2.0741,2.0997,2.1288,2.1858,2.2724,2.3129,2.3735,2.4497,2.4229,2.4111,2.409,2.3831,2.3171,2.2252,2.1574,2.0709,1.9789,1.9789,1.934,1.872,0.0,0.0,0.0,0.0,0.0,0.0,0.0,0.0,0.0,0.0,0.0,0.0,0.0,0.0,0.0,0.0,0.0,0.0,0.0,0.587,0.621,0.6219,0.6847,0.721,0.7215,0.7598,0.779,0.779,0.7989,0.8088,0.8088,0.7912,0.781,0.7819,0.782,0.7888,0.805,0.8846,0.9254,0.9429,0.9953,1.0111,0.9986,0.9708,0.952,0.9455,0.9764,0.0,0.0,0.0,1.0109,1.0367,1.016,1.0411,0.0,1.0554,1.1043,1.1695,1.1868,1.2913,1.4194,1.5153,1.602,1.6781,1.7246,1.7666,1.7961,1.7988,1.7981,1.794,1.775,1.7588,1.7568,1.7761,1.7639,1.7788,1.8568,1.8696,1.8881,1.9275,1.9668,2.0027,0.0,2.2107,2.323,2.324,2.426,2.4551,2.3822,2.2648,2.1987,2.1987,2.0439,2.0153,2.1293,1.9675,1.9592,2.0975,1.9569,1.9903,2.1761,2.2702,2.3616,2.4454,2.3551,2.3139,2.3074,2.2161,2.1217,2.0385,2.0339,1.9615,1.8551,1.8551,1.8551,1.8481,0.0,0.0,0.0,0.0,0.0,0.0,0.0,0.0,0.0,0.0,0.0,0.0,0.0,0.0,0.0,0.0,0.0,0.0,0.0,0.5685,0.5915,0.6186,0.6417,0.6657,0.6935,0.7061,0.7137,0.7137,0.7382,0.7503,0.7505,0.7563,0.763,0.7686,0.799,0.8016,0.7872,0.9044,0.9399,0.925,0.9728,0.9959,0.9964,0.9607,0.9385,0.9286,0.0,0.0,0.0,0.0,1.0112,1.0768,1.0267,1.0451,1.0904,1.1043,1.1643,1.2427,1.3316,1.4239,1.522,1.6434,1.6943,1.7275,1.7705,1.791,1.7957,1.7828,1.7801,1.7716,1.7425,1.7539,1.7677,1.7611,1.799,1.8384,1.8659,1.8935,1.9155,1.9283,1.9179,0.0,0.0,0.0,0.0,2.2252,2.2215,2.2156,2.2132,2.1038,2.0551,2.0862,1.9706,1.9409,2.0153,1.9256,1.9058,1.9546,1.972,2.0031,2.0543,2.1489,2.1991,2.2101,2.1791,2.1747,2.188,2.1369,2.0706,2.0031,1.9849,1.9148,1.821,1.8032,1.7962,1.7985,0.0,0.0,0.0,0.0,0.0,0.0,0.0,0.0,0.0,0.0,0.0,0.0,0.0,0.0,0.0,0.0,0.0,0.0,0.0,0.0,0.561,0.5865,0.6012,0.6252,0.6581,0.6656,0.6702,0.6731,0.6903,0.696,0.6915,0.6981,0.7023,0.708,0.761,0.7735,0.764,0.8758,0.9131,0.8997,0.9354,0.9506,0.9481,0.9318,0.9143,0.0,0.0,0.0,0.0,0.9592,1.0225,1.1032,1.0617,1.0936,1.1447,1.1266,1.2292,1.3576,1.4033,1.5117,1.6318,1.7184,1.7516,1.7676,1.7949,1.7991,1.794,1.775,1.7706,1.7621,1.7365,1.7469,1.7634,1.7796,1.8193,1.8547,1.8684,1.8919,1.9013,1.8865,1.8603,1.8391,0.0,0.0,0.0,2.0992,2.0778,2.0763,2.1103,2.0024,1.9581,2.0033,1.9234,1.8966,1.9302,1.8958,1.8758,1.8697,1.9348,1.9698,1.978,2.039,2.0742,2.089,2.0562,2.0503,2.0616,2.0119,1.965,1.924,1.9057,1.8581,1.7947,1.7768,1.7628,1.7574,0.0,0.0,0.0,0.0,0.0,0.0,0.0,0.0,0.0,0.0,0.0,0.0,0.0,0.0,0.0,0.0,0.0,0.0,0.0,0.0,0.0,0.5322,0.5665,0.5964,0.6181,0.636,0.6481,0.6553,0.6538,0.6478,0.6346,0.6154,0.6064,0.6085,0.672,0.7111,0.7324,0.8112,0.8532,0.8701,0.892,0.8843,0.8635,0.8893,0.0,0.0,0.0,0.0,0.0,0.0,1.0436,1.1119,1.1242,1.1828,1.2259,1.1333,1.3004,1.4981,1.4108,1.5603,1.7409,1.7429,1.7715,1.7974,1.7974,1.7974,1.7923,1.7733,1.7672,1.763,0.0,0.0,1.7447,1.8239,1.8184,1.8203,1.8614,1.866,1.8491,0.0,0.0,0.0,0.0,0.0,0.0,1.9446,0.0,2.0283,2.0636,1.9591,1.913,1.9513,1.9065,1.8804,1.8781,1.8781,1.8674,1.8481,1.8481,1.8812,1.9423,1.9423,1.99,2.0666,1.9764,1.9392,1.9355,1.8427,1.8063,1.8087,1.8063,1.79,1.7675,1.7675,1.7504,1.7279,0.0,0.0,0.0,0.0,0.0,0.0,0.0,0.0,0.0,0.0,0.0,0.0,0.0,0.0,0.0,0.0,0.0,0.0,0.0,0.0,0.0,0.0,0.0,0.0,0.0,0.0,0.0,0.0,0.0,0.5707,0.5734,0.5572,0.5498,0.0,0.6599,0.7029,0.702,0.8304,0.8732,0.8579,0.0,0.89,0.8762,0.0,0.0,0.0,0.0,0.0,0.0,0.0,0.0,0.0,1.2188,1.2098,1.19,1.3038,1.3993,1.4902,1.5961,1.6801,1.7477,1.7773,1.7818,1.7784,1.7784,1.7691,1.7564,1.7373,1.7339,1.727,0.0,0.0,0.0,1.7637,1.7684,0.0,1.8132,1.8181,0.0,1.8011,0.0,1.7514,1.742,1.7086,0.0,0.0,1.7833,1.8196,1.855,1.8507,1.8522,1.8633,1.873,1.872,1.8574,1.8373,1.8249,1.8203,1.8203,1.8179,1.8156,1.8156,1.8187,1.8211,1.7971,1.7978,1.8125,1.7683,1.7613,1.7791,1.759,1.7473,1.738,1.723,1.7136,1.7043,0.0,0.0,0.0,0.0,0.0,0.0,0.0,0.0,0.0,0.0,0.0,0.0,0.0,0.0,0.0,0.0,0.0,0.0,0.0,0.0,0.0,0.0,0.0,0.0,0.0,0.0,0.0,0.0,0.0,0.0,0.0,0.5208,0.5135,0.5126,0.6277,0.6767,0.6794,0.0,0.0,0.0,0.0,0.0,0.0,0.0,0.0,0.0,0.0,0.0,0.0,0.0,0.0,1.1874,1.2364,1.2539,1.2757,1.3642,0.0,1.5468,1.652,1.7225,1.7698,1.7838,1.7862,1.7784,1.7657,1.7606,1.7503,1.7253,1.7201,0.0,1.6943,0.0,0.0,0.0,0.0,0.0,1.7493,1.7636,1.7656,0.0,1.7221,0.0,1.7086,1.6853,1.6689,0.0,1.69,1.7191,1.7562,1.7769,1.7985,1.8287,1.8358,1.8379,1.8326,1.8179,1.804,1.7924,1.7924,1.7784,1.7527,1.7527,1.7387,1.7176,0.0,1.72,1.72,1.7052,1.7075,1.72,1.7052,1.6981,1.6981,1.6878,1.6518,1.6109,0.0,0.0,0.0,0.0,0.0,0.0,0.0,0.0,0.0,0.0,0.0,0.0,0.0,0.0,0.0,0.0,0.0,0.0,0.0,0.0,0.0,0.0,0.0,0.0,0.0,0.0,0.0,0.0,0.0,0.0,0.0,0.0,0.0,0.0,0.0,0.0,0.0,0.0,0.0,0.0,0.0,0.0,0.0,0.0,0.0,0.0,0.0,0.0,0.0,0.0,1.2193,1.2546,1.2229,1.2907,1.38,1.37,1.4824,1.6149,1.6515,1.7293,1.7957,1.7784,1.7845,1.7864,1.7573,1.7554,1.751,1.7218,0.0,1.7089,1.6864,1.6499,1.6342,1.6685,0.0,1.676,1.6789,1.71,1.7168,1.6759,1.6689,1.6689,1.6689,1.6689,1.6689,1.6669,1.6669,1.6811,1.717,1.7212,1.751,1.819,1.7944,1.788,1.8063,1.8017,1.7877,1.7651,1.7651,1.7527,1.7302,1.7302,1.72,1.7003,0.0,0.0,1.6612,1.6612,1.6511,1.6393,1.6393,1.6322,1.6173,1.615,1.5551,1.4728,0.0,0.0,0.0,0.0,0.0,0.0,0.0,0.0,0.0,0.0,0.0,0.0,0.0,0.0,0.0,0.0,0.0,0.0,0.0,0.0,0.0,0.0,0.0,0.0,0.0,0.0,0.0,0.0,0.0,0.0,0.0,0.0,0.0,0.0,0.0,0.0,0.0,0.0,0.0,0.0,0.0,0.0,0.0,0.0,0.0,0.0,0.0,0.0,0.0,0.0,1.187,1.2112,1.2592,1.2576,1.2668,1.414,1.4993,1.5784,1.7311,1.7864,1.7991,1.7957,1.7769,1.7573,1.7505,1.7254,0.0,0.0,1.696,1.683,1.6464,1.6123,1.5891,1.5911,1.5904,1.5994,1.6277,0.0,1.6792,0.0,0.0,0.0,0.0,0.0,0.0,0.0,0.0,0.0,1.6542,1.667,1.7026,1.7695,1.7447,1.7477,1.7768,1.7543,1.7426,1.738,1.738,1.7356,1.7302,1.7302,1.72,1.7003,0.0,0.0,1.6612,1.6612,1.6079,1.5283,1.5283,1.477,1.4016,1.3788,1.3577,1.3409,0.0,0.0,0.0,0.0,0.0,0.0,0.0,0.0,0.0,0.0,0.0,0.0,0.0,0.0,0.0,0.0,0.0,0.0,0.0,0.0,0.0,0.0,0.0,0.0,0.0,0.0,0.0,0.0,0.0,0.0,0.0,0.0,0.0,0.0,0.0,0.0,0.0,0.0,0.0,0.0,0.0,0.0,0.0,0.0,0.0,0.0,0.0,0.0,0.0,0.0,1.114,1.1671,1.2524,1.2626,1.2655,1.3876,1.4731,1.5615,1.7045,1.7708,1.7974,1.7879,1.7803,1.7684,1.7409,0.0,0.0,0.0,1.6726,1.6447,1.5974,1.5409,0.0,1.4983,1.4968,1.5207,1.5841,1.6238,0.0,0.0,0.0,0.0,0.0,0.0,0.0,0.0,0.0,0.0,1.6245,1.6471,1.6671,1.6873,1.7086,1.7235,1.7276,1.7292,1.7302,1.7302,1.7302,1.7239,1.7129,1.7129,1.6949,1.6579,0.0,0.0,1.5391,1.5391,1.4758,1.3812,1.3812,1.3518,1.306,1.2944,1.2557,1.2096,0.0,0.0,0.0,0.0,0.0,0.0,0.0,0.0,0.4012,0.4232,0.4401,0.4554,0.4718,0.4871,0.0,0.0,0.0,0.0,0.0,0.0,0.0,0.0,0.0,0.0,0.0,0.0,0.0,0.0,0.0,0.0,0.0,0.0,0.0,0.0,0.0,0.0,0.0,0.0,0.0,0.0,0.0,0.0,0.0,0.0,0.0,0.0,0.0,0.0,0.0,0.0,1.0524,1.116,1.2191,1.2565,1.2761,1.3402,1.4247,1.5222,1.6453,1.7149,1.7543,1.7629,1.7625,1.7506,1.7075,1.6949,0.0,1.6676,1.6136,1.5618,1.5293,1.4595,1.4019,0.0,1.4166,1.4581,1.5396,1.5905,1.6313,0.0,0.0,0.0,0.0,0.0,0.0,0.0,0.0,0.0,0.0,1.6192,1.6204,1.5915,1.641,1.6586,1.6349,1.6535,1.6631,1.656,1.656,1.645,1.6244,1.6244,1.5991,1.554,0.0,0.0,0.0,1.3956,1.3342,1.2387,1.2387,1.2242,1.2052,1.2052,1.1541,1.0861,0.0,0.0,0.0,0.0,0.0,0.0,0.0,0.0,0.4086,0.4119,0.4339,0.4504,0.4521,0.4707,0.0,0.0,0.0,0.0,0.0,0.0,0.0,0.0,0.0,0.0,0.0,0.0,0.0,0.0,0.0,0.0,0.0,0.0,0.0,0.0,0.0,0.0,0.0,0.0,0.0,0.0,0.0,0.0,0.0,0.0,0.0,0.0,0.0,0.0,0.0,0.0,0.0,1.048,1.1549,1.1974,1.223,1.3027,0.0,0.0,1.5969,1.6236,1.6239,1.7186,1.6892,1.6354,1.6305,0.0,1.5114,1.5685,1.4719,1.3894,1.4319,1.3751,1.3161,0.0,0.0,1.4449,1.4818,1.565,1.6313,1.667,0.0,0.0,0.0,0.0,0.0,0.0,0.0,0.0,0.0,1.5494,1.534,1.4945,1.499,1.4868,1.4536,1.4567,1.4453,1.4208,1.4208,1.4088,1.3824,1.3824,1.3662,1.3385,0.0,0.0,0.0,1.2853,1.2242,1.1341,1.1341,1.0739,0.9895,0.9895,0.9821,0.9747,0.0,0.0,0.0,0.0,0.0,0.0,0.0,0.0,0.4214,0.438,0.4499,0.4541,0.45,0.4639,0.0,0.0,0.0,0.0,0.0,0.0,0.0,0.0,0.0,0.0,0.0,0.0,0.0,0.0,0.0,0.0,0.0,0.0,0.0,0.0,0.0,0.0,0.0,0.0,0.0,0.0,0.0,0.0,0.0,0.0,0.0,0.0,0.0,0.0,0.0,0.0,0.0,0.0,1.0761,1.1189,0.0,0.0,1.2921,1.3599,1.4529,1.5285,1.5868,1.6183,1.6025,1.5725,1.5516,0.0,1.432,1.4476,1.3867,1.3293,1.3177,1.2727,1.2368,0.0,0.0,0.0,1.4078,1.4526,1.4943,0.0,0.0,0.0,0.0,0.0,0.0,0.0,0.0,0.0,0.0,1.3768,1.3758,1.3711,1.3909,1.4002,1.4003,1.404,1.4022,1.3902,1.3728,1.3518,1.3258,1.3258,1.3113,1.2853,0.0,0.0,0.0,1.1804,1.1175,1.0232,1.0232,0.9965,0.9603,0.9603,0.9603,0.9603,0.0,0.0,0.0,0.0,0.0,0.0,0.4175,0.4234,0.4345,0.4569,0.4639,0.4641,0.459,0.4676,0.4684,0.4578,0.0,0.0,0.0,0.0,0.0,0.0,0.0,0.0,0.0,0.0,0.0,0.0,0.0,0.0,0.0,0.0,0.0,0.0,0.0,0.0,0.0,0.0,0.0,0.0,0.0,0.0,0.0,0.0,0.0,0.0,0.0,0.0,0.0,0.0,0.0,0.0,0.0,0.0,0.0,0.0,1.2281,1.2853,1.3395,1.4175,1.4905,1.5246,1.5047,1.4743,0.0,0.0,1.3275,1.3332,1.281,1.2288,1.2132,1.1786,1.1535,0.0,0.0,1.2355,1.3394,1.3699,1.4028,0.0,0.0,0.0,0.0,0.0,0.0,0.0,0.0,0.0,0.0,1.1964,1.2204,1.2661,1.2891,1.298,1.29,1.2953,1.2891,1.2745,1.2546,1.2315,1.2058,1.2058,1.1955,0.0,0.0,0.0,0.0,1.0739,1.0281,0.9603,0.9603,0.9603,0.9579,0.9505,0.948,0.948,0.0,0.0,0.0,0.0,0.0,0.0,0.0,0.0,0.445,0.4581,0.4722,0.4804,0.48,0.48,0.4719,0.4513,0.0,0.0,0.0,0.0,0.0,0.0,0.0,0.0,0.0,0.0,0.0,0.0,0.0,0.0,0.0,0.0,0.0,0.0,0.0,0.0,0.0,0.0,0.0,0.0,0.0,0.0,0.0,0.0,0.0,0.0,0.0,0.0,0.0,0.0,0.0,0.0,0.0,1.0344,1.1173,0.0,1.1614,1.1853,1.2917,1.2884,1.2923,1.4508,1.3961,1.3147,0.0,0.0,1.1709,1.2382,1.1358,1.0552,1.1279,1.0976,1.0644,1.0701,1.1437,0.0,1.2818,1.3416,0.0,0.0,0.0,0.0,0.0,0.0,0.0,0.0,0.0,0.0,0.0,0.0,1.081,1.1884,1.1918,1.1557,1.0846,1.0826,1.056,1.0043,1.0043,0.9895,0.9628,0.9628,0.0,0.0,0.0,0.0,0.0,0.9628,0.9603,0.9603,0.9603,0.9603,0.9579,0.9307,0.9212,0.9158,0.0,0.0,0.0,0.0,0.0,0.0,0.0,0.0,0.4788,0.4925,0.4978,0.501,0.5007,0.5008,0.496,0.4852,0.0,0.0,0.0,0.0,0.0,0.0,0.0,0.0,0.0,0.0,0.0,0.0,0.0,0.0,0.0,0.0,0.0,0.0,0.0,0.0,0.0,0.0,0.0,0.0,0.0,0.0,0.0,0.0,0.0,0.0,0.0,0.0,0.0,0.0,0.0,0.0,0.0,0.0,0.0,1.1158,1.1415,1.1676,1.2015,1.2305,1.2605,1.3019,1.2823,1.2504,1.2428,1.1686,1.1052,1.117,1.0832,1.0584,1.087,1.0926,1.0934,1.0909,1.1284,0.0,0.0,0.0,0.0,0.0,0.0,0.0,0.0,0.0,0.0,0.0,0.0,0.0,0.0,0.0,1.0521,1.0999,1.0969,1.0896,1.0801,1.0437,1.0167,0.9994,0.9826,0.9677,0.9603,0.9603,0.0,0.0,0.0,0.0,0.0,0.8425,0.8071,0.8142,0.722,0.6872,0.6847,0.6775,0.675,0.6725,0.0,0.0,0.0,0.0,0.0,0.0,0.0,0.0,0.4942,0.5083,0.5142,0.5171,0.5171,0.5172,0.0,0.5044,0.0,0.0,0.0,0.0,0.0,0.0,0.0,0.0,0.0,0.0,0.0,0.0,0.0,0.0,0.0,0.0,0.0,0.0,0.0,0.0,0.0,0.0,0.0,0.0,0.0,0.0,0.8995,0.0,0.0,0.0,0.0,0.0,0.0,0.0,0.0,0.0,0.0,0.0,0.0,0.0,1.1194,1.1591,1.1591,1.1872,1.2174,1.2282,1.2073,0.0,0.0,1.1247,1.0697,1.0624,1.0609,1.0616,1.0689,1.0858,1.0986,1.0999,1.1249,0.0,0.0,0.0,0.0,0.0,0.0,0.0,0.0,0.0,0.0,0.0,0.0,0.0,0.0,0.0,0.9582,0.9435,1.014,1.0513,1.0507,1.0167,0.9743,0.9245,0.9072,0.8775,0.8396,0.0,0.0,0.0,0.0,0.0,0.0,0.7021,0.6694,0.6769,0.5922,0.5597,0.5597,0.5475,0.5452,0.5425,0.0,0.0,0.0,0.0,0.0,0.0,0.0,0.0,0.0,0.0,0.0,0.5297,0.5297,0.5297,0.0,0.0,0.0,0.0,0.0,0.0,0.0,0.0,0.0,0.0,0.0,0.0,0.0,0.0,0.6024,0.6534,0.705,0.0,0.0,0.0,0.0,0.0,0.0,0.0,0.0,0.0,0.0,0.0,0.0,0.0,0.0,0.0,0.0,0.0,0.0,0.0,0.0,0.0,0.0,0.0,0.0,0.0,0.0,0.0,0.0,1.1576,1.1685,1.212,1.1654,0.0,0.0,1.1153,0.0,1.0609,1.0609,1.0616,1.0689,1.0774,1.0858,1.0981,1.129,0.0,0.0,0.0,0.0,0.0,0.0,0.0,0.0,0.0,0.0,0.0,0.0,0.0,0.0,0.0,0.0,0.7446,0.925,1.0075,0.9768,0.9743,0.9118,0.7897,0.7897,0.7347,0.6373,0.0,0.0,0.0,0.0,0.0,0.0,0.5475,0.5447,0.545,0.5347,0.5325,0.5275,0.5029,0.4954,0.4903,0.0,0.0,0.0,0.0,0.0,0.0,0.0,0.0,0.0,0.0,0.0,0.0,0.0,0.0,0.0,0.0,0.0,0.0,0.0,0.0,0.0,0.0,0.0,0.0,0.0,0.0,0.0,0.5723,0.6559,0.7107,0.739,0.7859,0.0,0.0,0.0,0.0,0.0,0.0,0.0,0.0,0.0,0.0,0.0,0.0,0.0,0.0,0.9159,0.925,0.0,0.0,0.0,0.0,0.0,0.0,0.0,0.0,1.1048,1.1576,1.1412,0.0,1.1404,1.1506,1.1326,1.109,0.0,0.0,0.0,0.0,0.0,1.0616,1.0689,1.0875,1.1021,1.0999,1.1403,1.178,0.0,0.0,0.0,0.0,0.0,0.0,0.0,0.0,0.0,0.0,0.0,0.0,0.0,0.0,0.0,0.667,0.7262,0.7573,0.7561,0.7344,0.7095,0.6772,0.6772,0.6526,0.6104,0.0,0.0,0.0,0.0,0.0,0.0,0.4275,0.3874,0.3971,0.2947,0.2546,0.2521,0.2472,0.2447,0.2447,0.0,0.0,0.0,0.0,0.0,0.0,0.0,0.0,0.0,0.0,0.0,0.0,0.0,0.0,0.0,0.0,0.0,0.0,0.0,0.0,0.0,0.0,0.0,0.0,0.0,0.0,0.0,0.0,0.0,0.7611,0.0,0.0,0.0,0.0,0.0,0.0,0.0,0.0,0.0,0.0,0.9126,0.0,0.0,0.0,0.0,0.0,0.9335,0.9387,0.0,0.9549,0.9601,0.9617,0.0,0.0,0.0,0.0,1.1036,1.1357,1.1303,1.1303,1.1294,1.1216,1.1075,1.0933,1.0823,0.0,0.0,0.0,0.0,1.0544,1.0825,1.088,1.0981,1.1304,1.1629,0.0,0.0,0.0,0.0,0.0,0.0,0.0,0.0,0.0,0.0,0.0,0.0,0.0,0.0,0.0,0.0,0.0,0.5104,0.5544,0.6617,0.647,0.6149,0.5654,0.5552,0.5152,0.4529,0.0,0.0,0.0,0.0,0.0,0.3699,0.2822,0.2546,0.2621,0.1893,0.1592,0.1592,0.1592,0.1592,0.1592,0.0,0.0,0.0,0.0,0.0,0.0,0.0,0.0,0.0,0.0,0.0,0.0,0.0,0.0,0.0,0.0,0.0,0.0,0.0,0.0,0.0,0.0,0.0,0.0,0.0,0.0,0.0,0.0,0.0,0.0,0.0,0.0,0.0,0.0,0.0,0.0,0.0,0.0,0.0,0.0,0.9172,0.0,0.0,0.0,0.0,0.0,0.0,0.0,0.0,0.9536,0.9572,0.9646,0.9813,0.0,0.0,0.0,0.0,0.0,1.1193,1.1225,1.1193,1.1075,1.0902,1.0776,1.0776,0.0,0.0,0.0,0.0,0.0,1.0772,1.0739,0.0,0.0,0.0,0.0,0.0,0.0,0.0,0.0,0.0,0.0,0.0,0.0,0.0,0.0,0.0,0.0,0.0,0.0,0.0,0.0,0.3302,0.4002,0.5899,0.5899,0.5427,0.4483,0.4255,0.3629,0.2675,0.2448,0.0,0.0,0.0,0.0,0.1592,0.1592,0.1592,0.1592,0.1592,0.1592,0.1592,0.1592,0.1592,0.1592,0.0,0.0,0.0,0.0,0.0,0.0,0.0,0.0,0.0,0.0,0.0,0.0,0.0,0.0,0.0,0.0,0.0,0.0,0.0,0.0,0.0,0.0,0.0,0.0,0.0,0.0,0.0,0.0,0.0,0.0,0.8626,0.9142,0.931,0.0,0.0,0.0,0.0,0.9361,0.9426,0.9491,0.929,0.0,0.0,0.0,0.0,0.0,0.0,0.0,0.0,0.9224,0.9453,0.9692,0.9714,0.0,0.0,0.0,0.0,0.0,1.0917,1.0886,1.0863,1.0854,1.0744,1.0634,1.0634,0.0,0.0,0.0,0.0,0.0,0.0,1.0361,1.0579,0.0,0.0,0.0,0.0,0.0,0.0,0.0,0.0,0.0,0.0,0.0,0.0,0.0,0.0,0.0,0.0,0.0,0.0,0.0,0.0,0.3291,0.3681,0.3681,0.3504,0.3102,0.3077,0.2725,0.2122,0.2071,0.192,0.0,0.0,0.0,0.1592,0.1592,0.1592,0.1592,0.1592,0.1592,0.1592,0.1592,0.1592,0.1592,0.0,0.0,0.0,0.0,0.0,0.0,0.0,0.0,0.0,0.0,0.0,0.0,0.0,0.0,0.0,0.0,0.0,0.0,0.0,0.0,0.0,0.0,0.0,0.0,0.0,0.0,0.0,0.0,0.0,0.9174,0.9142,0.9393,0.9471,0.9413,0.0,0.0,0.9296,0.9361,0.9348,0.927,0.0,0.0,0.0,0.0,0.0,0.0,0.0,0.0,0.0,0.0,0.9666,0.9946,1.0135,0.0,0.0,0.0,0.0,0.0,1.0383,1.0469,1.0507,0.9741,1.0009,1.0444,0.0,0.0,0.0,0.0,0.0,0.0,0.0,0.0,0.0,0.0,0.0,0.0,0.0,0.0,0.0,0.0,0.0,0.0,0.0,0.0,0.0,0.0,0.0,0.0,0.0,0.0,0.0,0.0,0.0,0.0,0.2977,0.2977,0.2927,0.2801,0.2648,0.2373,0.1996,0.1844,0.1718,0.0,0.0,0.1592,0.1592,0.1592,0.1592,0.1592,0.1592,0.1592,0.1592,0.1592,0.1592,0.1592,0.0,0.0,0.0,0.0,0.0,0.0,0.0,0.0,0.0,0.0,0.0,0.0,0.0,0.0,0.0,0.0,0.0,0.0,0.0,0.0,0.0,0.0,0.0,0.0,0.0,0.0,0.0,0.8948,0.9178,0.9387,0.9549,0.9549,0.9536,0.0,0.0,0.0,0.9211,0.9316,0.9237,0.9061,0.0,0.0,0.0,0.0,0.0,0.0,0.0,0.0,0.0,0.0,0.0,0.0,0.0,0.0,0.0,1.0763,1.069,1.0405,0.9694,0.9795,0.9833,0.8716,0.9412,0.0,0.0,0.0,0.0,0.0,0.0,0.0,0.0,0.0,0.0,0.0,0.0,0.0,0.0,0.0,0.0,0.0,0.0,0.0,0.0,0.0,0.0,0.0,0.0,0.0,0.0,0.0,0.0,0.0,0.0,0.0,0.2799,0.2801,0.2725,0.2599,0.2397,0.2171,0.1895,0.1693,0.1592,0.1592,0.1592,0.1592,0.1592,0.1592,0.1592,0.1592,0.1592,0.1592,0.1592,0.1592,0.1592,0.1592,0.0,0.0,0.0,0.0,0.0,0.0,0.0,0.0,0.0,0.0,0.0,0.0,0.0,0.0,0.0,0.0,0.0,0.0,0.0,0.0,0.0,0.0,0.0,0.0,0.0,0.7329,0.7784,0.7635,0.8935,0.951,0.9413,0.9413,0.9348,0.9224,0.0,0.9224,0.9198,0.9211,0.9198,0.9172,0.9061,0.0,0.0,0.0,0.0,0.0,0.0,0.0,0.0,0.0,0.0,0.0,0.0,0.0,1.0663,1.0075,0.9885,0.9678,0.8828,0.8619,0.8587,0.8296,0.9412,0.0,0.8699,0.8731,0.0,0.8221,0.0,0.0,0.0,0.0,0.0,0.0,0.0,0.0,0.0,0.0,0.0,0.0,0.0,0.0,0.0,0.0,0.0,0.0,0.0,0.0,0.0,0.0,0.0,0.0,0.0,0.0,0.2801,0.2801,0.255,0.2046,0.2046,0.1895,0.1617,0.1617,0.1592,0.1592,0.1592,0.1592,0.1592,0.1592,0.1592,0.1592,0.1592,0.1592,0.1592,0.1592,0.1592,0.1592,0.0,0.0,0.0,0.0,0.0,0.0,0.0,0.0,0.0,0.0,0.0,0.0,0.0,0.0,0.0,0.0,0.0,0.0,0.0,0.0,0.0,0.0,0.0,0.5873,0.6436,0.7079,0.7557,0.7871,0.887,0.9322,0.927,0.927,0.0,0.0,0.0,0.9159,0.9074,0.9074,0.9021,0.8963,0.9079,0.9126,0.0,0.0,0.0,0.0,0.0,0.0,0.0,0.0,1.0147,1.0425,1.0503,1.0656,1.0643,0.9853,0.9709,0.9518,0.8231,0.809,0.8102,0.719,0.804,0.0,0.0,0.8097,0.8186,0.8159,0.7686,0.0,0.0,0.0,0.0,0.0,0.0,0.0,0.0,0.0,0.0,0.0,0.0,0.0,0.0,0.0,0.0,0.0,0.0,0.0,0.0,0.0,0.0,0.0,0.0,0.0,0.0,0.2398,0.2122,0.1743,0.1921,0.1869,0.1592,0.1592,0.1592,0.1592,0.1592,0.1592,0.1592,0.1592,0.1592,0.1592,0.1592,0.1592,0.1592,0.1592,0.1592,0.1592,0.0,0.0,0.0,0.0,0.0,0.0,0.0,0.0,0.0,0.0,0.0,0.0,0.0,0.0,0.0,0.0,0.0,0.0,0.0,0.0,0.0,0.0,0.0,0.5818,0.6186,0.6783,0.7442,0.8124,0.8811,0.9133,0.9133,0.0,0.0,0.0,0.0,0.9021,0.8943,0.9031,0.8985,0.8891,0.9154,0.9266,0.0,0.0,0.0,0.0,0.0,0.0,0.0,0.0,1.0403,1.0577,1.0396,1.0405,1.0272,0.924,0.8983,0.8758,0.7451,0.7277,0.7239,0.626,0.0,0.0,0.7259,0.7371,0.7499,0.7478,0.6952,0.0,0.0,0.0,0.0,0.0,0.0,0.0,0.0,0.0,0.0,0.0,0.0,0.0,0.0,0.0,0.0,0.0,0.0,0.0,0.0,0.0,0.0,0.0,0.0,0.0,0.0,0.2097,0.1869,0.1592,0.1794,0.1768,0.1592,0.1592,0.1592,0.1592,0.1592,0.1592,0.1592,0.1592,0.1592,0.1592,0.1592,0.1592,0.1592,0.1592,0.1592,0.1592,0.0,0.0,0.0,0.0,0.0,0.0,0.0,0.0,0.0,0.0,0.0,0.0,0.0,0.0,0.0,0.0,0.0,0.0,0.0,0.0,0.0,0.0,0.0,0.5297,0.5315,0.649,0.7461,0.8208,0.8732,0.8995,0.8995,0.8995,0.0,0.0,0.0,0.8798,0.8818,0.9091,0.912,0.9028,0.9299,0.941,0.9442,0.0,0.0,0.0,0.0,0.0,0.0,0.0,1.0593,1.0491,0.9955,0.9789,0.9512,0.8107,0.7544,0.7223,0.6408,0.605,0.5855,0.0,0.0,0.0,0.5805,0.6462,0.6827,0.59,0.0,0.5871,0.0,0.0,0.0,0.0,0.0,0.0,0.0,0.0,0.0,0.0,0.0,0.0,0.0,0.0,0.0,0.0,0.0,0.0,0.0,0.0,0.0,0.0,0.0,0.0,0.0,0.1996,0.1869,0.1592,0.1592,0.1592,0.1592,0.1592,0.1592,0.1592,0.1592,0.1592,0.1592,0.1592,0.1592,0.1592,0.1592,0.1592,0.1592,0.1592,0.1592,0.1592,0.0,0.0,0.0,0.0,0.0,0.0,0.0,0.0,0.0,0.0,0.0,0.0,0.0,0.0,0.0,0.0,0.0,0.0,0.0,0.0,0.0,0.0,0.0,0.0,0.0,0.0,0.7977,0.8619,0.8778,0.8857,0.0,0.0,0.0,0.8818,0.0,0.0,0.0,0.0,0.9524,0.9507,0.9681,0.9753,0.9771,0.0,0.0,0.0,0.0,0.0,0.0,0.0,0.0,0.0,0.8941,0.8887,0.8678,0.7653,0.7312,0.7071,0.6214,0.5835,0.0,0.5738,0.0,0.0,0.0,0.6029,0.0,0.0,0.0,0.0,0.0,0.0,0.0,0.0,0.0,0.0,0.0,0.0,0.0,0.0,0.0,0.0,0.0,0.0,0.0,0.0,0.0,0.0,0.0,0.0,0.0,0.0,0.0,0.0,0.0,0.0,0.1287,0.0479,0.0479,0.0858,0.1592,0.1592,0.1592,0.1592,0.1592,0.1592,0.1592,0.1592,0.1592,0.1592,0.1592,0.1592,0.1592,0.1592,0.1592,0.1592,0.0,0.0,0.0,0.0,0.0,0.0,0.0,0.0,0.0,0.0,0.5297,0.5297,0.0,0.0,0.0,0.0,0.0,0.0,0.0,0.0,0.0,0.0,0.0,0.0,0.0,0.688,0.7618,0.0,0.0,0.0,0.0,0.0,0.0,0.8978,0.0,0.9356,0.0,0.0,0.9528,0.9183,0.9669,0.9528,0.9066,0.0,0.0,0.0,0.0,0.0,0.0,0.0,0.0,0.0,0.8064,0.7983,0.7837,0.7039,0.6695,0.6433,0.5855,0.5554,0.0,0.5477,0.543,0.5425,0.5617,0.0,0.0,0.0,0.0,0.0,0.0,0.0,0.0,0.0,0.0,0.0,0.0,0.0,0.0,0.0,0.0,0.0,0.0,0.0,0.0,0.0,0.0,0.0,0.0,0.0,0.0,0.0,0.0,0.0,0.0,0.0,0.0,0.0,-0.0428,-0.0303,0.0353,0.0782,0.0959,0.0984,0.1414,0.1592,0.1592,0.1592,0.1592,0.1592,0.1592,0.1592,0.1592,0.1592,0.1592,0.1592,0.0,0.0,0.0,0.0,0.0,0.0,0.0,0.0,0.0,0.0,0.5297,0.5297,0.0,0.0,0.0,0.0,0.0,0.0,0.0,0.0,0.0,0.0,0.0,0.0,0.0,0.0,0.0,0.0,0.0,0.0,0.0,0.0,0.9237,0.9236,0.0,0.9574,0.0,0.9672,0.926,0.8442,0.9338,0.8931,0.7848,0.8447,0.0,0.0,0.0,0.0,0.0,0.0,0.0,0.0,0.7284,0.7083,0.6953,0.6326,0.5881,0.5567,0.5408,0.5253,0.0,0.5034,0.5107,0.0,0.5517,0.5501,0.5485,0.0,0.0,0.0,0.0,0.0,0.0,0.0,0.0,0.0,0.0,0.0,0.0,0.0,0.0,0.0,0.0,0.0,0.0,0.0,0.0,0.0,0.0,0.0,0.0,0.0,0.0,0.0,0.0,0.0,0.0,0.0,-0.1235,-0.179,-0.1839,-0.068,-0.0151,-0.0076,0.1086,0.1541,0.1465,0.1566,0.1592,0.1592,0.1592,0.1592,0.1592,0.1592,0.1592,0.1592,0.0,0.0,0.0,0.0,0.0,0.0,0.0,0.0,0.0,0.0,0.0,0.0,0.0,0.0,0.0,0.0,0.0,0.0,0.0,0.0,0.0,0.0,0.0,0.0,0.0,0.0,0.0,0.0,0.0,0.0,0.0,0.0,0.0,0.9369,0.0,0.9463,0.8789,0.9078,0.9057,0.885,0.8913,0.8758,0.8495,0.8533,0.8129,0.0,0.0,0.0,0.0,0.0,0.0,0.0,0.6231,0.6181,0.6115,0.5815,0.5666,0.5534,0.5236,0.5204,0.0,0.0,0.5217,0.5277,0.5294,0.506,0.503,0.0,0.0,0.0,0.0,0.0,0.0,0.0,0.0,0.0,0.0,0.0,0.0,0.0,0.0,0.0,0.0,0.0,0.0,0.0,0.0,0.0,0.0,0.0,0.0,0.0,0.0,0.0,0.1592,0.0529,-0.0428,0.0,-0.2343,-0.3299,-0.4054,-0.2141,-0.126,-0.1159,0.0757,0.1111,0.0403,0.1262,0.1592,0.1592,0.1592,0.1592,0.1592,0.1592,0.1592,0.1592,0.0,0.0,0.0,0.0,0.0,0.0,0.0,0.0,0.0,0.0,0.0,0.0,0.0,0.0,0.0,0.0,0.0,0.0,0.0,0.0,0.0,0.0,0.0,0.0,0.0,0.0,0.0,0.0,0.0,0.0,0.0,0.0,0.0,0.9268,0.0,0.9125,0.8317,0.8361,0.8135,0.7773,0.7994,0.7686,0.7149,0.7393,0.7055,0.6457,0.6552,0.0,0.0,0.0,0.0,0.0,0.0,0.0,0.5736,0.5633,0.555,0.5422,0.5057,0.0,0.0,0.504,0.0,0.5104,0.4899,0.4769,0.4739,0.0,0.0,0.0,0.0,0.0,0.0,0.0,0.0,0.0,0.0,0.0,0.0,0.0,0.0,0.0,0.0,0.0,0.0,0.0,0.0,0.0,0.0,0.0,0.0,0.0,0.0,0.0,0.0832,-0.0227,-0.131,-0.2368,-0.345,-0.4255,-0.4734,-0.3098,-0.1814,-0.0806,-0.0202,0.0328,0.0782,0.0807,0.1136,0.1592,0.1592,0.1592,0.1592,0.1592,0.1592,0.1592,0.0,0.0,0.0,0.0,0.0,0.0,0.0,0.0,0.0,0.0,0.0,0.0,0.0,0.0,0.0,0.0,0.0,0.0,0.0,0.0,0.0,0.0,0.0,0.0,0.0,0.0,0.0,0.0,0.0,0.0,0.0,0.0,0.0,0.8904,0.0,0.0,0.7718,0.754,0.7051,0.6449,0.7006,0.6568,0.5637,0.6186,0.5976,0.5395,0.5395,0.5395,0.5395,0.5395,0.0,0.0,0.0,0.0,0.5567,0.5567,0.5455,0.5259,0.4897,0.0,0.4938,0.4862,0.4865,0.0,0.4582,0.4493,0.0,0.0,0.0,0.0,0.0,0.0,0.0,0.0,0.0,0.0,0.0,0.0,0.0,0.0,0.0,0.0,0.0,0.0,0.0,0.0,0.0,0.0,0.0,0.0,0.0,0.0,0.0,0.1088,0.0,-0.1057,-0.2142,-0.3224,-0.428,-0.4809,-0.4759,-0.3879,-0.2517,-0.0856,-0.1386,-0.0706,0.0732,0.0202,0.0529,0.1338,0.1516,0.1592,0.1592,0.1592,0.1592,0.1592,0.0,0.0,0.0,0.0,0.0,0.0,0.0,0.0,0.0,0.0,0.5297,0.0,0.0,0.0,0.0,0.0,0.0,0.0,0.0,0.0,0.0,0.0,0.0,0.0,0.0,0.0,0.0,0.0,0.0,0.0,0.0,0.0,0.0,0.8142,0.0,0.0,0.6609,0.658,0.6515,0.6416,0.6498,0.6433,0.6268,0.6367,0.5976,0.5395,0.5395,0.5395,0.5395,0.5395,0.5408,0.0,0.0,0.0,0.5428,0.5428,0.5289,0.509,0.4861,0.0,0.4777,0.0,0.4727,0.4516,0.0,0.0,0.0,0.0,0.0,0.0,0.0,0.0,0.0,0.0,0.0,0.0,0.0,0.0,0.0,0.0,0.0,0.0,0.0,0.0,0.0,0.0,0.0,0.0,0.0,0.0,0.1508,0.1516,0.1568,0.0,0.0,-0.1075,-0.2142,-0.3224,-0.428,-0.4809,-0.4784,-0.4659,-0.4431,-0.4053,-0.2343,-0.1965,-0.2417,-0.0705,0.0076,0.0303,0.1237,0.1592,0.1592,0.1592,0.1592,0.1592,0.0,0.0,0.0,0.0,0.0,0.0,0.0,0.0,0.0,0.0,0.0,0.551,0.0,0.0,0.0,0.0,0.0,0.0,0.0,0.0,0.0,0.0,0.0,0.0,0.0,0.0,0.0,0.0,0.0,0.0,0.0,0.6859,0.6973,0.0,0.0,0.0,0.0,0.0,0.5831,0.5831,0.5831,0.5765,0.5679,0.5798,0.5587,0.5239,0.5359,0.5395,0.5395,0.5395,0.5395,0.5395,0.5395,0.0,0.0,0.0,0.5173,0.5056,0.4801,0.4713,0.4676,0.0,0.4479,0.4305,0.3944,0.0,0.0,0.0,0.0,0.0,0.0,0.0,0.0,0.0,0.0,0.0,0.0,0.0,0.0,0.0,0.0,0.0,0.0,0.0,0.0,0.0,0.0,0.0,0.0,0.1425,0.1463,0.1503,0.153,0.0,-0.0931,-0.1408,-0.2468,-0.4105,-0.4582,-0.4809,-0.4809,-0.4809,-0.4481,-0.3879,-0.355,-0.2972,-0.2242,-0.1285,-0.0554,0.005,0.0529,0.0706,0.0706,0.0706,0.0706,0.0782,0.0,0.0,0.0,0.0,0.0,0.0,0.0,0.0,0.0,0.0,0.0,0.0,0.0,0.0,0.0,0.0,0.0,0.0,0.0,0.0,0.0,0.0,0.0,0.0,0.0,0.0,0.0,0.0,0.0,0.0,0.6115,0.5818,0.598,0.0,0.6416,0.0,0.0,0.0,0.0,0.0,0.5342,0.5239,0.5103,0.0,0.0,0.0,0.5286,0.5326,0.5269,0.5353,0.5326,0.5246,0.5246,0.5246,0.0,0.0,0.0,0.0,0.0,0.0,0.4465,0.4246,0.4138,0.3923,0.0,0.0,0.0,0.0,0.0,0.0,0.0,0.0,0.0,0.0,0.0,0.0,0.0,0.0,0.0,0.0,0.0,0.0,0.0,0.0,0.0,0.0,0.0,0.0,0.1391,0.1391,0.1423,0.1468,0.1499,0.0469,-0.1665,-0.2194,-0.3232,-0.4779,-0.4799,-0.4809,-0.4809,-0.4809,-0.4356,-0.3651,-0.4456,-0.3904,-0.2393,-0.2116,-0.1537,-0.0781,-0.0504,-0.0252,0.0,0.0,0.0176,0.0529,0.0,0.0,0.0,0.0,0.0,0.0,0.0,0.0,0.0,0.0,0.0,0.0,0.0,0.0,0.0,0.5903,0.0,0.0,0.0,0.0,0.0,0.0,0.0,0.0,0.0,0.0,0.0,0.0,0.0,0.0,0.5921,0.5888,0.5739,0.5478,0.5475,0.5445,0.5412,0.0,0.0,0.0,0.0,0.0,0.0,0.0,0.0,0.0,0.0,0.0,0.0,0.52,0.0,0.0,0.0,0.0,0.0,0.0,0.0,0.0,0.0,0.4275,0.0,0.4171,0.368,0.0,0.0,0.0,0.0,0.0,0.0,0.0,0.0,0.0,0.0,0.0,0.0,0.0,0.0,0.0,0.0,0.0,0.0,0.0,0.0,0.0,0.0,0.0,0.0,0.0,0.1391,0.1391,0.1391,0.1415,0.1466,0.0509,-0.1574,-0.3561,-0.4588,-0.4716,-0.4771,-0.4809,-0.4809,-0.4809,-0.4759,-0.4709,-0.4784,-0.4734,-0.4558,-0.3525,-0.3073,-0.2922,-0.1915,-0.0907,0.0,0.0,0.0656,0.1516,0.0,0.0,0.0,0.0,0.0,0.0,0.0,0.0,0.0,0.0,0.0,0.0,0.0,0.0,0.6229,0.6229,0.6286,0.0,0.0,0.0,0.0,0.0,0.0,0.0,0.0,0.0,0.0,0.0,0.0,0.5954,0.5703,0.5624,0.5511,0.5395,0.5395,0.5395,0.5402,0.5484,0.0,0.0,0.0,0.0,0.0,0.0,0.0,0.0,0.0,0.0,0.0,0.0,0.0,0.0,0.0,0.0,0.0,0.0,0.0,0.0,0.0,0.0,0.0,0.3465,0.3199,0.2951,0.0,0.0,0.0,0.0,0.0,0.0,0.0,0.0,0.0,0.0,0.0,0.0,0.0,0.0,0.0,0.0,0.0,0.0,0.0,0.0,0.0,0.0,0.0,0.0,0.1391,0.1391,0.1391,0.1391,0.1423,0.0456,-0.1569,-0.3607,-0.4651,-0.4708,-0.4714,-0.4757,-0.4809,-0.4809,-0.4809,-0.4809,-0.4809,-0.4809,-0.4709,-0.3651,-0.3198,-0.3173,-0.2771,-0.2393,-0.1964,-0.1285,-0.0782,-0.0252,0.0,0.0,0.0,0.0,0.0,0.0,0.0,0.0,0.0,0.0,0.0,0.0,0.0,0.0,0.6301,0.6235,0.6301,0.6334,0.6334,0.6334,0.0,0.0,0.0,0.0,0.0,0.0,0.0,0.0,0.0,0.0,0.0,0.5504,0.5442,0.5395,0.545,0.5474,0.0,0.0,0.0,0.5359,0.0,0.0,0.4783,0.0,0.0,0.0,0.0,0.0,0.0,0.0,0.0,0.0,0.0,0.0,0.0,0.0,0.0,0.0,0.3868,0.0,0.0,0.0,0.0,0.2697,0.0,0.0,0.0,0.0,0.0,0.0,0.0,0.0,0.0,0.0,0.0,0.0,0.0,0.0,0.0,0.0,0.0,0.0,0.0,0.0,0.0,0.0,0.0,0.0,0.1391,0.1391,0.1391,0.1391,0.0784,-0.018,-0.1531,-0.3522,-0.4557,-0.4594,-0.4649,-0.4708,-0.4767,-0.4767,-0.4783,-0.4809,-0.4809,-0.4809,-0.4734,-0.4029,-0.3728,-0.3728,-0.3728,-0.3525,-0.3073,-0.1991,-0.1588,-0.1336,0.0,0.0,0.0,0.0,0.0,0.0,0.0,0.0,0.0,0.0,0.0,0.0,0.0,0.0,0.0,0.5921,0.6083,0.6194,0.6194,0.6194,0.0,0.0,0.0,0.0,0.0,0.0,0.0,0.0,0.0,0.0,0.0,0.0,0.5521,0.5409,0.5539,0.5596,0.5586,0.0,0.5382,0.5456,0.0,0.4897,0.4879,0.0,0.0,0.0,0.4994,0.4926,0.0,0.0,0.0,0.0,0.0,0.0,0.0,0.0,0.0,0.0,0.0,0.0,0.0,0.0,0.0,0.0,0.2143,0.0,0.0,0.0,0.0,0.0,0.0,0.0,0.0,0.0,0.0,0.0,0.0,0.0,0.0,0.0,0.0,0.0,0.0,0.0,0.0,0.0,0.0,0.1391,0.1391,0.1391,0.1391,0.1391,-0.0425,-0.1409,-0.1409,-0.3402,-0.4409,-0.4413,-0.4526,-0.464,-0.4704,-0.4708,-0.4728,-0.4805,-0.4807,-0.4809,-0.4809,-0.4809,-0.4809,-0.4809,-0.4809,-0.4155,-0.3123,-0.2016,-0.1613,-0.1487,0.0,0.0,0.0,0.0,0.0,0.0,0.0,0.0,0.0,0.0,0.0,0.0,0.0,0.0,0.0,0.5908,0.5954,0.5987,0.5987,0.5987,0.5987,0.5987,0.5921,0.0,0.0,0.0,0.0,0.0,0.0,0.0,0.0,0.0,0.0,0.0,0.5428,0.5489,0.5664,0.5609,0.0,0.0,0.5094,0.4948,0.0,0.0,0.0,0.0,0.0,0.4983,0.492,0.0,0.498,0.4901,0.0,0.0,0.0,0.0,0.0,0.0,0.3212,0.0,0.0,0.0,0.0,0.0,0.2205,0.2022,0.0,0.0,0.0,0.0,0.0,0.0,0.0,0.0,0.0,0.0,0.0,0.0,0.0,0.0,0.0,0.0,0.0,0.0,0.0,0.0,0.0,0.1391,0.1391,0.1391,0.1391,0.1391,-0.0425,-0.1409,-0.1409,-0.3353,-0.4348,-0.4388,-0.4438,-0.4522,-0.4636,-0.4677,-0.4722,-0.4722,-0.4783,-0.4809,-0.4809,-0.4809,-0.4809,-0.4809,-0.4809,-0.4609,-0.413,-0.2293,-0.2091,-0.2493,0.0,0.0,0.0,0.0,0.0,0.0,0.0,0.0,0.0,0.0,0.0,0.0,0.0,0.0,0.0,0.0,0.5739,0.5769,0.5769,0.5769,0.5769,0.5769,0.5723,0.569,0.0,0.0,0.0,0.0,0.0,0.0,0.0,0.0,0.0,0.0,0.0,0.0,0.0,0.0,0.0,0.0,0.5094,0.0,0.0,0.4697,0.464,0.0,0.0,0.0,0.472,0.4565,0.4506,0.0,0.0,0.0,0.0,0.0,0.0,0.0,0.0,0.0,0.0,0.0,0.0,0.0,0.208,0.1969,0.1815,0.0,0.0,0.0,0.0,0.0,0.0,0.0,0.0,0.0,0.0,0.0,0.0,0.0,0.0,0.0,0.0,0.0,0.0,0.0,0.1391,0.1391,0.1391,0.1391,0.1391,0.1391,-0.0425,-0.1409,-0.1409,-0.3334,-0.4324,-0.4356,-0.4356,-0.4403,-0.4518,-0.461,-0.4673,-0.4712,-0.4773,-0.4809,-0.4809,-0.4809,-0.4809,-0.4809,-0.4809,-0.4809,-0.4582,-0.2897,-0.2947,-0.3626,0.0,0.0,0.0,0.0,0.0,0.0,0.0,0.0,0.0,0.0,0.0,0.0,0.0,0.0,0.0,0.0,0.5504,0.5583,0.5583,0.5583,0.5583,0.5583,0.5458,0.5395,0.5395,0.0,0.0,0.0,0.0,0.0,0.0,0.0,0.0,0.0,0.0,0.0,0.0,0.0,0.0,0.5185,0.5054,0.4976,0.0,0.0,0.4363,0.0,0.3919,0.4036,0.4287,0.3919,0.3802,0.0,0.0,0.0,0.0,0.0,0.3533,0.0,0.0,0.0,0.0,0.0,0.0,0.0,0.194,0.1877,0.1788,0.0,0.0,0.0,0.0,0.0,0.0,0.0,0.0,0.0,0.0,0.0,0.0,0.0,0.0,0.0,0.0,0.0,0.1391,0.1391,0.1391,0.1391,0.1391,0.1391,0.1391,0.1391,-0.0425,-0.1409,-0.1409,-0.3334,-0.43,-0.43,-0.43,-0.4342,-0.4401,-0.4516,-0.4608,-0.4698,-0.4759,-0.4801,-0.4809,-0.4809,-0.4803,-0.4797,-0.4805,-0.4803,-0.4672,-0.3597,-0.3879,-0.4659,0.0,0.0,0.0,0.0,0.0,0.0,0.0,0.0,0.0,0.0,0.0,0.0,0.0,0.0,0.0,0.0,0.0,0.5442,0.0,0.0,0.5442,0.5442,0.5408,0.5395,0.5395,0.5395,0.0,0.0,0.0,0.0,0.0,0.0,0.0,0.0,0.0,0.0,0.0,0.0,0.0,0.4599,0.4876,0.0,0.4501,0.4423,0.419,0.3899,0.3821,0.3841,0.3899,0.0,0.3802,0.3821,0.0,0.0,0.0,0.0,0.0,0.0,0.0,0.0,0.0,0.0,0.0,0.0,0.2181,0.2016,0.1828,0.0,0.0,0.0,0.0,0.0,0.0,0.0,0.0,0.0,0.0,0.0,0.0,0.0,0.0,0.0,0.0,0.0,0.1391,0.1391,0.1391,0.1391,0.1391,0.1391,0.1391,0.1391,-0.0425,-0.1409,-0.1409,-0.3334,-0.43,-0.43,-0.43,-0.4308,-0.4328,-0.4397,-0.4512,-0.4628,-0.4694,-0.4746,-0.4809,-0.4809,-0.4769,-0.4716,-0.4783,-0.4767,-0.4593,-0.3582,-0.3879,-0.4659,0.0,0.0,0.0,0.0,0.0,0.0,0.0,0.0,0.0,0.0,0.0,0.0,0.0,0.0,0.0,0.0,0.0,0.0,0.0,0.0,0.5448,0.5448,0.5548,0.56,0.56,0.56,0.56,0.0,0.0,0.0,0.0,0.0,0.0,0.0,0.0,0.0,0.0,0.0,0.4287,0.4114,0.4311,0.0,0.4073,0.3841,0.3626,0.3432,0.3215,0.3157,0.3176,0.3393,0.3313,0.0,0.0,0.3159,0.2845,0.0,0.2806,0.2491,0.0,0.0,0.0,0.2491,0.0,0.0,0.0,0.1964,0.1808,0.1513,0.0,0.0,0.0,0.0,0.0,0.0,0.0,0.0,0.0,0.0,0.0,0.0,0.0,0.0,0.0,0.0,0.1391,0.1391,0.1391,0.1391,0.1391,0.1391,0.1391,0.1391,-0.0425,-0.1409,-0.1409,-0.3334,-0.43,-0.43,-0.43,-0.43,-0.4302,-0.4371,-0.4462,-0.4601,-0.4669,-0.4732,-0.4809,-0.4809,-0.4734,-0.4653,-0.4759,-0.4759,-0.4645,-0.4178,-0.4331,-0.4734,0.5379,0.0,0.0,0.0,0.0,0.0,0.0,0.0,0.0,0.0,0.0,0.0,0.0,0.0,0.0,0.0,0.0,0.0,0.0,0.0,0.0,0.5447,0.5605,0.5674,0.5674,0.5674,0.5674,0.0,0.0,0.0,0.0,0.0,0.0,0.0,0.0,0.0,0.0,0.0,0.0,0.3667,0.0,0.3587,0.3628,0.3239,0.3043,0.2943,0.2609,0.2491,0.255,0.2884,0.0,0.255,0.2884,0.2767,0.0,0.0,0.0,0.0,0.0,0.0,0.0,0.0,0.0,0.2413,0.0,0.0,0.0,0.1434,0.0,0.0,0.0,0.0,0.0,0.0,0.0,0.0,0.0,0.0,0.0,0.0,0.0,0.0,0.0,0.0,0.1406,0.139,0.1391,0.1391,0.1391,0.1391,0.1391,0.1391,-0.0425,-0.1409,-0.1409,-0.3334,-0.43,-0.43,-0.43,-0.43,-0.4302,-0.4352,-0.4436,-0.4574,-0.4643,-0.473,-0.4787,-0.4803,-0.473,-0.4611,-0.4722,-0.4732,-0.4694,-0.4755,-0.4795,-0.4809,0.5329,0.5395,0.0,0.0,0.0,0.0,0.0,0.0,0.0,0.0,0.0,0.0,0.0,0.0,0.0,0.0,0.0,0.0,0.5207,0.0,0.0,0.5228,0.5261,0.5261,0.5261,0.5261,0.5261,0.5261,0.0,0.0,0.0,0.0,0.0,0.0,0.473,0.0,0.0,0.0,0.3217,0.0,0.2785,0.2863,0.0,0.3121,0.2884,0.257,0.2511,0.2491,0.2511,0.0,0.2531,0.2511,0.0,0.2531,0.2511,0.0,0.0,0.0,0.0,0.0,0.0,0.0,0.2491,0.0,0.0,0.0,0.1828,0.1611,0.0,0.0,0.0,0.0,0.0,0.0,0.0,0.0,0.0,0.0,0.0,0.0,0.0,0.0,0.0,0.0,0.0,0.141,0.1391,0.1391,0.1391,0.1391,0.1391,0.1391,-0.0425,-0.1409,-0.1409,-0.3334,-0.43,-0.43,-0.43,-0.43,-0.43,-0.431,-0.434,-0.4434,-0.4549,-0.4638,-0.4704,-0.4779,-0.473,-0.4607,-0.4683,-0.4667,-0.4621,-0.4689,-0.4746,-0.4809,0.5346,0.5363,0.0,0.0,0.0,0.0,0.0,0.0,0.0,0.0,0.0,0.0,0.0,0.0,0.0,0.0,0.0,0.4744,0.0,0.0,0.0,0.0,0.5369,0.0,0.5428,0.5428,0.5428,0.5428,0.5369,0.0,0.0,0.0,0.0,0.0,0.4521,0.0,0.3626,0.0,0.2963,0.0,0.0,0.0,0.0,0.2707,0.2648,0.249,0.2373,0.2333,0.2333,0.0,0.2333,0.0,0.0,0.0,0.0,0.0,0.0,0.0,0.0,0.0,0.0,0.0,0.0,0.0,0.0,0.0,0.1982,0.0,0.0,0.0,0.0,0.0,0.0,0.0,0.0,0.0,0.0,0.0,0.0,0.0,0.0,0.0,0.0,0.0,0.0,0.0,0.0,0.1394,0.1389,0.1391,0.1391,0.1391,0.0112,-0.0851,-0.1387,-0.2798,-0.3762,-0.43,-0.43,-0.43,-0.43,-0.43,-0.4326,-0.4417,-0.4532,-0.4648,-0.4714,-0.4775,-0.473,-0.4601,-0.4638,-0.463,-0.4607,-0.4675,-0.4738,-0.4809,0.5299,0.0,0.0,0.0,0.0,0.0,0.0,0.0,0.0,0.0,0.0,0.0,0.5057,0.4841,0.0,0.0,0.4307,0.4229,0.0,0.0,0.4582,0.0,0.0,0.0,0.0,0.0,0.5443,0.5443,0.0,0.0,0.0,0.0,0.0,0.0,0.0,0.3684,0.3082,0.0,0.0,0.2392,0.2198,0.2119,0.2139,0.2276,0.2335,0.2315,0.2178,0.2119,0.2119,0.2119,0.2119,0.0,0.1945,0.0,0.0,0.0,0.0,0.0,0.2412,0.0,0.0,0.0,0.0,0.0,0.0,0.0,0.0,0.0,0.0,0.0,0.0,0.0,0.0,0.0,0.0,0.0,0.0,0.0,0.0,0.0,0.0,0.0,0.0,0.0,0.0,0.0,0.1386,0.0,0.14,0.1408,0.1391,0.1391,0.0493,-0.0448,-0.1387,-0.2396,-0.3382,-0.43,-0.43,-0.43,-0.43,-0.43,-0.4336,-0.4381,-0.4546,-0.4634,-0.4679,-0.4839,-0.4781,-0.4597,-0.469,-0.4651,-0.4547,-0.4636,-0.4726,-0.4779,0.5144,0.5365,0.0,0.0,0.0,0.0,0.0,0.0,0.0,0.0,0.0,0.0,0.0,0.0,0.0,0.0,0.0,0.3821,0.3821,0.0,0.3841,0.0,0.0,0.4443,0.0,0.0,0.0,0.5018,0.0,0.0,0.0,0.0,0.0,0.0,0.0,0.3121,0.3062,0.247,0.2216,0.2196,0.1983,0.1907,0.1907,0.0,0.1926,0.1926,0.1907,0.0,0.0,0.1907,0.1907,0.0,0.0,0.0,0.0,0.0,0.0,0.0,0.0,0.0,0.0,0.2451,0.0,0.0,0.0,0.0,0.2196,0.0,0.0,0.0,0.0,0.0,0.0,0.0,0.0,0.0,0.0,0.0,0.0,0.0,0.0,0.0,0.0,0.0,0.0,0.0,0.1353,0.0,0.1391,0.1397,0.1391,0.1391,0.0493,-0.0448,-0.1387,-0.2396,-0.3382,-0.43,-0.43,-0.43,-0.43,-0.43,-0.4302,-0.4314,-0.4517,-0.4599,-0.4637,-0.5039,-0.4953,-0.4619,-0.4877,-0.4748,-0.4428,-0.4566,-0.4634,-0.47,0.0,0.0,0.0,0.0,0.0,0.0,0.0,0.5247,0.0,0.0,0.0,0.0,0.0,0.4075,0.388,0.0,0.0,0.3335,0.3335,0.3335,0.0,0.0,0.0,0.3997,0.0,0.0,0.0,0.0,0.0,0.0,0.0,0.0,0.0,0.0,0.0,0.2649,0.0,0.0,0.0,0.0,0.0,0.1627,0.1509,0.0,0.0,0.1892,0.1799,0.1767,0.0,0.1767,0.1767,0.1747,0.1564,0.1689,0.1869,0.175,0.1791,0.0,0.0,0.0,0.1885,0.2216,0.0,0.0,0.0,0.0,0.0,0.0,0.0,0.0,0.0,0.0,0.0,0.0,0.0,0.0,0.0,0.0,0.0,0.0,0.0,0.0,0.0,0.0,0.0,0.1295,0.1326,0.1349,0.0,0.1399,0.1105,0.0493,0.0157,-0.0762,-0.2373,-0.2732,-0.3382,-0.43,-0.43,-0.43,-0.43,-0.43,-0.43,-0.431,-0.4515,-0.4597,-0.4605,-0.4799,-0.4754,-0.4591,-0.4597,-0.4493,-0.4385,-0.4725,-0.4914,-0.4963,0.4998,0.0,0.0,0.0,0.0,0.0,0.0,0.0,0.0,0.0,0.3521,0.0,0.3152,0.0,0.2722,0.0,0.2431,0.2491,0.2333,0.247,0.0,0.2997,0.2958,0.0,0.0,0.0,0.0,0.0,0.0,0.3116,0.0,0.0,0.0,0.0,0.0,0.2297,0.1335,0.0,0.1983,0.0,0.0,0.1413,0.0,0.0,0.1596,0.0,0.0,0.1556,0.1556,0.1556,0.1556,0.1535,0.1348,0.1479,0.1667,0.1524,0.1582,0.1712,0.1771,0.1702,0.0,0.0,0.2003,0.0,0.2315,0.0,0.0,0.0,0.0,0.0,0.0,0.0,0.0,0.0,0.0,0.0,0.0,0.1591,0.0,0.0,0.0,0.0,0.0,0.0,0.1305,0.1305,0.1296,0.1319,0.0,0.0,0.1115,0.051,0.0179,-0.0762,-0.2351,-0.2732,-0.3382,-0.43,-0.43,-0.43,-0.43,-0.43,-0.43,-0.4308,-0.4459,-0.4566,-0.4601,-0.4755,-0.472,-0.4587,-0.4566,-0.4449,-0.4338,-0.4673,-0.4931,-0.5107,0.0,0.0,0.0,0.0,0.3287,0.0,0.0,0.0,0.2112,0.0,0.1841,0.1821,0.1804,0.1434,0.1021,0.0567,0.1117,0.0,0.0862,0.1234,0.0,0.0,0.1312,0.1214,0.1214,0.0,0.0,0.0,0.0,0.0,0.0,0.0,0.0,0.0,0.1844,0.0,0.1296,0.167,0.173,0.1558,0.1373,0.1302,0.1311,0.138,0.0,0.1289,0.131,0.131,0.131,0.131,0.131,0.131,0.131,0.1309,0.1308,0.1308,0.1308,0.1345,0.1529,0.1583,0.1633,0.1831,0.0,0.0,0.0,0.0,0.2176,0.0,0.0,0.0,0.0,0.0,0.0,0.0,0.0,0.0,0.0,0.0,0.0,0.0,0.0,0.0,0.0,0.1296,0.1296,0.1296,0.1304,0.1301,0.0,0.0,0.0,0.1325,0.0421,-0.0515,-0.1454,-0.2463,-0.3425,-0.43,-0.43,-0.43,-0.43,-0.43,-0.43,-0.4304,-0.4373,-0.4462,-0.4612,-0.4868,-0.4823,-0.4604,-0.4722,-0.4581,-0.4332,-0.4406,-0.4718,-0.5132,0.2776,0.2013,0.1487,0.0,0.2073,0.2327,0.0,0.0,0.0,0.0,0.1084,0.0727,0.037,-0.0062,-0.0368,-0.0442,-0.0281,0.0,0.0,0.0,0.0,-0.0039,-0.0078,-0.0117,-0.0117,0.0431,0.0,0.0489,0.0,0.0,0.0785,0.0,0.0,0.0,0.0,0.0,0.0786,0.0726,0.0971,0.1375,0.1324,0.1333,0.0,0.0,0.129,0.117,0.1325,0.1369,0.1369,0.1369,0.1369,0.1369,0.1369,0.1376,0.1379,0.1379,0.1337,0.1316,0.1358,0.1376,0.1432,0.1635,0.1673,0.1729,0.0,0.0,0.0,0.0,0.0,0.0,0.0,0.0,0.0,0.0,0.0,0.0,0.0,0.0,0.0,0.1907,0.0,0.0,0.1533,0.1395,0.1296,0.1296,0.1304,0.0,0.0,0.0,0.0,0.0391,-0.0554,-0.1522,-0.2508,-0.347,-0.4052,-0.43,-0.43,-0.43,-0.43,-0.43,-0.43,-0.4304,-0.4373,-0.4425,-0.4446,-0.4515,-0.4515,-0.4461,-0.4437,-0.4501,-0.4613,-0.4777,-0.5084,-0.5403,0.1974,0.0,0.0,0.0242,0.0,0.0,0.0777,0.0,0.0,0.0144,-0.0329,0.0,-0.1007,-0.1448,-0.1795,-0.1935,-0.15,0.0,-0.1414,0.0,0.0,-0.1075,-0.1334,-0.1466,-0.143,-0.096,0.0,-0.1097,0.0,0.0,-0.0746,0.0,0.0,0.0,0.0,-0.0353,0.0,-0.002,0.0606,0.1304,0.1333,0.0,0.0,0.13,0.1198,0.1099,0.1099,0.1166,0.1278,0.1368,0.1391,0.1391,0.1391,0.1401,0.141,0.141,0.1367,0.1345,0.1345,0.1324,0.132,0.1449,0.1471,0.1513,0.1714,0.1768,0.1768,0.0,0.0,0.0,0.0,0.0,0.0,0.0,0.0,0.0,0.0,0.0,0.0,0.0,0.1983,0.0,0.1865,0.1512,0.1296,0.1296,0.0,0.0,0.0,0.0,0.0,0.0,-0.0742,-0.1706,-0.2238,-0.3604,-0.43,-0.43,-0.43,-0.43,-0.43,-0.43,-0.43,-0.4302,-0.433,-0.4375,-0.4409,-0.4369,-0.4377,-0.4403,-0.4334,-0.4389,-0.4564,-0.4806,-0.5114,-0.5434,0.0,0.0,0.0,0.0,0.0,0.0,0.0,-0.1229,0.0,-0.1479,0.0,-0.2282,-0.2289,-0.2714,-0.3134,-0.3481,0.0,-0.2272,-0.2664,-0.2307,-0.2059,-0.2,-0.2502,-0.2737,-0.2681,-0.2101,0.0,0.0,0.0,-0.198,-0.249,0.0,0.0,0.0,0.0,0.0,0.0,-0.0686,0.0248,0.0,0.0973,0.1058,0.1143,0.0941,0.0919,0.0987,0.0785,0.0874,0.1121,0.13,0.1368,0.1391,0.1391,0.1391,0.1391,0.1391,0.1394,0.1396,0.1396,0.1353,0.1305,0.1321,0.1311,0.1341,0.1528,0.156,0.1558,0.1553,0.1709,0.0,0.0,0.0,0.0,0.0,0.0,0.0,0.0,0.0,0.0,0.0,0.0,0.0,0.0,0.1668,0.1335,0.0,0.0,0.0,0.0,0.0,0.0,0.0,-0.0385,0.0,-0.1403,0.0,-0.4186,-0.43,-0.43,-0.43,-0.43,-0.43,-0.43,-0.43,-0.43,-0.4344,-0.4389,-0.4332,-0.4324,-0.4387,-0.433,-0.4322,-0.4377,-0.4642,-0.4972,-0.532,0.0,0.0,0.0,0.0,0.0,-0.2585,-0.249,-0.2482,-0.2498,-0.254,-0.2957,-0.3283,-0.3342,-0.3767,-0.4049,-0.4068,-0.3888,0.0,0.0,0.0,0.0,-0.3593,-0.3652,-0.3669,-0.3654,-0.311,-0.2884,0.0,-0.255,-0.2392,-0.2491,-0.2392,-0.2216,0.0,0.0,0.0,-0.2422,-0.1468,0.0,-0.1015,-0.1169,-0.0781,-0.0112,-0.0313,0.0,0.0538,0.065,0.0874,0.1099,0.1143,0.1256,0.1391,0.1391,0.1391,0.1391,0.1391,0.1409,0.1405,0.1405,0.1384,0.1381,0.1376,0.1336,0.1311,0.1342,0.1355,0.1348,0.1361,0.1375,0.1375,0.1316,0.0,0.0,0.0,0.0,0.0,0.0,0.0,0.0,0.0,0.0,0.0,0.0,0.0,0.0,0.0,0.0,0.0,0.0,0.0,0.0,0.0,0.0,0.0,0.0,0.0,0.0,-0.43,-0.43,-0.43,-0.43,-0.43,-0.43,-0.43,-0.43,-0.4308,-0.4322,-0.4306,-0.4308,-0.432,-0.4306,-0.4433,-0.4616,-0.4452,-0.4773,-0.5344,0.0,0.0,0.0,0.0,0.0,0.0,0.0,-0.3609,0.0,-0.293,-0.3353,-0.3719,-0.3758,-0.4297,-0.4659,-0.4614,-0.461,-0.459,-0.4519,-0.4411,-0.4325,-0.4255,-0.4126,0.0,-0.3901,-0.3656,-0.3495,-0.3471,-0.3274,-0.3176,-0.3176,-0.3176,-0.3077,-0.2902,0.0,-0.3174,0.0,0.0,0.0,-0.1519,-0.1708,-0.1231,-0.0448,-0.0783,-0.0358,0.0403,0.0359,0.0516,0.0762,0.0852,0.1054,0.1233,0.1233,0.1323,0.1391,0.1391,0.1391,0.1391,0.1391,0.1402,0.141,0.1394,0.138,0.1341,0.1312,0.1305,0.1297,0.1307,0.1301,0.1336,0.1437,0.1611,0.0,0.0,0.0,0.0,0.0,0.0,0.0,0.0,0.0,0.0,0.0,0.0,0.0,0.0,0.0,0.0,0.0,0.0,0.0,0.0,0.0,0.0,0.0,0.0,0.0,-0.43,-0.43,-0.43,-0.43,-0.43,-0.43,-0.43,-0.43,-0.4389,-0.4502,-0.4502,-0.4433,-0.43,-0.43,-0.4389,-0.4502,-0.4502,-0.4817,-0.526,0.0,-0.3211,0.0,0.0,-0.365,0.0,-0.4117,-0.45,-0.4433,-0.347,-0.3805,-0.4139,-0.4139,-0.4652,-0.501,-0.501,-0.501,-0.501,-0.501,-0.4857,-0.4712,-0.4609,-0.4439,-0.4276,-0.4125,-0.4019,-0.3963,0.0,-0.3832,-0.3802,-0.3802,-0.3802,-0.3812,0.0,0.0,0.0,0.0,0.0,-0.276,-0.2271,-0.2488,-0.188,-0.0896,-0.132,-0.0739,0.0292,0.0067,0.0135,0.0336,0.0493,0.0785,0.1099,0.1099,0.1233,0.1391,0.1391,0.1391,0.1391,0.1391,0.1391,0.1407,0.1406,0.1399,0.1392,0.1342,0.1315,0.1327,0.1298,0.1307,0.1354,0.15,0.167,0.0,0.0,0.0,0.0,0.0,0.0,0.0,0.0,0.0,0.0,0.0,0.0,0.0,0.0,0.0,0.0,0.0,0.0,0.0,0.0,0.0,0.0,-0.2713,0.0,-0.3894,0.0,-0.43,-0.43,-0.43,-0.43,-0.43,-0.43,-0.4366,-0.4502,-0.4705,-0.4638,-0.4502,-0.43,-0.43,-0.43,-0.4322,-0.4547,-0.4856,-0.5161,0.0,0.0,0.0,0.0,0.0,0.0,0.0,-0.4944,-0.4921,-0.4808,-0.4852,-0.4897,-0.4897,-0.4964,-0.501,-0.501,-0.501,-0.501,-0.501,-0.4988,-0.4961,-0.4952,-0.4867,-0.4832,-0.4813,-0.4456,-0.4252,0.0,0.0,-0.3802,-0.3802,-0.3802,-0.3827,0.0,0.0,0.0,0.0,-0.4331,-0.4472,-0.4705,-0.4964,-0.3961,-0.2329,-0.2619,-0.1569,0.0045,0.0,0.0022,0.0045,0.0067,0.0516,0.1099,0.1099,0.1233,0.1391,0.1391,0.1391,0.1391,0.1391,0.1391,0.139,0.1409,0.1408,0.1401,0.1393,0.1386,0.1378,0.1307,0.1301,0.1313,0.1322,0.1335,0.1415,0.0,0.0,0.0,0.0,0.0,0.0,0.0,0.0,0.0,0.0,0.2238,0.0,0.0,0.0,0.0,0.0,0.0,0.0,0.0,0.0,-0.0924,-0.2778,-0.2039,0.0,-0.43,-0.43,-0.43,-0.43,-0.43,-0.43,-0.4322,-0.4547,-0.4683,-0.4683,-0.4433,-0.4322,-0.43,-0.43,-0.43,-0.43,-0.4322,-0.4696,-0.5138,0.0,0.0,0.0,0.0,0.0,0.0,0.0,-0.5235,-0.528,-0.5394,-0.5327,-0.5235,-0.5235,-0.5349,-0.5416,-0.5416,-0.5416,-0.5416,-0.5416,-0.5305,-0.5235,-0.5235,-0.5061,-0.4944,-0.4906,-0.4673,-0.4524,0.0,0.0,0.0,0.0,-0.4151,0.0,0.0,0.0,-0.4657,-0.4736,-0.4793,-0.4884,-0.5033,-0.528,-0.4565,-0.3312,-0.3023,-0.204,-0.0763,-0.0202,0.0,0.0,0.0,0.0292,0.0673,0.0673,0.0919,0.1211,0.1211,0.13,0.1391,0.1391,0.1391,0.1391,0.1391,0.1391,0.141,0.1398,0.1395,0.1387,0.1357,0.1335,0.1299,0.1306,0.1408,0.1474,0.0,0.0,0.0,0.0,0.0,0.0,0.0,0.0,0.0,0.0,0.0,0.2082,0.0,0.0,0.0,0.0,0.0,0.0,-0.0744,0.0,-0.1677,-0.3507,-0.3226,-0.3495,-0.43,-0.43,-0.43,-0.43,-0.43,-0.43,-0.4322,-0.4592,-0.4614,-0.4458,-0.4525,-0.4433,-0.43,-0.43,-0.43,-0.43,-0.43,-0.4546,-0.4899,-0.5099,0.0,-0.5144,0.0,-0.5213,-0.528,-0.5463,-0.5485,-0.553,-0.5688,-0.5574,-0.5485,-0.5485,-0.5621,-0.5688,-0.5688,-0.5688,-0.5688,-0.5688,-0.5574,-0.5485,-0.5485,-0.5305,0.0,-0.5129,-0.4953,-0.4815,-0.4781,-0.459,0.0,0.0,0.0,0.0,0.0,-0.49,-0.5007,-0.5044,-0.5093,-0.5146,-0.5213,-0.5416,-0.4901,-0.3939,-0.3179,-0.2285,-0.1279,-0.0337,0.0,0.0,0.0,0.0135,0.0292,0.0381,0.0718,0.1099,0.1099,0.1233,0.1391,0.1391,0.1391,0.1391,0.1391,0.1391,0.1391,0.1391,0.1391,0.1404,0.1396,0.1357,0.1323,0.1306,0.1426,0.1486,0.0,0.0,0.0,0.0,0.0,0.0,0.0,0.1395,0.1493,0.1513,0.0,0.0,0.0,0.0,0.0,0.0,0.0,0.0,0.0,0.0,0.0,0.0,0.0,-0.3949,-0.43,-0.43,-0.43,-0.43,-0.43,-0.4344,-0.4433,-0.4525,-0.4525,-0.4433,-0.4547,-0.448,-0.43,-0.43,-0.43,-0.43,-0.43,-0.448,-0.471,-0.5349,-0.5394,-0.5463,-0.5666,-0.5688,-0.5688,-0.5688,-0.5688,-0.5688,-0.5688,-0.5688,-0.5688,-0.5688,-0.5688,-0.5688,-0.5688,-0.5688,-0.5688,-0.5688,-0.5688,-0.5688,0.0,0.0,-0.5688,-0.5688,-0.5368,-0.5198,-0.5196,0.0,0.0,-0.4699,0.0,0.0,-0.4901,-0.5114,-0.5264,-0.5394,-0.5394,-0.5508,-0.5688,-0.5688,-0.5127,-0.4188,-0.3247,-0.2285,-0.1279,-0.0337,0.0,0.0,0.0,0.0,0.0045,0.0314,0.0718,0.1099,0.1099,0.1233,0.1391,0.1391,0.1391,0.1391,0.1391,0.1391,0.1391,0.1391,0.1391,0.1404,0.1396,0.1389,0.1371,0.1313,0.1302,0.1373,0.1558,0.0,0.0,0.0,0.0,0.0,0.0,0.165,0.1729,0.1335,0.0,0.0,0.0,0.0,0.0,0.0,0.0,0.0,-0.2451,-0.2484,0.0,-0.3992,-0.3155,-0.3244,-0.43,-0.43,-0.43,-0.43,-0.43,-0.4433,-0.4683,-0.4411,-0.4456,-0.4683,-0.4411,-0.43,-0.43,-0.43,-0.43,-0.43,-0.43,-0.448,-0.469,-0.5816,-0.573,-0.5621,-0.5688,-0.5688,-0.5688,-0.5688,-0.5688,-0.5688,-0.5688,-0.5688,-0.5688,-0.5688,-0.5688,-0.5688,0.0,-0.5688,-0.5688,0.0,-0.5688,-0.5688,-0.5688,-0.5688,-0.5688,-0.5688,-0.5504,-0.5397,-0.5397,0.0,0.0,0.0,-0.5305,-0.5341,-0.5319,-0.5463,-0.5562,-0.5599,-0.5599,-0.5644,-0.5688,-0.5688,-0.5532,-0.5082,-0.3494,-0.271,-0.2219,-0.0584,0.0,0.0,0.0,0.0,0.0022,0.009,0.0449,0.083,0.083,0.1099,0.1391,0.1391,0.1391,0.1391,0.1391,0.1391,0.1391,0.1391,0.1391,0.141,0.14,0.1404,0.1384,0.1365,0.1329,0.1319,0.139,0.0,0.0,0.0,0.0,0.0,0.0,0.0,0.1434,0.0,0.1533,0.0,0.0,0.0,0.0,0.0,0.0,0.0,0.0,-0.2508,0.0,-0.3992,-0.3725,-0.3827,-0.43,-0.43,-0.43,-0.43,-0.43,-0.4344,-0.4433,-0.4344,-0.4344,-0.4411,-0.4344,-0.43,-0.43,-0.43,-0.43,-0.43,-0.43,-0.4344,-0.4438,-0.6298,-0.6113,-0.5941,-0.5961,-0.5908,-0.5841,-0.5841,-0.5908,-0.5908,-0.5733,-0.5799,-0.5822,-0.571,-0.5688,0.0,-0.5688,-0.5688,0.0,-0.5688,-0.5688,-0.5688,-0.5688,-0.5688,-0.5688,-0.5688,0.0,0.0,-0.5575,-0.5542,-0.5507,-0.5507,-0.5562,-0.5575,-0.5578,-0.5656,-0.5688,-0.5688,-0.5688,-0.5688,-0.5688,-0.5688,-0.5688,-0.5485,-0.3606,-0.2903,-0.2648,-0.0698,0.0,0.0,0.0,0.0,0.0,0.0,0.0314,0.0695,0.0695,0.1031,0.1391,0.1391,0.1391,0.1391,0.1391,0.1391,0.1391,0.1391,0.1391,0.1391,0.1391,0.1398,0.1403,0.1392,0.136,0.1328,0.1306,0.0,0.0,0.0,0.0,0.0,0.0,0.0,0.0,0.0,0.1415,0.0,0.0,0.0,0.0,0.0,0.0,0.0,-0.294,-0.3007,0.0,-0.3992,-0.4048,-0.4159,-0.43,-0.43,-0.43,-0.43,-0.43,-0.43,-0.43,-0.43,-0.43,-0.43,-0.43,-0.43,-0.43,-0.43,-0.43,-0.43,-0.43,-0.43,-0.4326,-0.6745,-0.6517,0.0,0.0,-0.6269,0.0,-0.6127,-0.6276,-0.6232,-0.5797,-0.5975,-0.6019,-0.5755,-0.5733,-0.571,-0.571,0.0,0.0,0.0,-0.5688,-0.5688,-0.5688,-0.5688,0.0,-0.5688,-0.5688,-0.5688,-0.5688,-0.5688,-0.5688,-0.5688,-0.5688,-0.5688,-0.5688,-0.5688,-0.5688,-0.5688,-0.5688,-0.5688,-0.5688,-0.5688,-0.5688,-0.5485,-0.3606,-0.2899,-0.2641,-0.0701,0.0,0.0,0.0,0.0023,0.0023,0.0023,0.036,0.0719,0.0695,0.1031,0.1391,0.1391,0.1391,0.1391,0.1391,0.1391,0.1391,0.1391,0.1391,0.1391,0.1391,0.1391,0.1404,0.1398,0.1391,0.1371,0.1315,0.1304,0.1292,0.1301,0.0,0.0,0.0,0.0,0.0,0.0,0.1296,0.1296,0.0,0.0,0.0,0.0,0.0,0.0,-0.3753,-0.3874,-0.3946,-0.4023,-0.413,-0.4238,-0.43,-0.4306,-0.4306,-0.43,-0.4306,-0.4306,-0.43,-0.43,-0.43,-0.43,-0.43,-0.43,-0.43,-0.43,-0.43,-0.43,-0.43,-0.4304,-0.4334,0.0,0.0,-0.6729,-0.6635,-0.659,-0.6509,-0.6361,-0.6365,-0.6365,-0.6254,-0.6299,-0.6257,-0.6041,-0.5994,-0.593,-0.571,-0.5688,-0.5688,-0.5688,-0.5688,-0.5688,-0.5688,-0.5688,-0.5688,-0.5688,-0.5688,-0.5688,-0.5688,-0.5688,-0.5688,-0.5688,-0.5688,-0.5688,-0.5688,-0.5688,-0.5688,-0.5688,-0.5688,-0.5688,-0.5688,-0.5688,-0.5688,-0.5485,-0.3606,-0.2899,-0.2643,-0.0709,0.0,0.0,0.0,0.0141,0.0306,0.0306,0.0628,0.0961,0.0766,0.1031,0.1391,0.1391,0.1391,0.1391,0.1391,0.1391,0.1391,0.1391,0.1391,0.1391,0.1391,0.1391,0.141,0.1404,0.1406,0.1378,0.1301,0.1297,0.1292,0.1301,0.0,0.0,0.0,0.1296,0.1296,0.1296,0.1296,0.1296,0.0,0.0,0.0,0.0,0.0,-0.2153,-0.3827,-0.3887,-0.3977,-0.416,-0.4184,-0.4238,-0.43,-0.4346,-0.4342,-0.4302,-0.4348,-0.4342,-0.43,-0.43,-0.43,-0.43,-0.43,-0.43,-0.43,-0.43,-0.43,-0.43,-0.43,-0.4342,-0.4397,-0.7464,-0.7314,-0.7154,-0.7127,-0.7009,-0.6888,-0.6787,-0.6811,-0.6728,-0.6391,-0.6382,-0.6276,-0.5952,-0.5908,-0.5863,-0.571,-0.5688,-0.5688,-0.5688,-0.5688,-0.5688,-0.5688,-0.5688,-0.5688,-0.5688,-0.5688,-0.5688,-0.5688,-0.5688,-0.5688,-0.5688,-0.5688,-0.5688,-0.5688,-0.5688,-0.5688,-0.5688,-0.5688,-0.5688,-0.5688,-0.5688,-0.5688,-0.5485,-0.3606,-0.2905,-0.2634,-0.0706,0.0,0.0,0.0,0.0189,0.0405,0.0405,0.0733,0.1123,0.0972,0.1161,0.1391,0.1391,0.1391,0.1391,0.1391,0.1391,0.1391,0.1391,0.1391,0.1391,0.1391,0.1391,0.1391,0.1391,0.14,0.1379,0.135,0.1321,0.1292,0.1302,0.1305,0.0,0.1296,0.1296,0.1296,0.1296,0.1296,0.1296,0.1296,0.0,0.0,-0.1254,-0.1371,-0.2171,-0.3839,-0.3981,-0.4094,-0.4193,-0.4232,-0.4275,-0.4338,-0.4389,-0.4387,-0.434,-0.4389,-0.4363,-0.43,-0.43,-0.43,-0.43,-0.43,-0.43,-0.43,-0.43,-0.43,-0.43,-0.43,-0.4334,-0.4425,-0.7906,-0.7739,-0.7616,-0.7638,-0.7435,-0.7284,-0.7265,-0.7346,-0.7201,-0.6535,-0.646,-0.6309,-0.5849,-0.5766,-0.5733,-0.571,-0.5688,-0.5688,-0.5688,-0.5688,-0.5688,-0.5688,-0.5688,-0.5688,-0.5688,-0.5688,-0.5688,-0.5688,-0.5688,-0.5688,-0.5688,-0.5688,-0.5688,-0.5688,-0.5688,-0.5688,-0.5688,-0.5688,-0.5688,-0.5688,-0.5555,-0.5488,-0.5285,-0.3381,-0.2671,-0.243,-0.0634,0.0,0.0,0.0,0.0212,0.0455,0.0455,0.0838,0.127,0.127,0.133,0.1425,0.142,0.1416,0.1391,0.1391,0.1391,0.1391,0.1391,0.1391,0.1391,0.1391,0.1391,0.1391,0.1391,0.1391,0.1403,0.1395,0.1349,0.1321,0.1307,0.0,0.1302,0.1297,0.1296,0.1296,0.1296,0.1296,0.1298,0.1303,0.1304,0.0,0.0,-0.1412,-0.2194,-0.3899,-0.4113,-0.4201,-0.4213,-0.4277,-0.4336,-0.4388,-0.444,-0.4438,-0.4411,-0.4428,-0.4375,-0.43,-0.43,-0.43,-0.43,-0.43,-0.43,-0.43,-0.43,-0.43,-0.43,-0.43,-0.4365,-0.4444,-0.823,-0.8201,-0.8084,-0.7828,-0.7729,-0.7664,-0.7543,-0.7557,-0.7446,-0.7112,-0.6968,-0.6726,-0.625,-0.6104,-0.5952,-0.571,-0.5688,-0.5688,-0.5688,-0.5688,-0.5688,-0.5688,-0.5688,-0.5688,-0.5688,-0.5688,-0.5688,-0.5688,-0.5688,-0.5688,-0.5688,-0.5688,-0.5688,-0.5688,-0.5688,-0.5688,-0.5688,-0.5688,-0.5688,-0.5621,-0.4837,-0.4523,-0.43,-0.2374,-0.164,-0.1489,-0.0389,0.0,0.0,0.0,0.0337,0.0733,0.0733,0.11,0.154,0.154,0.1516,0.1483,0.148,0.1432,0.1391,0.1391,0.1391,0.1391,0.1391,0.1391,0.1391,0.1391,0.1391,0.1391,0.1391,0.1391,0.1403,0.1395,0.1386,0.1365,0.0,0.0,0.1306,0.13,0.1296,0.1296,0.1296,0.1296,0.1307,0.1294,0.1296,0.0531,-0.1232,-0.1424,-0.2297,-0.4087,-0.418,-0.423,-0.4279,-0.4346,-0.4399,-0.439,-0.4568,-0.4562,-0.4413,-0.4516,-0.4482,-0.43,-0.43,-0.43,-0.43,-0.43,-0.43,-0.43,-0.43,-0.43,-0.43,-0.43,-0.4406,-0.4576,-0.8311,-0.8298,-0.8226,-0.7949,-0.7908,-0.7888,-0.782,-0.7622,-0.7402,-0.7181,-0.6876,-0.656,-0.6237,-0.6138,-0.6058,-0.5923,-0.5923,-0.5923,-0.5923,-0.5781,-0.5688,-0.5688,-0.5688,-0.5688,-0.5688,-0.5688,-0.5688,-0.5688,-0.5688,-0.5688,-0.5688,-0.5688,-0.5688,-0.5688,-0.5688,-0.5688,-0.5688,-0.5688,-0.5396,-0.4904,-0.4478,-0.4007,-0.3381,-0.195,-0.1391,-0.128,-0.034,0.0092,0.0208,0.021,0.0547,0.0968,0.1003,0.1277,0.1599,0.1591,0.1563,0.1499,0.1509,0.1471,0.1461,0.1461,0.1449,0.1459,0.1459,0.1424,0.1391,0.1391,0.1391,0.1391,0.1391,0.1391,0.1408,0.1394,0.1401,0.0,0.0,0.1316,0.1295,0.1305,0.1301,0.1301,0.1301,0.1301,0.1294,0.1304,0.1306,0.0502,-0.1302,-0.1466,-0.2353,-0.4194,-0.4262,-0.4259,-0.43,-0.4367,-0.4438,-0.4512,-0.4645,-0.4638,-0.451,-0.4576,-0.4496,-0.43,-0.43,-0.43,-0.43,-0.43,-0.43,-0.4253,-0.374,-0.3851,-0.4237,-0.3765,-0.4017,-0.4532,-0.8372,-0.8345,-0.8262,-0.8047,-0.7988,-0.7988,-0.7988,-0.7746,-0.7427,-0.7155,-0.6795,-0.6454,-0.6174,-0.6126,-0.611,-0.611,-0.611,-0.611,-0.611,-0.5918,-0.5792,-0.5792,-0.5792,-0.5792,-0.5792,-0.5792,-0.5792,-0.5792,-0.5792,-0.5792,-0.5792,-0.5762,-0.5751,-0.5726,-0.5476,-0.5374,-0.5352,-0.5151,-0.4634,-0.3963,-0.3717,-0.3203,-0.2442,-0.1458,-0.1077,-0.0987,-0.0269,0.0136,0.0322,0.039,0.0675,0.1044,0.1157,0.1361,0.1592,0.1597,0.1553,0.1521,0.1514,0.1507,0.1502,0.1502,0.1508,0.1491,0.1491,0.145,0.1432,0.1424,0.1423,0.1421,0.1414,0.1391,0.1391,0.1391,0.0,0.0,0.0,0.135,0.1325,0.1296,0.1292,0.1292,0.1292,0.1292,0.1305,0.1313,0.1315,0.0599,-0.1069,-0.1354,-0.2358,-0.4261,-0.431,-0.431,-0.433,-0.4399,-0.4514,-0.463,-0.4675,-0.4661,-0.4595,-0.4574,-0.4453,-0.43,-0.4074,-0.3985,-0.3985,-0.3985,-0.3827,-0.3582,-0.309,-0.3202,-0.3545,-0.2865,-0.3158,-0.3771,-0.8522,-0.8492,-0.8377,-0.8064,-0.7988,-0.7988,-0.7988,-0.7982,-0.7773,-0.7248,-0.7104,-0.6852,-0.6352,-0.6178,-0.611,-0.611,-0.611,-0.611,-0.611,-0.6093,-0.6062,-0.6062,-0.6062,-0.6062,-0.6062,-0.6062,-0.6062,-0.6062,-0.6062,-0.6062,-0.6056,-0.5945,-0.589,-0.5839,-0.4853,-0.4411,-0.4344,-0.3472,-0.3069,-0.2913,-0.1995,-0.1569,-0.1413,-0.0472,-0.0112,-0.009,-0.0022,0.0022,0.0068,0.0315,0.0592,0.0858,0.1045,0.1295,0.1512,0.159,0.1592,0.1604,0.1601,0.1547,0.1502,0.1502,0.15,0.1499,0.1499,0.1497,0.1488,0.1483,0.15,0.1469,0.1418,0.1391,0.1391,0.1391,0.0,0.0,0.1394,0.1388,0.1376,0.1305,0.1302,0.1302,0.1302,0.1302,0.1335,0.1384,0.1386,0.0962,-0.0067,-0.0938,-0.232,-0.433,-0.4342,-0.434,-0.4401,-0.4516,-0.4632,-0.4698,-0.4706,-0.4661,-0.4593,-0.446,-0.4369,-0.4253,-0.3382,-0.3001,-0.3001,-0.3001,-0.2462,-0.17,-0.2552,-0.2373,-0.1615,-0.1535,-0.1613,-0.1718,-0.853,-0.8509,-0.8387,-0.8067,-0.7988,-0.7939,-0.7768,-0.7615,-0.7366,-0.6992,-0.6796,-0.6591,-0.6372,-0.6306,-0.6279,-0.6279,-0.6279,-0.6279,-0.6279,-0.6279,-0.6238,-0.6115,-0.611,-0.611,-0.611,-0.611,-0.611,-0.611,-0.611,-0.611,-0.6107,-0.6037,-0.5662,-0.5024,-0.4617,-0.406,-0.3398,-0.3055,-0.2537,-0.1928,-0.1547,-0.1054,-0.0494,-0.0135,0.0,0.0,0.0,0.0112,0.0292,0.0516,0.0766,0.1023,0.1267,0.1419,0.1504,0.1534,0.1527,0.1534,0.1547,0.1538,0.1557,0.1557,0.1568,0.1554,0.1554,0.154,0.1494,0.151,0.1504,0.1471,0.1418,0.1391,0.1391,0.1391,0.0,0.1408,0.1398,0.1396,0.1385,0.1356,0.1352,0.1352,0.1352,0.1352,0.1365,0.1394,0.1396,0.1,0.0045,-0.1478,-0.2962,-0.4363,-0.4379,-0.4403,-0.452,-0.4612,-0.4647,-0.4648,-0.4681,-0.463,-0.4462,-0.4428,-0.4044,-0.3403,-0.3047,-0.2552,-0.197,-0.197,-0.1745,-0.1387,-0.1187,-0.1219,-0.1326,-0.0794,-0.0977,-0.1409,-0.854,-0.8509,-0.8387,-0.8067,-0.7988,-0.7917,-0.7646,-0.7444,-0.7191,-0.6845,-0.6639,-0.6487,-0.6412,-0.6412,-0.6412,-0.6412,-0.6412,-0.6412,-0.6412,-0.6412,-0.6339,-0.6203,-0.6198,-0.6198,-0.6198,-0.6198,-0.6198,-0.6198,-0.6198,-0.6198,-0.6195,-0.6183,-0.578,-0.5036,-0.4336,-0.3631,-0.2887,-0.2259,-0.1595,-0.096,-0.0954,-0.0566,0.0,0.0,0.0,0.0,0.009,0.0247,0.0448,0.074,0.0942,0.1146,0.1391,0.1473,0.1508,0.1506,0.1495,0.1502,0.1502,0.1532,0.1563,0.1563,0.1573,0.1557,0.1557,0.1541,0.1494,0.151,0.1504,0.1471,0.1418,0.1391,0.1391,0.1391,0.1391,0.1391,0.1391,0.1391,0.1405,0.1407,0.1404,0.1404,0.1404,0.1404,0.1391,0.1389,0.1391,0.0987,0.0045,-0.1545,-0.2757,-0.3508,-0.3811,-0.4012,-0.414,-0.4488,-0.4634,-0.4597,-0.4606,-0.4533,-0.4388,-0.4084,-0.3565,-0.2867,-0.2262,-0.1589,-0.0962,-0.0962,-0.0783,-0.0492,-0.0134,-0.0204,-0.0417,0.0189,0.0,-0.0418,-0.854,-0.8505,-0.8387,-0.8067,-0.7988,-0.7917,-0.7646,-0.7596,-0.7394,-0.687,-0.6795,-0.6692,-0.6437,-0.6412,-0.6412,-0.6412,-0.6412,-0.6412,-0.6412,-0.6412,-0.6412,-0.6412,-0.6412,-0.6412,-0.6412,-0.6412,-0.6412,-0.6412,-0.6412,-0.6412,-0.6409,-0.6323,-0.6295,-0.619,-0.398,-0.2996,-0.2852,-0.0857,0.0,0.0,0.0,0.0,0.0,0.0,0.0,0.0045,0.0314,0.0404,0.0471,0.0942,0.1099,0.1143,0.1345,0.1456,0.1504,0.1504,0.1502,0.1502,0.1502,0.1502,0.1502,0.1502,0.1502,0.1502,0.1502,0.1502,0.1494,0.151,0.1504,0.1471,0.1418,0.1391,0.1391,0.1391,0.1391,0.1391,0.1391,0.1391,0.1391,0.1391,0.1391,0.1391,0.1391,0.1391,0.1391,0.1391,0.1391,0.0987,0.0045,-0.0873,-0.1446,-0.1592,-0.2495,-0.3032,-0.3088,-0.4093,-0.4597,-0.4595,-0.4456,-0.4388,-0.4361,-0.3347,-0.2889,-0.2777,-0.0829,0.0,0.0,0.0,0.0561,0.13,0.0381,0.0613,0.1508,0.1491,0.1545,0.1601,-0.8546,-0.843,-0.8272,-0.8047,-0.7988,-0.7839,-0.7391,-0.7316,-0.7138,-0.6589,-0.6514,-0.6487,-0.6412,-0.6412,-0.6412,-0.6412,-0.6412,-0.6412,-0.6412,-0.6412,-0.6412,-0.6412,-0.6412,-0.6412,-0.6412,-0.6412,-0.6412,-0.6412,-0.6412,-0.6412,-0.6409,-0.6377,-0.5964,-0.5191,-0.3772,-0.2729,-0.1918,-0.0584,0.0,0.0,0.0,0.0,0.0,0.0,0.0,0.0046,0.0298,0.0409,0.0471,0.0942,0.1099,0.1143,0.1345,0.1419,0.1427,0.1427,0.1433,0.144,0.144,0.144,0.1449,0.1492,0.1502,0.1502,0.1502,0.1502,0.1494,0.151,0.1504,0.1471,0.1418,0.1391,0.1391,0.1391,0.1391,0.1391,0.1391,0.1391,0.1391,0.1391,0.1391,0.1391,0.1391,0.1391,0.1391,0.1391,0.1391,0.0987,0.0045,-0.0269,-0.0791,-0.1569,-0.187,-0.2339,-0.303,-0.3378,-0.385,-0.4452,-0.4425,-0.4034,-0.3345,-0.3033,-0.2151,-0.0829,-0.0247,0.0381,0.0987,0.0987,0.1143,0.1368,0.1099,0.1192,0.149,0.1499,0.1535,0.1605,-0.8454,-0.8355,-0.8247,-0.804,-0.7988,-0.7814,-0.7288,-0.7213,-0.7011,-0.6462,-0.6412,-0.6412,-0.6412,-0.6412,-0.6412,-0.6412,-0.6412,-0.6412,-0.6412,-0.6412,-0.6412,-0.6412,-0.6412,-0.6412,-0.6412,-0.6412,-0.6412,-0.6412,-0.6412,-0.6412,-0.6412,-0.6412,-0.6059,-0.5384,-0.4305,-0.3228,-0.2155,-0.1091,-0.0394,0.0,0.0,0.0,0.0,0.0,0.0,0.0047,0.0304,0.0464,0.062,0.0979,0.1152,0.1233,0.1368,0.1391,0.1391,0.1391,0.1391,0.1391,0.1391,0.1391,0.1399,0.1458,0.1467,0.1467,0.1467,0.1467,0.1461,0.1466,0.1463,0.1457,0.1416,0.1391,0.1391,0.1391,0.1391,0.1391,0.1391,0.1391,0.1391,0.1391,0.1391,0.1391,0.1391,0.1391,0.1391,0.1391,0.1391,0.1143,0.0583,0.0202,-0.0135,-0.0411,-0.0776,-0.1414,-0.235,-0.2032,-0.2516,-0.3811,-0.3399,-0.2899,-0.2283,-0.1926,-0.112,0.0022,0.0403,0.0874,0.1391,0.1391,0.1391,0.1391,0.1391,0.1449,0.1502,0.1502,0.154,0.1592,-0.8321,-0.8284,-0.8204,-0.804,-0.7988,-0.7839,-0.7313,-0.7213,-0.7011,-0.6512,-0.6412,-0.6412,-0.6412,-0.6412,-0.6412,-0.6412,-0.6412,-0.6412,-0.6412,-0.6412,-0.6412,-0.6412,-0.6412,-0.6412,-0.6412,-0.6412,-0.6412,-0.6412,-0.6412,-0.6412,-0.6412,-0.6412,-0.6412,-0.6362,-0.5286,-0.4205,-0.3123,-0.2066,-0.0984,0.0,0.0,0.0,0.0,0.0,0.0,0.0048,0.0335,0.0597,0.0832,0.105,0.1258,0.1417,0.1417,0.1415,0.1391,0.1391,0.1391,0.1391,0.1391,0.1391,0.1391,0.1391,0.1391,0.1391,0.1391,0.1391,0.1391,0.1391,0.1391,0.1391,0.1391,0.1391,0.1391,0.1391,0.1391,0.1391,0.1391,0.1391,0.1391,0.1391,0.1391,0.1391,0.1391,0.1391,0.1391,0.1391,0.1391,0.1391,0.1391,0.0583,0.0515,0.1368,0.0561,-0.0336,-0.1276,-0.0336,-0.0896,-0.2889,-0.1879,-0.1364,-0.1253,-0.0381,0.0045,0.0179,0.1031,0.1391,0.1391,0.1391,0.1391,0.1391,0.1391,0.1449,0.1502,0.1502,0.154,0.1592,-0.8301,-0.8174,-0.8054,-0.802,-0.7988,-0.7889,-0.7568,-0.7341,-0.7089,-0.6767,-0.6539,-0.6412,-0.6412,-0.6412,-0.6412,-0.6412,-0.6412,-0.6412,-0.6412,-0.6412,-0.6412,-0.6412,-0.6412,-0.6412,-0.6412,-0.6412,-0.6412,-0.6412,-0.6412,-0.6412,-0.6412,-0.6412,-0.6412,-0.6362,-0.5286,-0.4205,-0.3123,-0.2066,-0.0984,0.0,0.0,0.0,0.0,0.0,0.0,0.0073,0.0537,0.0749,0.0857,0.1281,0.1449,0.1471,0.1471,0.1432,0.1391,0.1391,0.1391,0.1391,0.1391,0.1391,0.1391,0.1391,0.1391,0.1391,0.1391,0.1391,0.1391,0.1391,0.1391,0.1391,0.1391,0.1391,0.1391,0.1391,0.1391,0.1391,0.1391,0.1391,0.1391,0.1391,0.1391,0.1391,0.1391,0.1391,0.1391,0.1391,0.1391,0.1391,0.1391,0.1211,0.1188,0.1391,0.1211,0.065,-0.0291,0.0628,-0.0246,-0.2889,-0.1879,-0.1007,-0.0291,-0.009,0.0403,0.1099,0.1323,0.1391,0.1391,0.1391,0.1391,0.1391,0.1391,0.1449,0.1502,0.1502,0.154,0.1592,-0.816,-0.8071,-0.7988,-0.7988,-0.7988,-0.7917,-0.7646,-0.7366,-0.7113,-0.6842,-0.6564,-0.6412,-0.6412,-0.6412,-0.6412,-0.6412,-0.6412,-0.6412,-0.6412,-0.6412,-0.6412,-0.6412,-0.6412,-0.6412,-0.6412,-0.6412,-0.6412,-0.6412,-0.6412,-0.6412,-0.6412,-0.6412,-0.6412,-0.6387,-0.5809,-0.4958,-0.3904,-0.2821,-0.1739,-0.0707,-0.0202,0.0,0.0,0.0,0.0,0.005,0.0473,0.0762,0.104,0.1426,0.1528,0.1502,0.1502,0.1468,0.1453,0.1438,0.1457,0.1431,0.1416,0.1391,0.1391,0.1391,0.1391,0.1391,0.1391,0.1391,0.1391,0.1391,0.1391,0.1391,0.1391,0.1391,0.1391,0.1391,0.1391,0.1391,0.1391,0.1391,0.1391,0.1391,0.1391,0.1391,0.1391,0.1391,0.1391,0.1391,0.1391,0.1391,0.1391,0.1391,0.1391,0.1391,0.1391,0.0942,0.0,0.0942,0.0426,-0.1501,-0.0537,0.0202,0.0673,0.0673,0.0942,0.1391,0.1391,0.1391,0.1391,0.1391,0.1391,0.1391,0.1391,0.1449,0.1502,0.1502,0.154,0.1592,-0.7988,-0.7988,-0.7988,-0.7988,-0.7988,-0.7917,-0.7646,-0.7366,-0.7113,-0.6842,-0.6564,-0.6412,-0.6412,-0.6412,-0.6412,-0.6412,-0.6412,-0.6412,-0.6412,-0.6412,-0.6412,-0.6412,-0.6412,-0.6412,-0.6412,-0.6412,-0.6412,-0.6412,-0.6412,-0.6412,-0.6412,-0.6412,-0.6412,-0.6412,-0.6433,-0.5711,-0.4479,-0.3592,-0.2506,-0.1241,-0.0354,0.0,0.0,0.0,0.0025,0.0101,0.0379,0.0825,0.1307,0.153,0.1559,0.151,0.151,0.1506,0.1498,0.1495,0.1511,0.1483,0.1435,0.1428,0.1427,0.1422,0.142,0.1419,0.1414,0.1391,0.1391,0.1391,0.1391,0.1391,0.1391,0.1391,0.1391,0.1391,0.1391,0.1391,0.1391,0.1391,0.1391,0.1391,0.1391,0.1391,0.1391,0.1391,0.1391,0.1391,0.1391,0.1391,0.1391,0.1391,0.1391,0.1391,0.1391,0.1031,0.0247,0.1009,0.1009,0.0247,0.1031,0.1391,0.1391,0.1391,0.1391,0.1391,0.1391,0.1391,0.1391,0.1391,0.1391,0.1391,0.1391,0.1449,0.1504,0.1514,0.1549,0.1592,-0.7988,-0.7988,-0.7988,-0.7988,-0.7988,-0.7917,-0.7646,-0.7366,-0.7113,-0.6842,-0.6564,-0.6412,-0.6412,-0.6412,-0.6412,-0.6412,-0.6412,-0.6412,-0.6412,-0.6412,-0.6412,-0.6412,-0.6412,-0.6412,-0.6412,-0.6412,-0.6412,-0.6412,-0.6412,-0.6412,-0.6412,-0.6412,-0.6412,-0.6414,-0.6523,-0.5411,-0.3404,-0.3376,-0.214,-0.0207,-0.0051,0.0,0.0,0.0,0.0152,0.0379,0.0657,0.1084,0.156,0.1586,0.159,0.1589,0.1589,0.1547,0.1502,0.1498,0.1496,0.1496,0.1491,0.149,0.1484,0.1481,0.1497,0.1468,0.1418,0.1391,0.1391,0.1391,0.1391,0.1391,0.1391,0.1391,0.1391,0.1391,0.1391,0.1391,0.1391,0.1391,0.1391,0.1391,0.1391,0.1391,0.1391,0.1391,0.1391,0.1391,0.1391,0.1391,0.1391,0.1391,0.1391,0.1391,0.1391,0.1345,0.1211,0.1345,0.1345,0.1211,0.1345,0.1391,0.1391,0.1391,0.1391,0.1391,0.1391,0.1391,0.1391,0.1391,0.1391,0.1391,0.1391,0.1449,0.1508,0.156,0.1585,0.1592,-0.7988,-0.7988,-0.7988,-0.7988,-0.7988,-0.7967,-0.7842,-0.7466,-0.7163,-0.7039,-0.6664,-0.6412,-0.6412,-0.6412,-0.6412,-0.6412,-0.6412,-0.6412,-0.6412,-0.6412,-0.6412,-0.6412,-0.6412,-0.6412,-0.6412,-0.6412,-0.6412,-0.6412,-0.6412,-0.6412,-0.6412,-0.6482,-0.6515,-0.6517,-0.6642,-0.5775,-0.4173,-0.3622,-0.2429,-0.0829,-0.0232,0.0,0.0,0.0,0.0177,0.0455,0.0884,0.1263,0.1592,0.1592,0.1608,0.1597,0.1597,0.1588,0.1549,0.1556,0.1551,0.1548,0.1506,0.1502,0.1499,0.1509,0.1506,0.1502,0.1465,0.145,0.1456,0.1416,0.1391,0.1391,0.1391,0.1391,0.1391,0.1391,0.1391,0.1391,0.1391,0.1391,0.1391,0.1391,0.1391,0.1391,0.1391,0.1391,0.1391,0.1391,0.1391,0.1391,0.1391,0.1391,0.1391,0.1391,0.1391,0.1391,0.1391,0.1391,0.1391,0.1391,0.1391,0.1391,0.1391,0.1391,0.1391,0.1391,0.1391,0.1391,0.1391,0.1391,0.1391,0.1391,0.1391,0.1449,0.151,0.1569,0.1592,0.1592]},{"header":{"parameterUnit":"m.s-1","parameterCategory":1,"la1":30.6,"la2":28.766,"lo1":-90.7593,"lo2":-88.6598,"dy":0.0162,"dx":0.0183,"nx":116,"ny":114,"refTime":"2023-10-14T18:00:00:Z","depth":0,"parameterNumber":3,"parameterNumberName":"V-component_of_WINDS"},"data":[0.0,0.0,0.0,0.0,0.0,0.0,0.0,0.0,0.0,0.0,0.0,0.0,0.0,0.0,0.0,0.0,0.0,0.0,0.0,0.0,0.0,0.0,0.0,0.0,0.0,0.0,0.0,0.0,0.0,0.0,0.0,0.0,0.0,0.0,0.0,0.0,0.0,0.0,0.0,0.0,0.0,0.0,0.0,0.0,0.0,0.0,0.0,0.0,0.0,0.0,0.0,0.0,0.0,0.0,0.0,0.0,0.0,0.0,0.0,0.0,0.0,0.0,0.0,0.0,0.0,0.0,0.0,0.0,0.0,0.0,0.0,0.0,0.0,0.0,0.0,0.0,0.0,0.0,0.0,0.0,0.0,0.0,0.0,0.0,0.0,0.0,0.0,0.0,0.0,0.0,0.0,0.0,0.0,0.0,0.0,0.0,0.0,0.0,0.0,0.0,0.0,0.0,0.0,0.0,0.0,0.0,0.0,0.0,0.0,0.0,0.0,0.0,0.0,0.0,0.0,0.0,0.0,0.0,0.0,0.0,0.0,0.0,0.0,0.0,0.0,0.0,0.0,0.0,0.0,0.0,0.0,0.0,0.0,0.0,0.0,0.0,0.0,0.0,0.0,0.0,0.0,0.0,0.0,0.0,0.0,0.0,0.0,0.0,0.0,0.0,0.0,0.0,0.0,0.0,0.0,0.0,0.0,0.0,0.0,0.0,0.0,0.0,0.0,0.0,0.0,0.0,0.0,0.0,0.0,0.0,0.0,0.0,0.0,0.0,0.0,0.0,0.0,0.0,0.0,0.0,0.0,0.0,0.0,0.0,0.0,0.0,0.0,0.0,0.0,0.0,0.0,0.0,0.0,0.0,0.0,0.0,0.0,0.0,0.0,0.0,0.0,0.0,0.0,0.0,0.0,0.0,0.0,0.0,0.0,0.0,0.0,0.0,0.0,0.0,0.0,0.0,0.0,0.0,0.0,0.0,0.0,0.0,0.0,0.0,0.0,0.0,0.0,0.0,0.0,0.0,0.0,0.0,0.0,0.0,0.0,0.0,0.0,0.0,0.0,0.0,0.0,0.0,0.0,0.0,0.0,0.0,0.0,0.0,0.0,0.0,0.0,0.0,0.0,0.0,0.0,0.0,0.0,0.0,0.0,0.0,0.0,0.0,0.0,0.0,0.0,0.0,0.0,0.0,0.0,0.0,0.0,0.0,0.0,0.0,0.0,0.0,0.0,0.0,0.0,0.0,0.0,0.0,0.0,0.0,0.0,0.0,0.0,0.0,0.0,0.0,0.0,0.0,0.0,0.0,0.0,0.0,0.0,0.0,0.0,0.0,0.0,0.0,0.0,0.0,0.0,0.0,0.0,0.0,0.0,0.0,0.0,0.0,0.0,0.0,0.0,0.0,0.0,0.0,0.0,0.0,0.0,0.0,0.0,0.0,0.0,0.0,0.0,0.0,0.0,0.0,0.0,0.0,0.0,0.0,0.0,0.0,0.0,0.0,0.0,0.0,0.0,0.0,0.0,0.0,0.0,0.0,0.0,0.0,0.0,0.0,0.0,0.0,0.0,0.0,0.0,0.0,0.0,0.0,0.0,0.0,0.0,0.0,0.0,0.0,0.0,0.0,0.0,0.0,0.0,0.0,0.0,0.0,0.0,0.0,0.0,0.0,0.0,0.0,0.0,0.0,0.0,0.0,0.0,0.0,0.0,0.0,0.0,0.0,0.0,0.0,0.0,0.0,0.0,0.0,0.0,0.0,0.0,0.0,0.0,0.0,0.0,0.0,0.0,0.0,0.0,0.0,0.0,0.0,0.0,0.0,0.0,0.0,0.0,0.0,0.0,0.0,0.0,0.0,0.0,0.0,0.0,0.0,0.0,0.0,0.0,0.0,0.0,0.0,0.0,0.0,0.0,0.0,0.0,0.0,0.0,0.0,0.0,0.0,0.0,0.0,0.0,0.0,0.0,0.0,0.0,0.0,0.0,0.0,0.0,0.0,0.0,0.0,0.0,0.0,0.0,0.0,0.0,0.0,0.0,0.0,0.0,0.0,0.0,0.0,0.0,0.0,0.0,0.0,0.0,0.0,0.0,0.0,0.0,0.0,0.0,0.0,0.0,0.0,0.0,0.0,0.0,0.0,0.0,0.0,0.0,0.0,0.0,0.0,0.0,0.0,0.0,0.0,0.0,0.0,0.0,0.0,0.0,0.0,0.0,0.0,0.0,0.0,0.0,0.0,0.0,0.0,0.0,0.0,0.0,0.0,0.0,0.0,0.0,0.0,0.0,0.0,0.0,0.0,0.0,0.0,0.0,0.0,0.0,0.0,0.0,0.0,0.0,0.0,0.0,0.0,0.0,0.0,0.0,0.0,0.0,0.0,0.0,0.0,0.0,0.0,0.0,0.0,0.0,0.0,0.0,0.0,0.0,0.0,0.0,0.0,0.0,0.0,0.0,0.0,0.0,0.0,0.0,0.0,0.0,0.0,0.0,0.0,0.0,0.0,0.0,0.0,0.0,0.0,0.0,0.0,0.0,0.0,0.0,0.0,0.0,0.0,0.0,0.0,0.0,0.0,0.0,0.0,0.0,0.0,0.0,0.0,0.0,0.0,0.0,0.0,0.0,0.0,0.0,0.0,0.0,0.0,0.0,0.0,0.0,0.0,0.0,0.0,0.0,0.0,0.0,0.0,0.0,0.0,0.0,0.0,0.0,0.0,0.0,0.0,0.0,0.0,0.0,0.0,0.0,0.0,0.0,0.0,0.0,0.0,0.0,0.0,0.0,0.0,0.0,0.0,0.0,0.0,0.0,0.0,0.0,0.0,0.0,0.0,0.0,0.0,0.0,0.0,0.0,0.0,0.0,0.0,0.0,0.0,0.0,0.0,0.0,0.0,0.0,0.0,0.0,0.0,0.0,0.0,0.0,0.0,0.0,0.0,0.0,0.0,0.0,0.0,0.0,0.0,0.0,0.0,0.0,0.0,0.0,0.0,0.0,0.0,0.0,0.0,0.0,0.0,0.0,0.0,0.0,0.0,0.0,0.0,0.0,0.0,0.0,0.0,0.0,0.0,0.0,0.0,0.0,0.0,0.0,0.0,0.0,0.0,0.0,0.0,0.0,0.0,0.0,0.0,0.0,0.0,0.0,0.0,0.0,0.0,0.0,0.0,0.0,0.0,0.0,0.0,0.0,0.0,0.0,0.0,0.0,0.0,0.0,0.0,0.0,0.0,0.0,0.0,0.0,0.0,0.0,0.0,0.0,0.0,0.0,0.0,0.0,0.0,0.0,0.0,0.0,0.0,0.0,0.0,0.0,0.0,0.0,0.0,0.0,0.0,0.0,0.0,0.0,0.0,0.0,0.0,0.0,0.0,0.0,0.0,0.0,0.0,0.0,0.0,0.0,0.0,0.0,0.0,0.0,0.0,0.0,0.0,0.0,0.0,0.0,0.0,0.0,0.0,0.0,0.0,0.0,0.0,0.0,0.0,0.0,0.0,0.0,0.0,0.0,0.0,0.0,0.0,0.0,0.0,0.0,0.0,0.0,0.0,0.0,0.0,0.0,0.0,0.0,0.0,0.0,0.0,0.0,0.0,0.0,0.0,0.0,0.0,0.0,0.0,0.0,0.0,0.0,0.0,0.0,0.0,0.0,0.0,0.0,0.0,0.0,0.0,0.0,0.0,0.0,0.0,0.0,0.0,0.0,0.0,0.0,0.0,0.0,0.0,0.0,0.0,0.0,0.0,0.0,0.0,0.0,0.0,0.0,0.0,0.0,0.0,0.0,0.0,0.0,0.0,0.0,0.0,0.0,0.0,0.0,0.0,0.0,0.0,0.0,0.0,0.0,0.0,0.0,0.0,0.0,0.0,0.0,0.0,0.0,0.0,0.0,0.0,0.0,0.0,0.0,0.0,0.0,0.0,0.0,0.0,0.0,0.0,0.0,0.0,0.0,0.0,0.0,0.0,0.0,0.0,0.0,0.0,0.0,0.0,0.0,0.0,0.0,0.0,0.0,0.0,0.0,0.0,0.0,0.0,0.0,0.0,0.0,0.0,0.0,0.0,0.0,0.0,0.0,0.0,0.0,0.0,0.0,0.0,0.0,0.0,0.0,0.0,0.0,0.0,0.0,0.0,0.0,0.0,0.0,0.0,0.0,0.0,0.0,0.0,0.0,0.0,0.0,0.0,0.0,0.0,0.0,0.0,0.0,0.0,0.0,0.0,0.0,0.0,0.0,0.0,0.0,0.0,0.0,0.0,0.0,0.0,0.0,0.0,0.0,0.0,0.0,0.0,0.0,0.0,0.0,0.0,0.0,0.0,0.0,0.0,0.0,0.0,0.0,0.0,0.0,0.0,0.0,0.0,0.0,0.0,0.0,0.0,0.0,0.0,0.0,0.0,0.0,0.0,0.0,0.0,0.0,0.0,0.0,0.0,0.0,0.0,0.0,0.0,0.0,0.0,0.0,0.0,0.0,0.0,0.0,0.0,0.0,0.0,0.0,0.0,0.0,0.0,0.0,0.0,0.0,0.0,0.0,0.0,0.0,0.0,0.0,0.0,0.0,0.0,0.0,0.0,0.0,0.0,0.0,0.0,0.0,0.0,0.0,0.0,0.0,0.0,0.0,0.0,0.0,0.0,0.0,0.0,0.0,0.0,0.0,0.0,0.0,0.0,0.0,0.0,0.0,0.0,0.0,0.0,0.0,0.0,0.0,0.0,0.0,0.0,0.0,0.0,0.0,0.0,0.0,0.0,0.0,0.0,0.0,0.0,0.0,0.0,0.0,0.0,0.0,0.0,0.0,0.0,0.0,0.0,0.0,0.0,0.0,0.0,0.0,0.0,0.0,0.0,0.0,0.0,0.0,0.0,0.0,0.0,0.0,0.0,0.0,0.0,0.0,0.0,0.0,0.0,0.0,0.0,0.0,0.0,0.0,0.0,0.0,0.0,0.0,0.0,0.0,0.0,0.0,0.0,0.0,0.0,0.0,0.0,0.0,0.0,0.0,0.0,0.0,0.0,0.0,0.0,0.0,0.0,0.0,0.0,0.0,0.0,0.0,0.0,0.0,0.0,0.0,0.0,0.0,0.0,0.0,0.0,0.0,0.0,0.0,0.0,0.0,0.0,0.0,0.0,0.0,0.0,0.0,0.0,0.0,0.0,0.0,0.0,0.0,0.0,0.0,0.0,0.0,0.0,0.0,0.0,0.0,0.0,0.0,0.0,0.0,0.0,0.0,0.0,0.0,0.0,0.0,0.0,0.0,0.0,0.0,0.0,0.0,0.0,0.0,0.0,0.0,0.0,0.0,0.0,0.0,0.0,0.0,0.0,0.0,0.0,0.0,0.0,0.0,0.0,0.0,0.0,0.0,0.0,0.0,0.0,0.0,0.0,0.0,0.0,0.0,0.0,0.0,0.0,0.0,0.0,0.0,0.0,0.0,0.0,0.0,0.0,0.0,0.0,0.0,0.0,0.0,0.0,0.0,0.0,0.0,0.0,0.0,0.0,0.0,0.0,0.0,0.0,0.0,0.0,0.0,0.0,0.0,0.0,0.0,0.0,0.0,0.0,0.0,0.0,0.0,0.0,0.0,0.0,0.0,0.0,0.0,0.0,0.0,0.0,0.0,0.0,0.0,0.0,0.0,0.0,0.0,0.0,0.0,0.0,0.0,0.0,0.0,0.0,0.0,0.0,0.0,0.0,0.0,0.0,0.0,0.0,0.0,0.0,0.0,0.0,0.0,0.0,0.0,0.0,0.0,0.0,0.0,0.0,0.0,0.0,0.0,0.0,0.0,0.0,0.0,0.0,0.0,0.0,0.0,0.0,0.0,0.0,0.0,0.0,0.0,0.0,0.0,0.0,0.0,0.0,0.0,0.0,0.0,0.0,0.0,0.0,0.0,0.0,0.0,0.0,0.0,0.0,0.0,0.0,0.0,0.0,0.0,0.0,0.0,0.0,0.0,0.0,0.0,0.0,0.0,0.0,0.0,0.0,0.0,0.0,0.0,0.0,0.0,0.0,0.0,0.0,0.0,0.0,0.0,0.0,0.0,0.0,0.0,0.0,0.0,0.0,0.0,0.0,0.0,0.0,0.0,0.0,0.0,0.0,0.0,0.0,2.3234,0.0,0.0,0.0,0.0,0.0,0.0,0.0,0.0,0.0,0.0,0.0,0.0,0.0,0.0,0.0,0.0,0.0,0.0,0.0,0.0,0.0,0.0,0.0,0.0,0.0,0.0,0.0,0.0,0.0,0.0,0.0,0.0,0.0,0.0,0.0,0.0,0.0,0.0,0.0,0.0,0.0,0.0,0.0,0.0,0.0,0.0,0.0,0.0,0.0,0.0,0.0,0.0,0.0,0.0,0.0,0.0,0.0,0.0,0.0,0.0,0.0,0.0,0.0,0.0,0.0,0.0,0.0,0.0,0.0,0.0,0.0,0.0,0.0,0.0,0.0,0.0,0.0,0.0,0.0,0.0,0.0,0.0,0.0,0.0,0.0,0.0,0.0,0.0,0.0,0.0,0.0,0.0,0.0,0.0,0.0,0.0,0.0,0.0,0.0,0.0,0.0,0.0,0.0,0.0,0.0,0.0,0.0,0.0,0.0,0.0,0.0,0.0,0.0,0.0,0.0,0.0,2.3732,0.0,0.0,0.0,0.0,0.0,0.0,0.0,0.0,0.0,0.0,0.0,0.0,0.0,0.0,0.0,0.0,0.0,0.0,0.0,0.0,0.0,0.0,0.0,0.0,0.0,0.0,0.0,0.0,0.0,0.0,0.0,0.0,0.0,0.0,0.0,0.0,0.0,0.0,0.0,0.0,0.0,0.0,0.0,0.0,0.0,0.0,0.0,0.0,0.0,0.0,0.0,0.0,0.0,0.0,0.0,0.0,0.0,0.0,0.0,0.0,0.0,0.0,0.0,0.0,0.0,0.0,0.0,0.0,0.0,0.0,0.0,0.0,0.0,0.0,0.0,0.0,0.0,0.0,0.0,0.0,0.0,0.0,0.0,0.0,0.0,0.0,0.0,0.0,0.0,0.0,0.0,0.0,0.0,0.0,0.0,0.0,0.0,0.0,0.0,0.0,0.0,0.0,0.0,0.0,0.0,0.0,0.0,0.0,0.0,0.0,2.5609,2.567,2.5721,2.5739,2.5018,2.452,2.4156,0.0,0.0,0.0,0.0,0.0,0.0,0.0,0.0,0.0,0.0,0.0,0.0,0.0,0.0,0.0,0.0,0.0,0.0,0.0,0.0,0.0,0.0,0.0,0.0,0.0,0.0,0.0,0.0,0.0,0.0,0.0,0.0,0.0,0.0,0.0,0.0,0.0,0.0,0.0,2.0112,2.0101,2.0083,2.0013,0.0,0.0,0.0,0.0,0.0,0.0,0.0,0.0,0.0,0.0,0.0,0.0,0.0,0.0,0.0,0.0,0.0,0.0,0.0,0.0,0.0,0.0,0.0,0.0,0.0,0.0,0.0,0.0,0.0,0.0,0.0,0.0,0.0,0.0,0.0,0.0,0.0,0.0,0.0,0.0,0.0,0.0,0.0,0.0,1.8615,1.8823,0.0,0.0,0.0,0.0,0.0,0.0,0.0,0.0,0.0,0.0,0.0,0.0,0.0,0.0,2.4161,2.454,2.5067,2.5727,2.6572,2.7318,2.7971,2.8618,2.8903,2.8894,2.8782,0.0,2.5835,2.6317,0.0,0.0,0.0,0.0,0.0,0.0,0.0,0.0,0.0,0.0,0.0,0.0,0.0,0.0,0.0,0.0,0.0,0.0,0.0,0.0,0.0,0.0,0.0,0.0,0.0,0.0,0.0,0.0,0.0,0.0,0.0,0.0,0.0,0.0,0.0,0.0,2.0546,2.0499,2.0043,2.0033,2.0032,1.9996,2.0059,2.0267,2.0542,2.0224,0.0,0.0,0.0,0.0,0.0,0.0,0.0,0.0,0.0,0.0,0.0,0.0,0.0,0.0,0.0,0.0,0.0,0.0,0.0,0.0,0.0,0.0,0.0,0.0,0.0,0.0,0.0,0.0,0.0,0.0,0.0,0.0,0.0,0.0,0.0,0.0,0.0,0.0,0.0,1.8283,1.8236,1.8721,1.8647,1.8739,0.0,0.0,0.0,0.0,0.0,0.0,0.0,0.0,0.0,2.4764,2.5291,2.5925,2.6735,2.7228,2.7647,2.7966,2.8352,2.8713,2.9023,2.9343,2.9498,2.9498,2.9498,2.8929,2.8032,2.8327,2.8448,2.8448,0.0,0.0,0.0,0.0,0.0,0.0,0.0,0.0,0.0,0.0,0.0,0.0,0.0,0.0,0.0,0.0,0.0,0.0,0.0,0.0,0.0,0.0,0.0,0.0,0.0,0.0,0.0,0.0,0.0,0.0,0.0,0.0,0.0,0.0,2.0834,2.0881,2.0313,2.054,2.0635,2.0638,2.0663,2.0537,2.0313,2.017,2.0341,0.0,0.0,0.0,0.0,0.0,0.0,0.0,0.0,0.0,0.0,0.0,0.0,0.0,0.0,0.0,0.0,0.0,0.0,0.0,0.0,0.0,0.0,0.0,0.0,0.0,0.0,0.0,0.0,0.0,0.0,0.0,0.0,0.0,0.0,0.0,0.0,0.0,0.0,1.9203,1.9268,1.9716,1.9764,1.9955,0.0,0.0,0.0,0.0,0.0,0.0,2.4243,2.4471,2.5253,2.6716,2.728,2.8005,2.8921,2.9481,2.9954,3.036,3.028,3.0392,3.067,3.0473,3.0446,3.051,3.051,3.0482,3.0358,2.9756,2.9489,2.9472,2.9498,2.9489,0.0,2.9722,2.9817,2.9834,0.0,0.0,0.0,0.0,0.0,0.0,0.0,0.0,0.0,0.0,0.0,0.0,0.0,0.0,0.0,0.0,0.0,0.0,0.0,0.0,0.0,0.0,0.0,0.0,0.0,0.0,0.0,2.0091,2.0834,2.1184,2.1165,2.1983,2.2365,2.2387,2.2433,2.2002,2.1189,2.0415,2.1012,2.2409,0.0,0.0,0.0,0.0,0.0,0.0,0.0,0.0,0.0,0.0,0.0,0.0,0.0,0.0,0.0,0.0,0.0,0.0,0.0,0.0,0.0,0.0,0.0,0.0,0.0,0.0,0.0,0.0,0.0,0.0,0.0,0.0,0.0,0.0,0.0,0.0,0.0,0.0,0.0,2.1872,2.2002,0.0,0.0,0.0,0.0,2.3241,2.3966,2.5072,2.6638,2.7394,2.8194,2.91,2.91,2.9503,3.0391,3.0441,3.1217,3.2722,3.2413,3.2808,3.3842,3.3144,3.3001,3.3301,3.3301,3.3121,3.2651,3.0416,2.9455,2.9403,2.9472,2.9455,2.9515,3.0325,3.0636,3.074,0.0,0.0,0.0,0.0,0.0,0.0,0.0,0.0,0.0,0.0,0.0,0.0,0.0,0.0,0.0,0.0,0.0,0.0,0.0,0.0,0.0,0.0,0.0,0.0,0.0,0.0,2.1881,2.0817,2.215,2.2533,2.204,2.2346,2.2498,2.2498,2.2524,2.2382,2.2084,2.1281,2.1287,2.1746,2.0903,2.0747,0.0,0.0,0.0,0.0,0.0,0.0,0.0,0.0,0.0,0.0,0.0,0.0,0.0,0.0,0.0,0.0,0.0,0.0,0.0,0.0,0.0,0.0,0.0,0.0,0.0,0.0,0.0,0.0,0.0,0.0,0.0,0.0,0.0,0.0,0.0,0.0,0.0,2.2733,2.2909,0.0,0.0,2.4792,2.5439,2.6175,2.6945,2.7656,2.8225,2.8944,2.9773,3.0698,3.1158,3.171,3.2415,3.2698,3.2965,3.3294,3.3428,3.3719,3.4076,3.3567,3.3393,3.3491,3.3267,3.3119,3.2943,3.2103,3.1869,3.2069,3.2353,3.2446,3.2461,3.2766,3.2896,3.293,0.0,0.0,0.0,0.0,0.0,0.0,0.0,0.0,0.0,0.0,0.0,0.0,0.0,0.0,0.0,0.0,0.0,0.0,0.0,0.0,0.0,0.0,0.0,0.0,0.0,2.2583,2.3029,2.2476,2.3849,2.4246,2.3749,2.3735,2.3735,2.3733,2.3461,2.3372,2.3358,2.2555,2.2053,2.1727,2.0884,2.054,2.0563,0.0,0.0,0.0,0.0,0.0,0.0,0.0,0.0,0.0,0.0,0.0,0.0,0.0,0.0,0.0,0.0,0.0,0.0,0.0,0.0,0.0,0.0,0.0,0.0,0.0,0.0,0.0,0.0,0.0,0.0,0.0,0.0,0.0,0.0,0.0,2.424,2.465,2.5047,2.5644,2.653,2.7139,2.7681,2.8171,2.917,2.9765,2.984,3.0705,3.1572,3.236,3.273,3.3304,3.4069,3.4432,3.4609,3.4618,3.489,3.508,3.5194,3.4678,3.4504,3.46,3.4373,3.4222,3.4133,3.4383,3.4549,3.4544,3.3964,3.3734,3.3806,3.4442,3.4682,3.4761,0.0,0.0,0.0,0.0,0.0,0.0,0.0,0.0,0.0,0.0,0.0,0.0,0.0,0.0,0.0,0.0,0.0,0.0,0.0,0.0,0.0,0.0,0.0,0.0,2.3736,2.3044,2.3439,2.5034,2.577,2.6171,2.6228,2.6171,2.6178,2.622,2.5435,2.5088,2.5034,2.4249,2.344,2.2639,2.1784,2.1433,2.1347,0.0,0.0,0.0,0.0,0.0,0.0,0.0,0.0,0.0,0.0,0.0,0.0,0.0,0.0,0.0,0.0,0.0,0.0,0.0,0.0,0.0,0.0,0.0,0.0,0.0,0.0,0.0,0.0,0.0,0.0,0.0,0.0,0.0,2.563,2.6835,2.7762,2.7653,2.8454,2.8964,2.8844,2.897,2.9077,2.9094,3.0456,3.1356,3.1544,3.2768,3.3666,3.4152,3.3878,3.4216,3.5253,3.5538,3.6068,3.6796,3.6837,3.7036,3.7394,3.6653,3.6479,3.6807,3.6794,3.6594,3.6356,3.7069,3.714,3.654,3.4088,3.315,3.3372,3.5204,3.5884,3.6144,0.0,0.0,0.0,0.0,0.0,0.0,0.0,0.0,0.0,0.0,0.0,0.0,0.0,0.0,0.0,0.0,0.0,0.0,0.0,0.0,0.0,0.0,0.0,0.0,2.3581,2.5118,2.5817,2.5644,2.6489,2.6924,2.6998,2.6989,2.7032,2.713,2.6913,2.6814,2.6797,2.658,2.6044,2.5165,2.3095,2.2263,2.2171,0.0,0.0,0.0,0.0,0.0,0.0,0.0,0.0,0.0,0.0,0.0,0.0,0.0,0.0,0.0,0.0,0.0,0.0,0.0,0.0,0.0,0.0,0.0,0.0,0.0,0.0,0.0,0.0,0.0,0.0,0.0,0.0,2.6615,2.6345,2.7155,2.7992,2.8548,2.8847,2.9194,2.9689,3.0267,3.0821,3.1345,3.2266,3.2859,3.3002,3.3852,3.474,3.561,3.6058,3.6445,3.6792,3.7445,3.7454,3.6808,3.7395,3.7573,3.7377,3.6887,3.6704,3.6794,3.6545,3.638,3.6316,3.6525,3.6551,3.6414,3.6265,3.638,3.6699,3.7193,3.7576,3.7897,0.0,0.0,0.0,0.0,0.0,0.0,0.0,0.0,0.0,0.0,0.0,0.0,0.0,0.0,0.0,0.0,0.0,0.0,0.0,0.0,0.0,0.0,0.0,2.4755,2.5618,2.6697,2.7332,2.7539,2.8012,2.8272,2.8343,2.7999,2.7901,2.7994,2.7642,2.7509,2.75,2.75,2.7297,2.6819,2.534,2.4115,2.3085,2.216,2.2004,2.2115,2.118,2.1253,2.1745,2.1353,0.0,0.0,0.0,0.0,0.0,0.0,0.0,0.0,0.0,0.0,0.0,0.0,0.0,0.0,0.0,0.0,0.0,0.0,0.0,0.0,0.0,0.0,0.0,0.0,2.7241,2.7647,2.7602,2.827,2.905,2.983,3.0194,3.0676,3.14,3.1867,3.229,3.274,3.3728,3.4401,3.4599,3.5373,3.6254,3.718,3.7234,3.7463,3.7899,3.834,3.8205,3.7521,3.8133,3.8207,3.7811,3.7586,3.7464,0.0,3.7256,3.7193,3.7193,3.7193,3.7193,0.0,0.0,0.0,0.0,0.0,3.8666,3.9451,0.0,0.0,0.0,0.0,0.0,0.0,0.0,0.0,0.0,0.0,0.0,0.0,0.0,0.0,0.0,0.0,0.0,0.0,0.0,0.0,0.0,2.5873,2.4791,2.5563,2.8535,2.7915,2.8307,2.979,2.9729,2.9733,2.9785,2.9064,2.877,2.8798,2.8097,2.7778,2.7785,2.7792,2.7806,2.7832,2.7848,2.6458,2.4301,2.3223,2.3294,2.3812,2.2697,2.2726,2.3196,2.2368,0.0,0.0,0.0,0.0,0.0,0.0,0.0,0.0,0.0,0.0,0.0,0.0,0.0,0.0,0.0,0.0,0.0,0.0,0.0,0.0,0.0,0.0,0.0,0.0,2.8104,2.9061,2.9213,2.988,3.0598,3.1251,3.1979,3.2672,3.3339,3.3569,3.3654,3.366,3.5047,3.5977,3.6177,0.0,0.0,0.0,0.0,3.7858,3.8768,3.8681,3.8605,3.8554,3.8858,3.8794,3.8391,3.8391,3.8391,3.8391,3.8391,3.8391,3.8391,3.8391,3.8422,3.8306,3.7113,3.6663,3.6861,3.8059,3.9437,0.0,0.0,0.0,0.0,0.0,0.0,0.0,0.0,0.0,0.0,0.0,0.0,0.0,0.0,0.0,0.0,0.0,0.0,0.0,0.0,0.0,2.583,2.6132,2.7096,2.7932,2.8592,2.9013,2.9391,2.9715,2.9715,2.9733,2.9803,2.9634,2.9605,2.9669,2.9562,2.9528,2.9517,2.9574,2.9233,2.8669,2.8665,2.7991,2.6868,2.5853,2.5498,2.5427,2.4387,2.4051,2.4066,2.3883,2.3787,2.3874,2.4686,0.0,0.0,0.0,0.0,0.0,0.0,0.0,0.0,0.0,0.0,0.0,0.0,0.0,0.0,0.0,0.0,0.0,0.0,0.0,0.0,2.8442,2.8807,2.9416,3.0608,3.1403,3.1928,3.2073,3.274,3.3237,3.3379,3.4569,3.5292,3.5171,3.6678,3.7526,3.7287,3.7775,0.0,3.8978,3.8827,3.9132,3.9956,3.9585,3.9228,3.8903,0.0,0.0,3.8391,3.8391,3.8391,3.8391,3.8391,3.8391,3.8391,3.8391,3.8462,3.8572,3.8616,3.8893,3.9375,4.0046,4.0763,4.1419,0.0,0.0,0.0,0.0,0.0,0.0,0.0,0.0,0.0,0.0,0.0,0.0,0.0,0.0,0.0,0.0,0.0,0.0,0.0,2.5468,2.6365,2.673,2.7978,2.8827,2.92,2.9552,2.9756,2.9756,2.9756,2.9778,2.9803,3.0285,3.0522,3.056,3.1006,3.1221,3.1226,3.0867,3.0453,3.0011,2.9603,2.9159,2.8555,2.7203,2.686,2.6975,2.5963,2.5833,2.6025,2.5141,2.5126,2.5457,2.5413,2.5944,2.6754,0.0,0.0,0.0,0.0,0.0,0.0,0.0,0.0,0.0,0.0,0.0,0.0,0.0,0.0,2.6691,0.0,0.0,2.8653,2.9441,2.9864,3.0354,3.1099,3.2148,3.2858,3.2858,3.3548,3.4326,3.5025,3.5948,3.66,3.6819,3.7835,3.8485,3.86,3.8734,3.9168,3.9989,3.9578,3.9752,4.0595,3.9935,3.9549,3.9455,3.9145,3.886,3.86,3.8532,3.8532,3.86,3.86,3.86,3.86,3.86,3.8641,3.8736,3.9282,3.962,3.9838,4.019,4.0796,4.1463,0.0,0.0,0.0,0.0,0.0,0.0,0.0,0.0,0.0,0.0,0.0,0.0,0.0,0.0,0.0,0.0,0.0,0.0,0.0,2.5436,2.6714,2.7311,2.8361,2.9216,2.9811,2.9981,3.0075,3.0075,3.023,3.0306,3.0325,3.1079,3.1436,3.1454,3.2126,3.2465,3.2473,3.1794,3.1496,3.1389,3.0527,3.0065,2.9723,2.8237,2.7991,2.8347,2.7483,2.744,2.7553,2.6128,2.6008,2.6359,2.5812,2.6612,2.7778,2.771,2.8126,0.0,0.0,0.0,0.0,0.0,0.0,0.0,0.0,0.0,2.5973,2.6581,2.6936,2.7326,2.7943,2.8825,2.9647,3.0274,3.0876,3.13,3.1452,3.2622,3.352,3.3672,3.456,3.5656,3.6936,3.7338,3.7721,3.8199,3.8658,3.91,3.9539,3.9556,3.9889,4.0626,4.0095,4.0108,4.0776,4.0083,3.9795,3.9901,3.9461,3.9085,3.8805,3.8807,3.8807,3.8805,3.8805,3.8805,3.8805,3.8832,3.8898,3.9044,3.962,3.9885,3.9986,4.0082,4.0697,4.151,0.0,0.0,0.0,0.0,0.0,0.0,0.0,0.0,0.0,0.0,0.0,0.0,0.0,0.0,0.0,0.0,0.0,0.0,2.373,2.6032,2.7392,2.7475,2.8949,2.9794,2.988,3.0642,3.104,3.104,3.1764,3.2104,3.2104,3.2227,3.2269,3.2269,3.2431,3.2535,3.2572,3.2361,3.2306,3.2275,3.1286,3.0763,3.0499,2.9659,2.934,2.9318,2.9029,2.8062,2.6907,2.6648,2.6105,2.5642,2.6264,2.7046,2.7705,2.7629,0.0,2.7476,2.6686,2.6041,2.55,2.5093,2.5269,2.5547,0.0,0.0,2.659,2.6683,2.7782,2.8783,2.8924,3.0105,3.1101,3.1306,3.1418,3.1691,3.2339,3.3151,3.3936,3.4656,3.5919,3.7057,3.7891,3.8403,3.8704,3.873,3.9095,3.9354,3.9419,3.9787,3.994,3.9752,4.024,4.0441,4.0379,4.026,4.0111,3.9901,4.0074,3.9689,3.8819,3.9286,3.9246,3.8805,3.8805,3.8805,3.8805,3.8928,3.9259,3.9706,3.9902,4.0499,4.1293,4.1298,4.1687,4.2187,0.0,0.0,0.0,0.0,0.0,0.0,0.0,0.0,0.0,0.0,0.0,0.0,0.0,0.0,0.0,0.0,0.0,0.0,2.2937,2.49,2.6485,2.7456,2.8593,2.9419,2.9893,3.0257,3.0446,3.0446,3.1284,3.1701,3.172,3.2705,3.3164,3.3183,3.3726,3.3983,3.4022,3.3409,3.3137,3.2944,3.1478,3.075,3.0429,2.972,2.907,2.8566,2.8521,2.8358,0.0,0.0,2.6665,2.7396,2.6791,2.7123,2.7743,2.772,2.7305,0.0,2.594,2.5451,2.5194,0.0,2.5475,2.582,2.6674,2.7486,2.8155,2.8586,2.9533,3.0298,3.0377,3.088,3.1341,0.0,3.1856,3.2259,3.2566,3.3635,3.4688,3.545,3.6504,3.7342,3.777,3.8577,3.9111,3.9153,3.9382,3.964,3.9905,4.0212,4.0385,4.0365,4.089,4.1082,4.0842,4.0749,4.0689,4.0657,4.0414,4.0015,3.9506,3.9658,3.9497,3.9094,3.9094,3.9094,3.9094,3.9148,3.9474,3.9948,4.0326,4.0902,4.1494,4.1494,4.1845,4.2297,0.0,0.0,0.0,0.0,0.0,0.0,0.0,0.0,0.0,0.0,0.0,0.0,0.0,0.0,0.0,0.0,0.0,0.0,0.0,2.3901,2.5537,2.6751,2.8025,0.0,2.9552,3.0029,3.0257,3.0257,3.1109,3.153,3.1568,3.2799,3.3372,3.3414,3.428,3.4554,3.4311,3.3818,3.3417,3.2956,3.1366,3.0453,2.9995,2.9232,2.8371,2.7609,2.7885,2.8165,0.0,0.0,2.7058,2.8408,2.6986,2.709,2.7623,2.7139,2.6439,2.5715,2.52,2.5164,0.0,2.5808,2.6209,2.6877,2.8145,2.9042,2.9762,3.0284,3.0835,3.123,3.1293,3.1332,3.1475,3.181,3.2327,3.2826,3.3264,3.4285,3.5272,3.5998,3.6839,3.7387,3.7484,3.8417,3.9053,3.9144,3.9328,3.9627,4.0083,4.0429,4.0671,4.0818,4.1386,4.152,4.1146,4.1277,4.1317,4.1209,4.0949,4.0626,4.0215,3.9961,3.9649,3.9299,3.9441,3.9491,3.9504,3.9661,3.9982,4.0456,4.0843,4.1311,4.1781,4.1781,4.2012,4.2356,0.0,0.0,0.0,0.0,0.0,0.0,0.0,0.0,0.0,0.0,0.0,0.0,0.0,0.0,0.0,0.0,0.0,0.0,0.0,2.3597,2.5022,2.506,2.7399,2.8718,2.8737,3.0332,3.117,3.117,3.1966,3.2364,3.2364,3.2488,3.2533,3.2571,3.3454,3.3337,3.2514,3.3157,3.2883,3.1958,3.0918,3.0002,2.9157,2.8344,2.75,2.684,2.7622,0.0,0.0,0.0,2.7039,2.7589,2.6686,2.6903,0.0,2.5479,2.4694,2.4349,2.4265,2.5073,2.6074,2.6546,2.7782,2.9102,2.9871,3.0598,3.1149,3.1157,3.1183,3.123,3.1293,3.1406,3.1775,3.2627,3.2827,3.3411,3.4921,3.5163,3.5463,3.6204,3.6991,3.7419,0.0,3.8002,3.8518,3.8534,3.8825,3.9195,3.9597,4.0235,4.0601,4.0601,4.1445,4.1607,4.1013,4.1835,4.1895,4.122,4.1906,4.1727,4.0766,4.0228,3.9744,3.9325,3.9782,3.9978,4.0015,4.0551,4.103,4.145,4.1472,4.1885,4.2473,4.2473,4.2473,4.2503,0.0,0.0,0.0,0.0,0.0,0.0,0.0,0.0,0.0,0.0,0.0,0.0,0.0,0.0,0.0,0.0,0.0,0.0,0.0,2.1931,2.3183,2.4927,2.5796,2.6763,2.7881,2.8453,2.8757,2.8757,2.9541,3.0235,3.0818,3.1427,3.2013,3.2562,3.273,3.2683,3.2477,3.2475,3.2313,3.1929,3.0334,2.9497,2.9041,2.7656,2.6596,2.5864,0.0,0.0,0.0,0.0,2.6955,2.8189,2.6833,2.6447,2.6243,2.495,2.4308,2.4357,2.5854,2.6361,2.6867,2.8536,2.9347,2.9922,3.0666,3.1021,3.122,3.1271,3.1264,3.1312,3.1475,3.197,3.2473,3.2819,3.3746,3.4621,3.5138,3.5611,3.6025,3.6266,3.6696,0.0,0.0,0.0,0.0,3.8933,3.9314,3.9817,4.0499,4.1122,4.1389,4.1277,4.1842,4.198,4.1607,4.2072,4.2184,4.1917,4.1813,4.1644,4.1372,4.0844,4.0554,4.0494,4.0662,4.0685,4.0614,4.0885,4.1247,4.1644,4.1731,4.2078,4.2578,4.2675,4.2704,4.2694,0.0,0.0,0.0,0.0,0.0,0.0,0.0,0.0,0.0,0.0,0.0,0.0,0.0,0.0,0.0,0.0,0.0,0.0,0.0,0.0,2.189,2.3578,2.4226,2.5193,2.658,2.6884,2.7194,2.7509,2.801,2.8579,2.9152,2.9718,3.027,3.0818,3.0953,3.0882,3.0644,3.0668,3.0519,3.0131,2.8895,2.8207,2.7782,2.6682,2.5729,0.0,0.0,0.0,0.0,2.6044,2.7121,2.8506,2.6781,2.5763,2.5155,2.4614,2.4687,2.5299,2.6957,2.7662,2.8264,2.9726,3.0301,3.0615,3.1089,3.12,3.123,3.1293,3.1295,3.1344,3.153,3.2008,3.2563,3.3163,3.4125,3.5021,3.5655,3.6149,3.6475,3.653,3.6708,3.6836,0.0,0.0,0.0,3.8563,3.9077,3.9726,4.0539,4.117,4.1577,4.1708,4.2082,4.2225,4.2051,4.2207,4.2318,4.2366,4.203,4.1824,4.1763,4.1404,4.1207,4.111,4.1297,4.1348,4.1292,4.1536,4.1782,4.2036,4.212,4.2353,4.2668,4.2764,4.2822,4.2823,0.0,0.0,0.0,0.0,0.0,0.0,0.0,0.0,0.0,0.0,0.0,0.0,0.0,0.0,0.0,0.0,0.0,0.0,0.0,0.0,0.0,2.1198,2.2722,2.3976,2.4848,2.5629,2.6424,2.723,2.7234,2.7309,2.742,2.7403,2.7423,2.7519,2.8195,2.7998,2.7215,2.7887,2.7639,2.6827,2.6755,2.6287,2.5574,2.5465,0.0,0.0,0.0,0.0,0.0,0.0,2.75,2.8409,2.6525,2.5043,2.4092,2.4584,2.5729,2.6957,2.7577,2.8887,3.0115,3.0149,3.0683,3.121,3.121,3.121,3.1239,3.1303,3.1315,3.1361,0.0,0.0,3.2176,3.3679,3.4064,3.4782,3.6483,3.6722,3.6786,0.0,0.0,0.0,0.0,0.0,0.0,3.7505,0.0,3.8963,3.9747,4.0447,4.1141,4.1846,4.2138,4.2297,4.2308,4.2308,4.2377,4.2503,4.2503,4.2315,4.1952,4.1952,4.1663,4.1223,4.1728,4.1945,4.1984,4.2442,4.2619,4.2609,4.2619,4.2688,4.2803,4.2803,4.2852,4.2901,0.0,0.0,0.0,0.0,0.0,0.0,0.0,0.0,0.0,0.0,0.0,0.0,0.0,0.0,0.0,0.0,0.0,0.0,0.0,0.0,0.0,0.0,0.0,0.0,0.0,0.0,0.0,0.0,0.0,2.4119,2.4775,2.4812,2.5188,0.0,2.575,2.5616,2.5476,2.5991,2.6097,2.5922,0.0,2.571,2.5448,0.0,0.0,0.0,0.0,0.0,0.0,0.0,0.0,0.0,2.6706,2.5908,2.5483,2.6366,2.6845,2.7446,2.9093,2.981,3.0234,3.0784,3.1097,3.1274,3.1274,3.1349,3.1443,3.1504,3.1523,3.156,0.0,0.0,0.0,3.4108,3.4896,0.0,3.6768,3.6918,0.0,3.698,0.0,3.7239,3.7305,3.7438,0.0,0.0,3.8298,3.9077,3.9838,4.061,4.1118,4.1304,4.1945,4.2356,4.2463,4.2508,4.254,4.256,4.256,4.257,4.258,4.258,4.2524,4.245,4.2595,4.2613,4.2571,4.2757,4.2786,4.2754,4.2796,4.2843,4.2881,4.2984,4.3021,4.3058,0.0,0.0,0.0,0.0,0.0,0.0,0.0,0.0,0.0,0.0,0.0,0.0,0.0,0.0,0.0,0.0,0.0,0.0,0.0,0.0,0.0,0.0,0.0,0.0,0.0,0.0,0.0,0.0,0.0,0.0,0.0,2.3312,2.3588,2.405,2.3735,2.3844,2.4242,0.0,0.0,0.0,0.0,0.0,0.0,0.0,0.0,0.0,0.0,0.0,0.0,0.0,0.0,2.6398,2.6215,2.6326,2.6634,2.7288,0.0,2.8938,3.0034,3.0445,3.0693,3.1131,3.1252,3.1274,3.1368,3.1397,3.1454,3.157,3.1598,0.0,3.1781,0.0,0.0,0.0,0.0,0.0,3.6471,3.6922,3.7172,0.0,3.7354,0.0,3.7438,3.7522,3.7595,0.0,3.8014,3.8611,3.9387,3.9851,4.0396,4.1074,4.1598,4.2079,4.2528,4.257,4.2629,4.2678,4.2678,4.2736,4.2842,4.2842,4.2899,4.2984,0.0,4.2975,4.2975,4.3013,4.3003,4.2975,4.3013,4.3041,4.3041,4.3123,4.3242,4.3375,0.0,0.0,0.0,0.0,0.0,0.0,0.0,0.0,0.0,0.0,0.0,0.0,0.0,0.0,0.0,0.0,0.0,0.0,0.0,0.0,0.0,0.0,0.0,0.0,0.0,0.0,0.0,0.0,0.0,0.0,0.0,0.0,0.0,0.0,0.0,0.0,0.0,0.0,0.0,0.0,0.0,0.0,0.0,0.0,0.0,0.0,0.0,0.0,0.0,0.0,2.4758,2.5477,2.5674,2.6648,2.7754,2.7935,2.9251,3.0655,3.0615,3.0878,3.122,3.1274,3.1261,3.1295,3.146,3.1426,3.1428,3.1589,0.0,3.1681,3.1801,3.1992,3.2379,3.3147,0.0,3.5089,3.6004,3.6829,3.74,3.7585,3.7595,3.7595,3.7595,3.7595,3.7595,3.7604,3.7604,3.7925,3.8621,3.8773,3.956,4.1096,4.1268,4.1742,4.2619,4.2639,4.2697,4.2812,4.2812,4.2842,4.2892,4.2892,4.2975,4.3095,0.0,0.0,4.3205,4.3205,4.3223,4.3268,4.3268,4.3295,4.333,4.3339,4.3536,4.378,0.0,0.0,0.0,0.0,0.0,0.0,0.0,0.0,0.0,0.0,0.0,0.0,0.0,0.0,0.0,0.0,0.0,0.0,0.0,0.0,0.0,0.0,0.0,0.0,0.0,0.0,0.0,0.0,0.0,0.0,0.0,0.0,0.0,0.0,0.0,0.0,0.0,0.0,0.0,0.0,0.0,0.0,0.0,0.0,0.0,0.0,0.0,0.0,0.0,0.0,2.5347,2.6654,2.6474,2.7795,2.9398,2.9479,3.0237,3.102,3.1069,3.1138,3.12,3.122,3.1327,3.146,3.1498,3.1614,0.0,0.0,3.1772,3.1819,3.201,3.2161,3.2581,3.3547,3.4499,3.5402,3.6239,0.0,3.7549,0.0,0.0,0.0,0.0,0.0,0.0,0.0,0.0,0.0,3.7873,3.8627,3.9749,4.1311,4.148,4.1933,4.2764,4.2815,4.2862,4.2881,4.2881,4.2891,4.2892,4.2892,4.2975,4.3095,0.0,0.0,4.3205,4.3205,4.3365,4.361,4.361,4.3746,4.3952,4.4065,4.4151,4.4202,0.0,0.0,0.0,0.0,0.0,0.0,0.0,0.0,0.0,0.0,0.0,0.0,0.0,0.0,0.0,0.0,0.0,0.0,0.0,0.0,0.0,0.0,0.0,0.0,0.0,0.0,0.0,0.0,0.0,0.0,0.0,0.0,0.0,0.0,0.0,0.0,0.0,0.0,0.0,0.0,0.0,0.0,0.0,0.0,0.0,0.0,0.0,0.0,0.0,0.0,2.5057,2.6445,2.6593,2.8029,2.9723,3.01,3.0626,3.1149,3.1394,3.1339,3.121,3.1242,3.1308,3.1375,3.1528,0.0,0.0,0.0,3.1874,3.2019,3.2214,3.2488,0.0,3.3309,3.417,3.5025,3.5685,3.647,0.0,0.0,0.0,0.0,0.0,0.0,0.0,0.0,0.0,0.0,3.781,3.8627,3.9454,4.0238,4.1123,4.1801,4.2228,4.2664,4.2892,4.2892,4.2892,4.2938,4.3003,4.3003,4.3095,4.326,0.0,0.0,4.3614,4.3614,4.3791,4.4057,4.4057,4.4128,4.4266,4.432,4.4431,4.4559,0.0,0.0,0.0,0.0,0.0,0.0,0.0,0.0,2.0171,2.0126,2.011,2.0076,2.0038,2.0001,0.0,0.0,0.0,0.0,0.0,0.0,0.0,0.0,0.0,0.0,0.0,0.0,0.0,0.0,0.0,0.0,0.0,0.0,0.0,0.0,0.0,0.0,0.0,0.0,0.0,0.0,0.0,0.0,0.0,0.0,0.0,0.0,0.0,0.0,0.0,0.0,2.4792,2.6093,2.6597,2.8057,2.9656,3.0101,3.0596,3.1038,3.1355,3.1137,3.0849,3.1002,3.0915,3.0825,3.1043,3.1135,0.0,3.1282,3.1542,3.1845,3.2154,3.2541,3.2878,0.0,3.3834,3.4613,3.5198,3.5934,3.6693,0.0,0.0,0.0,0.0,0.0,0.0,0.0,0.0,0.0,0.0,3.8554,3.912,3.9576,4.0808,4.1706,4.2177,4.2796,4.3114,4.3142,4.3142,4.3205,4.3303,4.3303,4.3418,4.3582,0.0,0.0,0.0,4.4094,4.4243,4.4479,4.4479,4.4519,4.4591,4.4591,4.4726,4.4916,0.0,0.0,0.0,0.0,0.0,0.0,0.0,0.0,2.0196,2.019,2.0143,2.0107,2.0083,2.004,0.0,0.0,0.0,0.0,0.0,0.0,0.0,0.0,0.0,0.0,0.0,0.0,0.0,0.0,0.0,0.0,0.0,0.0,0.0,0.0,0.0,0.0,0.0,0.0,0.0,0.0,0.0,0.0,0.0,0.0,0.0,0.0,0.0,0.0,0.0,0.0,0.0,2.6436,2.684,2.8251,2.971,2.9476,0.0,0.0,3.0595,3.0099,2.9676,3.0108,2.9781,2.9389,2.9416,0.0,3.0067,2.9773,3.0219,3.0843,3.1465,3.1909,3.2473,0.0,0.0,3.4668,3.5445,3.6046,3.6693,3.7496,0.0,0.0,0.0,0.0,0.0,0.0,0.0,0.0,0.0,3.8229,3.9069,4.0785,4.0977,4.1914,4.368,4.3773,4.3831,4.389,4.389,4.3929,4.4013,4.4013,4.4084,4.421,0.0,0.0,0.0,4.4367,4.4519,4.4757,4.4757,4.4946,4.5219,4.5219,4.5235,4.5251,0.0,0.0,0.0,0.0,0.0,0.0,0.0,0.0,2.1744,2.1711,2.1687,2.1478,2.0948,2.0817,0.0,0.0,0.0,0.0,0.0,0.0,0.0,0.0,0.0,0.0,0.0,0.0,0.0,0.0,0.0,0.0,0.0,0.0,0.0,0.0,0.0,0.0,0.0,0.0,0.0,0.0,0.0,0.0,0.0,0.0,0.0,0.0,0.0,0.0,0.0,0.0,0.0,0.0,2.6386,2.7393,0.0,0.0,2.9672,2.9883,3.0376,2.9959,2.9455,2.9728,2.9592,2.942,2.9531,0.0,3.0108,3.0055,3.0341,3.0894,3.1812,3.2205,3.27,0.0,0.0,0.0,3.5682,3.6009,3.664,0.0,0.0,0.0,0.0,0.0,0.0,0.0,0.0,0.0,0.0,3.8677,3.9261,4.0537,4.1047,4.1923,4.3177,4.3698,4.3971,4.4009,4.4043,4.4128,4.4227,4.4227,4.427,4.4367,0.0,0.0,0.0,4.4637,4.4819,4.5104,4.5104,4.5184,4.5302,4.5302,4.5302,4.5302,0.0,0.0,0.0,0.0,0.0,0.0,2.2804,2.2774,2.2753,2.2709,2.2675,2.2435,2.1827,2.1709,2.1348,2.0491,0.0,0.0,0.0,0.0,0.0,0.0,0.0,0.0,0.0,0.0,0.0,0.0,0.0,0.0,0.0,0.0,0.0,0.0,0.0,0.0,0.0,0.0,0.0,0.0,0.0,0.0,0.0,0.0,0.0,0.0,0.0,0.0,0.0,0.0,0.0,0.0,0.0,0.0,0.0,0.0,2.9287,2.9254,2.9954,2.9593,2.9056,2.921,2.9137,2.9051,0.0,0.0,2.9729,2.9725,2.9996,3.0509,3.1452,3.2,3.263,0.0,0.0,3.4412,3.5883,3.6039,3.6603,0.0,0.0,0.0,0.0,0.0,0.0,0.0,0.0,0.0,0.0,3.9518,3.9996,4.0775,4.1358,4.2209,4.3376,4.3992,4.4315,4.4357,4.4394,4.4499,4.461,4.461,4.4617,0.0,0.0,0.0,0.0,4.4946,4.5093,4.5302,4.5302,4.5302,4.5307,4.5323,4.5328,4.5328,0.0,0.0,0.0,0.0,0.0,0.0,0.0,0.0,2.2693,2.2707,2.2638,2.2601,2.2581,2.2581,2.2259,2.1464,0.0,0.0,0.0,0.0,0.0,0.0,0.0,0.0,0.0,0.0,0.0,0.0,0.0,0.0,0.0,0.0,0.0,0.0,0.0,0.0,0.0,0.0,0.0,0.0,0.0,0.0,0.0,0.0,0.0,0.0,0.0,0.0,0.0,0.0,0.0,0.0,0.0,2.6217,2.7568,0.0,2.8611,2.8704,2.9183,2.8727,2.8152,2.836,2.8154,2.7876,0.0,0.0,2.8531,2.8181,2.8651,2.929,2.9917,3.0943,3.1986,3.2872,3.3512,0.0,3.6071,3.6124,0.0,0.0,0.0,0.0,0.0,0.0,0.0,0.0,0.0,0.0,0.0,0.0,4.1425,4.1963,4.1994,4.2945,4.496,4.4985,4.5068,4.5186,4.5186,4.5219,4.5297,4.5297,0.0,0.0,0.0,0.0,0.0,4.5297,4.5302,4.5302,4.5302,4.5302,4.5307,4.5364,4.5403,4.5394,0.0,0.0,0.0,0.0,0.0,0.0,0.0,0.0,2.4418,2.441,2.44,2.4154,2.3556,2.3496,2.3146,2.229,0.0,0.0,0.0,0.0,0.0,0.0,0.0,0.0,0.0,0.0,0.0,0.0,0.0,0.0,0.0,0.0,0.0,0.0,0.0,0.0,0.0,0.0,0.0,0.0,0.0,0.0,0.0,0.0,0.0,0.0,0.0,0.0,0.0,0.0,0.0,0.0,0.0,0.0,0.0,2.7532,2.8165,2.8629,2.8784,2.847,2.8146,2.828,2.8219,2.8127,2.8203,2.8519,2.8791,2.8725,2.8875,2.9278,3.0068,3.0961,3.1868,3.2783,3.3543,0.0,0.0,0.0,0.0,0.0,0.0,0.0,0.0,0.0,0.0,0.0,0.0,0.0,0.0,0.0,4.152,4.2244,4.2897,4.3802,4.4991,4.5097,4.5159,4.5197,4.5254,4.5286,4.5302,4.5302,0.0,0.0,0.0,0.0,0.0,4.5456,4.5481,4.5448,4.5584,4.5638,4.5642,4.5672,4.5676,4.5679,0.0,0.0,0.0,0.0,0.0,0.0,0.0,0.0,2.5204,2.5195,2.5203,2.4998,2.4459,2.4399,0.0,2.3168,0.0,0.0,0.0,0.0,0.0,0.0,0.0,0.0,0.0,0.0,0.0,0.0,0.0,0.0,0.0,0.0,0.0,0.0,0.0,0.0,0.0,0.0,0.0,0.0,0.0,0.0,2.4099,0.0,0.0,0.0,0.0,0.0,0.0,0.0,0.0,0.0,0.0,0.0,0.0,0.0,2.7749,2.86,2.86,2.8442,2.8293,2.8289,2.8357,0.0,0.0,2.8737,2.8946,2.8994,2.8999,2.9267,3.0133,3.0984,3.185,3.2753,3.3864,0.0,0.0,0.0,0.0,0.0,0.0,0.0,0.0,0.0,0.0,0.0,0.0,0.0,0.0,0.0,4.2027,4.256,4.3381,4.4216,4.5061,4.5159,4.5232,4.5316,4.5351,4.541,4.5442,0.0,0.0,0.0,0.0,0.0,0.0,4.5615,4.5644,4.5633,4.5751,4.5792,4.5792,4.5826,4.5849,4.5832,0.0,0.0,0.0,0.0,0.0,0.0,0.0,0.0,0.0,0.0,0.0,2.5191,2.5191,2.5191,0.0,0.0,0.0,0.0,0.0,0.0,0.0,0.0,0.0,0.0,0.0,0.0,0.0,0.0,1.9705,1.9563,1.9403,0.0,0.0,0.0,0.0,0.0,0.0,0.0,0.0,0.0,0.0,0.0,0.0,0.0,0.0,0.0,0.0,0.0,0.0,0.0,0.0,0.0,0.0,0.0,0.0,0.0,0.0,0.0,0.0,2.8606,2.8562,2.838,2.8574,0.0,0.0,2.8773,0.0,2.8999,2.8999,2.9267,3.0133,3.1014,3.1873,3.2759,3.4365,0.0,0.0,0.0,0.0,0.0,0.0,0.0,0.0,0.0,0.0,0.0,0.0,0.0,0.0,0.0,0.0,4.2913,4.352,4.4298,4.5227,4.5232,4.5322,4.5511,4.5511,4.5583,4.571,0.0,0.0,0.0,0.0,0.0,0.0,4.5826,4.581,4.5829,4.5822,4.5844,4.585,4.5917,4.5925,4.593,0.0,0.0,0.0,0.0,0.0,0.0,0.0,0.0,0.0,0.0,0.0,0.0,0.0,0.0,0.0,0.0,0.0,0.0,0.0,0.0,0.0,0.0,0.0,0.0,0.0,0.0,0.0,1.9713,2.0151,2.0316,2.0236,2.102,0.0,0.0,0.0,0.0,0.0,0.0,0.0,0.0,0.0,0.0,0.0,0.0,0.0,0.0,2.4016,2.3981,0.0,0.0,0.0,0.0,0.0,0.0,0.0,0.0,2.7345,2.8606,2.8651,0.0,2.8675,2.8613,2.8706,2.8798,0.0,0.0,0.0,0.0,0.0,2.9267,3.0133,3.0979,3.1838,3.2753,3.4328,3.5725,0.0,0.0,0.0,0.0,0.0,0.0,0.0,0.0,0.0,0.0,0.0,0.0,0.0,0.0,0.0,4.3021,4.3836,4.4655,4.5489,4.5564,4.5604,4.5653,4.5653,4.5708,4.5786,0.0,0.0,0.0,0.0,0.0,0.0,4.5973,4.6009,4.5962,4.6117,4.618,4.6181,4.6203,4.6205,4.6205,0.0,0.0,0.0,0.0,0.0,0.0,0.0,0.0,0.0,0.0,0.0,0.0,0.0,0.0,0.0,0.0,0.0,0.0,0.0,0.0,0.0,0.0,0.0,0.0,0.0,0.0,0.0,0.0,0.0,2.109,0.0,0.0,0.0,0.0,0.0,0.0,0.0,0.0,0.0,0.0,2.4049,0.0,0.0,0.0,0.0,0.0,2.3927,2.3907,0.0,2.3821,2.38,2.3878,0.0,0.0,0.0,0.0,2.7707,2.8693,2.8694,2.8694,2.8718,2.8749,2.8804,2.8858,2.8899,0.0,0.0,0.0,0.0,2.9417,3.0623,3.1266,3.212,3.3784,3.5137,0.0,0.0,0.0,0.0,0.0,0.0,0.0,0.0,0.0,0.0,0.0,0.0,0.0,0.0,0.0,0.0,0.0,4.4159,4.4952,4.5636,4.5677,4.5741,4.5844,4.5837,4.5883,4.5988,0.0,0.0,0.0,0.0,0.0,4.6043,4.6144,4.618,4.6156,4.625,4.6301,4.6301,4.6301,4.6301,4.6301,0.0,0.0,0.0,0.0,0.0,0.0,0.0,0.0,0.0,0.0,0.0,0.0,0.0,0.0,0.0,0.0,0.0,0.0,0.0,0.0,0.0,0.0,0.0,0.0,0.0,0.0,0.0,0.0,0.0,0.0,0.0,0.0,0.0,0.0,0.0,0.0,0.0,0.0,0.0,0.0,2.4011,0.0,0.0,0.0,0.0,0.0,0.0,0.0,0.0,2.3827,2.3917,2.414,2.4872,0.0,0.0,0.0,0.0,0.0,2.8737,2.8725,2.8737,2.8804,2.887,2.8917,2.8917,0.0,0.0,0.0,0.0,0.0,3.1283,3.1749,0.0,0.0,0.0,0.0,0.0,0.0,0.0,0.0,0.0,0.0,0.0,0.0,0.0,0.0,0.0,0.0,0.0,0.0,0.0,0.0,4.4428,4.5175,4.5774,4.5774,4.5852,4.6032,4.6034,4.6107,4.6212,4.6224,0.0,0.0,0.0,0.0,4.6301,4.6301,4.6301,4.6301,4.6301,4.6301,4.6301,4.6301,4.6301,4.6301,0.0,0.0,0.0,0.0,0.0,0.0,0.0,0.0,0.0,0.0,0.0,0.0,0.0,0.0,0.0,0.0,0.0,0.0,0.0,0.0,0.0,0.0,0.0,0.0,0.0,0.0,0.0,0.0,0.0,0.0,2.2693,2.3394,2.3748,0.0,0.0,0.0,0.0,2.3917,2.3891,2.3865,2.3966,0.0,0.0,0.0,0.0,0.0,0.0,0.0,0.0,2.3991,2.4426,2.5004,2.5142,0.0,0.0,0.0,0.0,0.0,2.8864,2.8875,2.8863,2.8887,2.8929,2.8969,2.8969,0.0,0.0,0.0,0.0,0.0,0.0,3.2367,3.3424,0.0,0.0,0.0,0.0,0.0,0.0,0.0,0.0,0.0,0.0,0.0,0.0,0.0,0.0,0.0,0.0,0.0,0.0,0.0,0.0,4.5291,4.6123,4.6123,4.6137,4.6165,4.6167,4.6209,4.6279,4.6282,4.6288,0.0,0.0,0.0,4.6301,4.6301,4.6301,4.6301,4.6301,4.6301,4.6301,4.6301,4.6301,4.6301,0.0,0.0,0.0,0.0,0.0,0.0,0.0,0.0,0.0,0.0,0.0,0.0,0.0,0.0,0.0,0.0,0.0,0.0,0.0,0.0,0.0,0.0,0.0,0.0,0.0,0.0,0.0,0.0,0.0,2.3403,2.3394,2.3694,2.3853,2.3896,0.0,0.0,2.3942,2.3917,2.3922,2.3952,0.0,0.0,0.0,0.0,0.0,0.0,0.0,0.0,0.0,0.0,2.5181,2.591,2.6361,0.0,0.0,0.0,0.0,0.0,2.9019,2.9009,2.9015,2.922,2.9171,2.9038,0.0,0.0,0.0,0.0,0.0,0.0,0.0,0.0,0.0,0.0,0.0,0.0,0.0,0.0,0.0,0.0,0.0,0.0,0.0,0.0,0.0,0.0,0.0,0.0,0.0,0.0,0.0,0.0,0.0,0.0,4.6193,4.6193,4.6196,4.6204,4.6194,4.6248,4.6305,4.6291,4.6296,0.0,0.0,4.6301,4.6301,4.6301,4.6301,4.6301,4.6301,4.6301,4.6301,4.6301,4.6301,4.6301,0.0,0.0,0.0,0.0,0.0,0.0,0.0,0.0,0.0,0.0,0.0,0.0,0.0,0.0,0.0,0.0,0.0,0.0,0.0,0.0,0.0,0.0,0.0,0.0,0.0,0.0,0.0,2.4053,2.3988,2.3907,2.3821,2.3821,2.3827,0.0,0.0,0.0,2.3996,2.3955,2.3986,2.4074,0.0,0.0,0.0,0.0,0.0,0.0,0.0,0.0,0.0,0.0,0.0,0.0,0.0,0.0,0.0,2.8692,2.8928,2.9031,2.9236,2.9222,2.923,2.9542,2.9348,0.0,0.0,0.0,0.0,0.0,0.0,0.0,0.0,0.0,0.0,0.0,0.0,0.0,0.0,0.0,0.0,0.0,0.0,0.0,0.0,0.0,0.0,0.0,0.0,0.0,0.0,0.0,0.0,0.0,0.0,0.0,4.6185,4.6204,4.6209,4.6216,4.6227,4.6258,4.6309,4.6297,4.6301,4.6301,4.6301,4.6301,4.6301,4.6301,4.6301,4.6301,4.6301,4.6301,4.6301,4.6301,4.6301,4.6301,0.0,0.0,0.0,0.0,0.0,0.0,0.0,0.0,0.0,0.0,0.0,0.0,0.0,0.0,0.0,0.0,0.0,0.0,0.0,0.0,0.0,0.0,0.0,0.0,0.0,2.4595,2.4455,2.4543,2.4058,2.3837,2.3896,2.3896,2.3922,2.3991,0.0,2.3991,2.4001,2.3996,2.4001,2.4011,2.4074,0.0,0.0,0.0,0.0,0.0,0.0,0.0,0.0,0.0,0.0,0.0,0.0,0.0,2.8855,2.9106,2.9172,2.9241,2.9508,2.957,2.958,2.9662,2.9348,0.0,2.9486,2.9476,0.0,3.0817,0.0,0.0,0.0,0.0,0.0,0.0,0.0,0.0,0.0,0.0,0.0,0.0,0.0,0.0,0.0,0.0,0.0,0.0,0.0,0.0,0.0,0.0,0.0,0.0,0.0,0.0,4.6204,4.6204,4.6238,4.6283,4.6283,4.6309,4.63,4.63,4.6301,4.6301,4.6301,4.6301,4.6301,4.6301,4.6301,4.6301,4.6301,4.6301,4.6301,4.6301,4.6301,4.6301,0.0,0.0,0.0,0.0,0.0,0.0,0.0,0.0,0.0,0.0,0.0,0.0,0.0,0.0,0.0,0.0,0.0,0.0,0.0,0.0,0.0,0.0,0.0,2.5063,2.4884,2.4689,2.4526,2.4407,2.4083,2.3932,2.3952,2.3952,0.0,0.0,0.0,2.4016,2.4069,2.4069,2.4089,2.4173,2.4692,2.4904,0.0,0.0,0.0,0.0,0.0,0.0,0.0,0.0,2.7879,2.8546,2.8518,2.8691,2.8945,2.9182,2.923,2.9293,2.9681,2.9739,2.9716,2.995,3.0137,0.0,0.0,3.0486,3.0887,3.2346,3.3044,0.0,0.0,0.0,0.0,0.0,0.0,0.0,0.0,0.0,0.0,0.0,0.0,0.0,0.0,0.0,0.0,0.0,0.0,0.0,0.0,0.0,0.0,0.0,0.0,0.0,0.0,4.6246,4.6279,4.6295,4.6308,4.629,4.6301,4.6301,4.6301,4.6301,4.6301,4.6301,4.6301,4.6301,4.6301,4.6301,4.6301,4.6301,4.6301,4.6301,4.6301,4.6301,0.0,0.0,0.0,0.0,0.0,0.0,0.0,0.0,0.0,0.0,0.0,0.0,0.0,0.0,0.0,0.0,0.0,0.0,0.0,0.0,0.0,0.0,0.0,2.5076,2.4927,2.4772,2.4582,2.4324,2.4125,2.4026,2.4026,0.0,0.0,0.0,0.0,2.4089,2.416,2.4398,2.456,2.4678,2.5496,2.5809,0.0,0.0,0.0,0.0,0.0,0.0,0.0,0.0,2.8534,2.9011,2.9055,2.9031,2.9058,2.9362,2.9441,2.9509,2.9886,2.9949,2.9938,3.0178,0.0,0.0,3.1599,3.1613,3.2004,3.3472,3.4362,0.0,0.0,0.0,0.0,0.0,0.0,0.0,0.0,0.0,0.0,0.0,0.0,0.0,0.0,0.0,0.0,0.0,0.0,0.0,0.0,0.0,0.0,0.0,0.0,0.0,0.0,4.6281,4.629,4.6301,4.6293,4.6294,4.6301,4.6301,4.6301,4.6301,4.6301,4.6301,4.6301,4.6301,4.6301,4.6301,4.6301,4.6301,4.6301,4.6301,4.6301,4.6301,0.0,0.0,0.0,0.0,0.0,0.0,0.0,0.0,0.0,0.0,0.0,0.0,0.0,0.0,0.0,0.0,0.0,0.0,0.0,0.0,0.0,0.0,0.0,2.5191,2.5207,2.487,2.4596,2.4398,2.4195,2.4099,2.4099,2.4099,0.0,0.0,0.0,2.4213,2.4268,2.5062,2.5446,2.5583,2.6398,2.6711,2.6803,0.0,0.0,0.0,0.0,0.0,0.0,0.0,2.9005,2.9021,2.9168,2.9204,2.9275,2.9674,2.9842,2.9942,3.0147,3.0241,3.0299,0.0,0.0,0.0,3.2712,3.2767,3.2913,3.4004,0.0,3.7334,0.0,0.0,0.0,0.0,0.0,0.0,0.0,0.0,0.0,0.0,0.0,0.0,0.0,0.0,0.0,0.0,0.0,0.0,0.0,0.0,0.0,0.0,0.0,0.0,0.0,4.6305,4.629,4.6301,4.6301,4.6301,4.6301,4.6301,4.6301,4.6301,4.6301,4.6301,4.6301,4.6301,4.6301,4.6301,4.6301,4.6301,4.6301,4.6301,4.6301,4.6301,0.0,0.0,0.0,0.0,0.0,0.0,0.0,0.0,0.0,0.0,0.0,0.0,0.0,0.0,0.0,0.0,0.0,0.0,0.0,0.0,0.0,0.0,0.0,0.0,0.0,0.0,2.4413,2.4256,2.4199,2.417,0.0,0.0,0.0,2.4226,0.0,0.0,0.0,0.0,2.6256,2.6345,2.7196,2.7543,2.764,0.0,0.0,0.0,0.0,0.0,0.0,0.0,0.0,0.0,2.9474,2.947,2.9533,2.9794,2.988,2.9958,3.0207,3.0283,0.0,3.1056,0.0,0.0,0.0,3.3763,0.0,0.0,0.0,0.0,0.0,0.0,0.0,0.0,0.0,0.0,0.0,0.0,0.0,0.0,0.0,0.0,0.0,0.0,0.0,0.0,0.0,0.0,0.0,0.0,0.0,0.0,0.0,0.0,0.0,0.0,4.6271,4.6228,4.6228,4.6242,4.6301,4.6301,4.6301,4.6301,4.6301,4.6301,4.6301,4.6301,4.6301,4.6301,4.6301,4.6301,4.6301,4.6301,4.6301,4.6301,0.0,0.0,0.0,0.0,0.0,0.0,0.0,0.0,0.0,0.0,2.5191,2.5191,0.0,0.0,0.0,0.0,0.0,0.0,0.0,0.0,0.0,0.0,0.0,0.0,0.0,2.4704,2.4487,0.0,0.0,0.0,0.0,0.0,0.0,2.4708,0.0,2.588,0.0,0.0,2.7187,2.7347,2.8131,2.8529,2.87,0.0,0.0,0.0,0.0,0.0,0.0,0.0,0.0,0.0,2.9706,2.9728,2.9767,2.9966,3.0044,3.0102,3.0299,3.0336,0.0,3.146,3.234,3.3311,3.4487,0.0,0.0,0.0,0.0,0.0,0.0,0.0,0.0,0.0,0.0,0.0,0.0,0.0,0.0,0.0,0.0,0.0,0.0,0.0,0.0,0.0,0.0,0.0,0.0,0.0,0.0,0.0,0.0,0.0,0.0,0.0,0.0,4.6191,4.6209,4.6229,4.6268,4.6263,4.6259,4.6259,4.6287,4.6301,4.6301,4.6301,4.6301,4.6301,4.6301,4.6301,4.6301,4.6301,4.6301,4.6301,0.0,0.0,0.0,0.0,0.0,0.0,0.0,0.0,0.0,0.0,2.5191,2.5191,0.0,0.0,0.0,0.0,0.0,0.0,0.0,0.0,0.0,0.0,0.0,0.0,0.0,0.0,0.0,0.0,0.0,0.0,0.0,0.0,2.5508,2.555,0.0,2.6757,0.0,2.7696,2.8186,2.8442,2.9064,2.9498,2.9744,2.9579,0.0,0.0,0.0,0.0,0.0,0.0,0.0,0.0,2.9907,2.9935,2.9966,3.0164,3.0254,3.0313,3.0382,3.0468,0.0,3.1673,3.259,0.0,3.5333,3.6403,3.7255,0.0,0.0,0.0,0.0,0.0,0.0,0.0,0.0,0.0,0.0,0.0,0.0,0.0,0.0,0.0,0.0,0.0,0.0,0.0,0.0,0.0,0.0,0.0,0.0,0.0,0.0,0.0,0.0,0.0,0.0,0.0,4.6194,4.6196,4.6174,4.6186,4.6191,4.6191,4.6276,4.6302,4.6285,4.6302,4.6301,4.6301,4.6301,4.6301,4.6301,4.6301,4.6301,4.6301,0.0,0.0,0.0,0.0,0.0,0.0,0.0,0.0,0.0,0.0,0.0,0.0,0.0,0.0,0.0,0.0,0.0,0.0,0.0,0.0,0.0,0.0,0.0,0.0,0.0,0.0,0.0,0.0,0.0,0.0,0.0,0.0,0.0,2.6456,0.0,2.7727,2.7927,2.8737,2.9112,2.9175,2.9381,2.9509,2.9565,2.9575,2.9688,0.0,0.0,0.0,0.0,0.0,0.0,0.0,3.0204,3.0214,3.0227,3.0267,3.0295,3.0319,3.0372,3.0893,0.0,0.0,3.3898,3.5311,3.6374,3.7334,3.8048,0.0,0.0,0.0,0.0,0.0,0.0,0.0,0.0,0.0,0.0,0.0,0.0,0.0,0.0,0.0,0.0,0.0,0.0,0.0,0.0,0.0,0.0,0.0,0.0,0.0,0.0,0.0,4.6301,4.6227,4.6209,0.0,4.6151,4.6093,4.6052,4.6142,4.6194,4.6196,4.6263,4.6276,4.6229,4.6272,4.6301,4.6301,4.6301,4.6301,4.6301,4.6301,4.6301,4.6301,0.0,0.0,0.0,0.0,0.0,0.0,0.0,0.0,0.0,0.0,0.0,0.0,0.0,0.0,0.0,0.0,0.0,0.0,0.0,0.0,0.0,0.0,0.0,0.0,0.0,0.0,0.0,0.0,0.0,0.0,0.0,0.0,0.0,2.7401,0.0,2.8722,2.8946,2.9401,2.9646,2.9723,2.9705,2.9786,2.992,2.986,2.9962,3.0136,3.0096,0.0,0.0,0.0,0.0,0.0,0.0,0.0,3.0302,3.0301,3.0316,3.0359,3.0422,0.0,0.0,3.3352,0.0,3.5889,3.6745,3.7648,3.842,0.0,0.0,0.0,0.0,0.0,0.0,0.0,0.0,0.0,0.0,0.0,0.0,0.0,0.0,0.0,0.0,0.0,0.0,0.0,0.0,0.0,0.0,0.0,0.0,0.0,0.0,0.0,4.6242,4.621,4.6173,4.615,4.6082,4.6034,4.6007,4.6107,4.6175,4.6204,4.6249,4.6249,4.6243,4.6243,4.6275,4.6301,4.6301,4.6301,4.6301,4.6301,4.6301,4.6301,0.0,0.0,0.0,0.0,0.0,0.0,0.0,0.0,0.0,0.0,0.0,0.0,0.0,0.0,0.0,0.0,0.0,0.0,0.0,0.0,0.0,0.0,0.0,0.0,0.0,0.0,0.0,0.0,0.0,0.0,0.0,0.0,0.0,2.8403,0.0,0.0,2.9778,2.9823,2.9943,3.0098,2.9973,3.0092,3.032,3.0153,3.0215,3.0404,3.0404,3.0404,3.0404,3.0404,0.0,0.0,0.0,0.0,3.0313,3.0313,3.0354,3.0408,3.0488,0.0,3.2439,3.4187,3.5173,0.0,3.6983,3.7781,0.0,0.0,0.0,0.0,0.0,0.0,0.0,0.0,0.0,0.0,0.0,0.0,0.0,0.0,0.0,0.0,0.0,0.0,0.0,0.0,0.0,0.0,0.0,0.0,0.0,0.0,0.0,4.5319,4.5976,4.6121,4.6161,4.6098,4.6032,4.5999,4.6004,4.6067,4.6103,4.6164,4.619,4.6225,4.6264,4.621,4.6227,4.6289,4.6303,4.6301,4.6301,4.6301,4.6301,4.6301,0.0,0.0,0.0,0.0,0.0,0.0,0.0,0.0,0.0,0.0,2.5191,0.0,0.0,0.0,0.0,0.0,0.0,0.0,0.0,0.0,0.0,0.0,0.0,0.0,0.0,0.0,0.0,0.0,0.0,0.0,0.0,0.0,0.0,2.9482,0.0,0.0,3.0043,3.007,3.0084,3.0105,3.0087,3.0102,3.0136,3.0115,3.0215,3.0404,3.0404,3.0404,3.0404,3.0404,3.0382,0.0,0.0,0.0,3.0398,3.0398,3.0383,3.0417,3.0474,0.0,3.3331,0.0,3.5605,3.6125,0.0,0.0,0.0,0.0,0.0,0.0,0.0,0.0,0.0,0.0,0.0,0.0,0.0,0.0,0.0,0.0,0.0,0.0,0.0,0.0,0.0,0.0,0.0,0.0,0.0,0.0,4.2512,4.2746,4.421,0.0,4.5078,4.5827,4.6161,4.6098,4.6032,4.5999,4.6002,4.6015,4.6018,4.6033,4.6151,4.6169,4.6128,4.6186,4.6211,4.6229,4.6272,4.6301,4.6301,4.6301,4.6301,4.6301,0.0,0.0,0.0,0.0,0.0,0.0,0.0,0.0,0.0,0.0,0.0,2.6064,0.0,0.0,0.0,0.0,0.0,0.0,0.0,0.0,0.0,0.0,0.0,0.0,0.0,0.0,0.0,0.0,0.0,0.0,0.0,3.0007,2.9981,0.0,0.0,0.0,0.0,0.0,3.0264,3.0264,3.0264,3.0276,3.0273,3.027,3.0329,3.0391,3.039,3.0404,3.0404,3.0404,3.0404,3.0404,3.0404,0.0,0.0,0.0,3.0403,3.0521,3.1077,3.2137,3.3405,0.0,3.5362,3.6033,3.7331,0.0,0.0,0.0,0.0,0.0,0.0,0.0,0.0,0.0,0.0,0.0,0.0,0.0,0.0,0.0,0.0,0.0,0.0,0.0,0.0,0.0,0.0,0.0,0.0,4.146,4.1908,4.2376,4.3137,0.0,4.4893,4.5271,4.5656,4.6048,4.6003,4.5999,4.5999,4.5999,4.6013,4.6067,4.6074,4.6115,4.6156,4.6193,4.6208,4.6191,4.6227,4.6245,4.6245,4.6245,4.6245,4.6243,0.0,0.0,0.0,0.0,0.0,0.0,0.0,0.0,0.0,0.0,0.0,0.0,0.0,0.0,0.0,0.0,0.0,0.0,0.0,0.0,0.0,0.0,0.0,0.0,0.0,0.0,0.0,0.0,0.0,0.0,3.0227,3.0286,3.0235,0.0,3.0105,0.0,0.0,0.0,0.0,0.0,3.0393,3.0391,3.0395,0.0,0.0,0.0,3.0661,3.0595,3.0466,3.0649,3.0595,3.043,3.043,3.043,0.0,0.0,0.0,0.0,0.0,0.0,3.3355,3.4269,3.5128,3.5998,0.0,0.0,0.0,0.0,0.0,0.0,0.0,0.0,0.0,0.0,0.0,0.0,0.0,0.0,0.0,0.0,0.0,0.0,0.0,0.0,0.0,0.0,0.0,0.0,4.1109,4.1109,4.1401,4.2045,4.2278,4.2986,4.4226,4.4653,4.5158,4.5708,4.5902,4.5999,4.5999,4.5999,4.6025,4.6066,4.6015,4.6065,4.6149,4.6162,4.6166,4.6185,4.6189,4.6191,4.6191,4.6191,4.621,4.6227,0.0,0.0,0.0,0.0,0.0,0.0,0.0,0.0,0.0,0.0,0.0,0.0,0.0,0.0,0.0,2.7698,0.0,0.0,0.0,0.0,0.0,0.0,0.0,0.0,0.0,0.0,0.0,0.0,0.0,0.0,3.0286,3.0292,3.0321,3.0389,3.037,3.0395,3.0401,0.0,0.0,0.0,0.0,0.0,0.0,0.0,0.0,0.0,0.0,0.0,0.0,3.1389,0.0,0.0,0.0,0.0,0.0,0.0,0.0,0.0,0.0,3.2474,0.0,3.4278,3.5199,0.0,0.0,0.0,0.0,0.0,0.0,0.0,0.0,0.0,0.0,0.0,0.0,0.0,0.0,0.0,0.0,0.0,0.0,0.0,0.0,0.0,0.0,0.0,0.0,0.0,4.1109,4.1109,4.1129,4.1167,4.1967,4.2419,4.2432,4.4016,4.4824,4.487,4.563,4.5999,4.5999,4.5999,4.6004,4.601,4.6002,4.6007,4.6025,4.6076,4.6109,4.6118,4.6171,4.6202,4.6191,4.6191,4.6245,4.6303,0.0,0.0,0.0,0.0,0.0,0.0,0.0,0.0,0.0,0.0,0.0,0.0,0.0,0.0,2.9306,2.9306,2.9574,0.0,0.0,0.0,0.0,0.0,0.0,0.0,0.0,0.0,0.0,0.0,0.0,3.0279,3.0308,3.0343,3.0383,3.0404,3.0404,3.0404,3.0442,3.1003,0.0,0.0,0.0,0.0,0.0,0.0,0.0,0.0,0.0,0.0,0.0,0.0,0.0,0.0,0.0,0.0,0.0,0.0,0.0,0.0,0.0,0.0,0.0,3.3493,3.4402,3.5287,0.0,0.0,0.0,0.0,0.0,0.0,0.0,0.0,0.0,0.0,0.0,0.0,0.0,0.0,0.0,0.0,0.0,0.0,0.0,0.0,0.0,0.0,0.0,0.0,4.1109,4.1109,4.1109,4.1109,4.1401,4.1794,4.2295,4.3405,4.4248,4.4792,4.5086,4.5494,4.5999,4.5999,4.5999,4.5999,4.5999,4.5999,4.601,4.6066,4.61,4.6102,4.6128,4.6149,4.615,4.6173,4.6224,4.6249,0.0,0.0,0.0,0.0,0.0,0.0,0.0,0.0,0.0,0.0,0.0,0.0,0.0,0.0,3.0209,3.0223,3.0209,3.0202,3.0202,3.0202,0.0,0.0,0.0,0.0,0.0,0.0,0.0,0.0,0.0,0.0,0.0,3.0345,3.0376,3.0404,3.0712,3.0846,0.0,0.0,0.0,3.2134,0.0,0.0,3.2245,0.0,0.0,0.0,0.0,0.0,0.0,0.0,0.0,0.0,0.0,0.0,0.0,0.0,0.0,0.0,3.0675,0.0,0.0,0.0,0.0,3.4759,0.0,0.0,0.0,0.0,0.0,0.0,0.0,0.0,0.0,0.0,0.0,0.0,0.0,0.0,0.0,0.0,0.0,0.0,0.0,0.0,0.0,0.0,0.0,0.0,4.1109,4.1109,4.1109,4.1109,4.1086,4.1328,4.1866,4.2667,4.3355,4.394,4.4229,4.4792,4.5591,4.5591,4.5747,4.5999,4.5999,4.5999,4.6007,4.6054,4.608,4.608,4.608,4.6076,4.6109,4.6187,4.6203,4.6211,0.0,0.0,0.0,0.0,0.0,0.0,0.0,0.0,0.0,0.0,0.0,0.0,0.0,0.0,0.0,3.0286,3.0234,3.0191,3.0191,3.0191,0.0,0.0,0.0,0.0,0.0,0.0,0.0,0.0,0.0,0.0,0.0,0.0,3.0342,3.0481,3.1311,3.1737,3.1778,0.0,3.2269,3.3049,0.0,3.3136,3.3139,0.0,0.0,0.0,3.405,3.3843,0.0,0.0,0.0,0.0,0.0,0.0,0.0,0.0,0.0,0.0,0.0,0.0,0.0,0.0,0.0,0.0,3.4719,0.0,0.0,0.0,0.0,0.0,0.0,0.0,0.0,0.0,0.0,0.0,0.0,0.0,0.0,0.0,0.0,0.0,0.0,0.0,0.0,0.0,0.0,4.1109,4.1109,4.1109,4.1109,4.1109,4.1033,4.0991,4.0991,4.1776,4.2172,4.2211,4.3063,4.3916,4.4753,4.4792,4.5222,4.596,4.598,4.5999,4.5999,4.5999,4.5999,4.5999,4.5999,4.6043,4.6105,4.6167,4.6202,4.6206,0.0,0.0,0.0,0.0,0.0,0.0,0.0,0.0,0.0,0.0,0.0,0.0,0.0,0.0,0.0,3.0308,3.0279,3.0273,3.0273,3.0273,3.0273,3.0273,3.0286,0.0,0.0,0.0,0.0,0.0,0.0,0.0,0.0,0.0,0.0,0.0,3.1588,3.237,3.3509,3.3518,0.0,0.0,3.3956,3.3997,0.0,0.0,0.0,0.0,0.0,3.5176,3.5007,0.0,3.5157,3.4872,0.0,0.0,0.0,0.0,0.0,0.0,3.2616,0.0,0.0,0.0,0.0,0.0,3.542,3.5959,0.0,0.0,0.0,0.0,0.0,0.0,0.0,0.0,0.0,0.0,0.0,0.0,0.0,0.0,0.0,0.0,0.0,0.0,0.0,0.0,0.0,4.1109,4.1109,4.1109,4.1109,4.1109,4.1033,4.0991,4.0991,4.1172,4.159,4.2194,4.2444,4.3025,4.3877,4.4501,4.4928,4.5164,4.5747,4.5999,4.5999,4.5999,4.5999,4.5999,4.5999,4.602,4.6046,4.6154,4.6163,4.6124,0.0,0.0,0.0,0.0,0.0,0.0,0.0,0.0,0.0,0.0,0.0,0.0,0.0,0.0,0.0,0.0,3.0321,3.0295,3.0295,3.0295,3.0295,3.0295,3.0324,3.033,0.0,0.0,0.0,0.0,0.0,0.0,0.0,0.0,0.0,0.0,0.0,0.0,0.0,0.0,0.0,0.0,3.4864,0.0,0.0,3.494,3.4947,0.0,0.0,0.0,3.5705,3.5725,3.5733,0.0,0.0,0.0,0.0,0.0,0.0,0.0,0.0,0.0,0.0,0.0,0.0,0.0,3.5271,3.5707,3.6146,0.0,0.0,0.0,0.0,0.0,0.0,0.0,0.0,0.0,0.0,0.0,0.0,0.0,0.0,0.0,0.0,0.0,0.0,0.0,4.1109,4.1109,4.1109,4.1109,4.1109,4.1109,4.1033,4.0991,4.0991,4.0939,4.114,4.1667,4.1667,4.2114,4.2986,4.386,4.4462,4.4831,4.565,4.5999,4.5999,4.5999,4.5999,4.5999,4.5999,4.5999,4.6003,4.612,4.6117,4.6068,0.0,0.0,0.0,0.0,0.0,0.0,0.0,0.0,0.0,0.0,0.0,0.0,0.0,0.0,0.0,0.0,3.0345,3.031,3.031,3.031,3.031,3.031,3.0373,3.0404,3.0404,0.0,0.0,0.0,0.0,0.0,0.0,0.0,0.0,0.0,0.0,0.0,0.0,0.0,0.0,3.5621,3.5679,3.569,0.0,0.0,3.5691,0.0,3.5782,3.5769,3.572,3.5782,3.5795,0.0,0.0,0.0,0.0,0.0,3.4703,0.0,0.0,0.0,0.0,0.0,0.0,0.0,3.4829,3.5439,3.5991,0.0,0.0,0.0,0.0,0.0,0.0,0.0,0.0,0.0,0.0,0.0,0.0,0.0,0.0,0.0,0.0,0.0,4.1109,4.1109,4.1109,4.1109,4.1109,4.1109,4.1109,4.1109,4.1033,4.0991,4.0991,4.0939,4.0907,4.0907,4.0907,4.1315,4.2095,4.2966,4.384,4.4695,4.5514,4.5921,4.5999,4.5999,4.5941,4.5883,4.596,4.5941,4.5896,4.6031,4.6067,4.6015,0.0,0.0,0.0,0.0,0.0,0.0,0.0,0.0,0.0,0.0,0.0,0.0,0.0,0.0,0.0,0.0,0.0,3.0376,0.0,0.0,3.0376,3.0376,3.0382,3.0404,3.0404,3.0404,0.0,0.0,0.0,0.0,0.0,0.0,0.0,0.0,0.0,0.0,0.0,0.0,0.0,3.5681,3.5684,0.0,3.5694,3.5704,3.5732,3.5784,3.5793,3.5791,3.5784,0.0,3.5795,3.5793,0.0,0.0,0.0,0.0,0.0,0.0,0.0,0.0,0.0,0.0,0.0,0.0,3.5656,3.5842,3.6008,0.0,0.0,0.0,0.0,0.0,0.0,0.0,0.0,0.0,0.0,0.0,0.0,0.0,0.0,0.0,0.0,0.0,4.1109,4.1109,4.1109,4.1109,4.1109,4.1109,4.1109,4.1109,4.1033,4.0991,4.0991,4.0939,4.0907,4.0907,4.0907,4.0985,4.1179,4.2056,4.2928,4.3799,4.4656,4.5397,4.5999,4.5999,4.5611,4.5106,4.5747,4.5591,4.5118,4.5837,4.6067,4.6015,0.0,0.0,0.0,0.0,0.0,0.0,0.0,0.0,0.0,0.0,0.0,0.0,0.0,0.0,0.0,0.0,0.0,0.0,0.0,0.0,3.1703,3.1703,3.1666,3.1657,3.1657,3.1657,3.1657,0.0,0.0,0.0,0.0,0.0,0.0,0.0,0.0,0.0,0.0,0.0,3.572,3.576,3.5757,0.0,3.5745,3.5791,3.5813,3.5852,3.5852,3.5857,3.5856,3.5855,3.5843,0.0,0.0,3.5877,3.5903,0.0,3.5906,3.591,0.0,0.0,0.0,3.591,0.0,0.0,0.0,3.5981,3.6009,3.6003,0.0,0.0,0.0,0.0,0.0,0.0,0.0,0.0,0.0,0.0,0.0,0.0,0.0,0.0,0.0,0.0,4.1109,4.1109,4.1109,4.1109,4.1109,4.1109,4.1109,4.1109,4.1033,4.0991,4.0991,4.0939,4.0907,4.0907,4.0907,4.0907,4.0927,4.1803,4.2677,4.3547,4.4423,4.5261,4.5999,4.5999,4.528,4.4268,4.5514,4.5514,4.4897,4.5747,4.6027,4.6007,3.0407,0.0,0.0,0.0,0.0,0.0,0.0,0.0,0.0,0.0,0.0,0.0,0.0,0.0,0.0,0.0,0.0,0.0,0.0,0.0,0.0,3.2991,3.2944,3.2913,3.2913,3.2913,3.2913,0.0,0.0,0.0,0.0,0.0,0.0,0.0,0.0,0.0,0.0,0.0,0.0,3.5828,0.0,3.5817,3.5832,3.5889,3.5906,3.5895,3.5901,3.591,3.5906,3.59,0.0,3.5906,3.59,3.5909,0.0,0.0,0.0,0.0,0.0,0.0,0.0,0.0,0.0,3.5915,0.0,0.0,0.0,3.6007,0.0,0.0,0.0,0.0,0.0,0.0,0.0,0.0,0.0,0.0,0.0,0.0,0.0,0.0,0.0,0.0,4.0913,4.109,4.1109,4.1109,4.1109,4.1109,4.1109,4.1109,4.1033,4.0991,4.0991,4.0939,4.0907,4.0907,4.0907,4.0907,4.0927,4.1628,4.2425,4.3294,4.4171,4.5006,4.5785,4.5941,4.5006,4.3644,4.5164,4.5261,4.4656,4.5475,4.5863,4.5999,3.0416,3.0404,0.0,0.0,0.0,0.0,0.0,0.0,0.0,0.0,0.0,0.0,0.0,0.0,0.0,0.0,0.0,0.0,3.299,0.0,0.0,3.3006,3.2981,3.2981,3.2981,3.2981,3.2981,3.2981,0.0,0.0,0.0,0.0,0.0,0.0,3.5625,0.0,0.0,0.0,3.5872,0.0,3.5888,3.5882,0.0,3.59,3.59,3.5904,3.5908,3.591,3.5908,0.0,3.5907,3.5908,0.0,3.5907,3.5908,0.0,0.0,0.0,0.0,0.0,0.0,0.0,3.591,0.0,0.0,0.0,3.6008,3.5999,0.0,0.0,0.0,0.0,0.0,0.0,0.0,0.0,0.0,0.0,0.0,0.0,0.0,0.0,0.0,0.0,0.0,4.103,4.1109,4.1109,4.1109,4.1109,4.1109,4.1109,4.1033,4.0991,4.0991,4.0939,4.0907,4.0907,4.0907,4.0907,4.0907,4.1005,4.1512,4.2405,4.3277,4.4132,4.4989,4.5708,4.5006,4.3605,4.4559,4.4404,4.3741,4.4617,4.5397,4.5999,3.0611,3.0806,0.0,0.0,0.0,0.0,0.0,0.0,0.0,0.0,0.0,0.0,0.0,0.0,0.0,0.0,0.0,3.4578,0.0,0.0,0.0,0.0,3.4507,0.0,3.4517,3.4517,3.4517,3.4517,3.4882,0.0,0.0,0.0,0.0,0.0,3.5691,0.0,3.5813,0.0,3.5893,0.0,0.0,0.0,0.0,3.5894,3.5898,3.589,3.5898,3.5901,3.5901,0.0,3.5901,0.0,0.0,0.0,0.0,0.0,0.0,0.0,0.0,0.0,0.0,0.0,0.0,0.0,0.0,0.0,3.5941,0.0,0.0,0.0,0.0,0.0,0.0,0.0,0.0,0.0,0.0,0.0,0.0,0.0,0.0,0.0,0.0,0.0,0.0,0.0,0.0,4.0562,4.107,4.1109,4.1109,4.1109,4.1074,4.1046,4.0992,4.0979,4.0941,4.0907,4.0907,4.0907,4.0907,4.0907,4.1376,4.225,4.3122,4.3993,4.4851,4.5669,4.5006,4.3547,4.3896,4.3819,4.3605,4.4481,4.5319,4.5999,3.1352,0.0,0.0,0.0,0.0,0.0,0.0,0.0,0.0,0.0,0.0,0.0,3.4613,3.4723,0.0,0.0,3.5718,3.5727,0.0,0.0,3.5703,0.0,0.0,0.0,0.0,0.0,3.5622,3.5622,0.0,0.0,0.0,0.0,0.0,0.0,0.0,3.5807,3.5903,0.0,0.0,3.5897,3.5929,3.5934,3.5932,3.5924,3.592,3.5921,3.593,3.5934,3.5934,3.5934,3.5934,0.0,3.5983,0.0,0.0,0.0,0.0,0.0,3.5896,0.0,0.0,0.0,0.0,0.0,0.0,0.0,0.0,0.0,0.0,0.0,0.0,0.0,0.0,0.0,0.0,0.0,0.0,0.0,0.0,0.0,0.0,0.0,0.0,0.0,0.0,0.0,3.9683,0.0,4.0718,4.0972,4.1109,4.1109,4.1091,4.1072,4.0992,4.1004,4.0974,4.0907,4.0907,4.0907,4.0907,4.0907,4.1257,4.19,4.3022,4.3857,4.452,4.5564,4.502,4.3508,4.3478,4.3345,4.3258,4.4112,4.4967,4.5708,3.2941,3.2945,0.0,0.0,0.0,0.0,0.0,0.0,0.0,0.0,0.0,0.0,0.0,0.0,0.0,0.0,0.0,3.5793,3.5793,0.0,3.5791,0.0,0.0,3.5701,0.0,0.0,0.0,3.5704,0.0,0.0,0.0,0.0,0.0,0.0,0.0,3.59,3.5905,3.5892,3.5908,3.5909,3.5961,3.6004,3.6004,0.0,3.6003,3.6003,3.6004,0.0,0.0,3.6004,3.6004,0.0,0.0,0.0,0.0,0.0,0.0,0.0,0.0,0.0,0.0,3.5893,0.0,0.0,0.0,0.0,3.5909,0.0,0.0,0.0,0.0,0.0,0.0,0.0,0.0,0.0,0.0,0.0,0.0,0.0,0.0,0.0,0.0,0.0,0.0,0.0,3.9352,0.0,3.9839,4.064,4.1109,4.1109,4.1091,4.1072,4.0992,4.1004,4.0974,4.0907,4.0907,4.0907,4.0907,4.0907,4.0927,4.1043,4.275,4.3527,4.3661,4.5326,4.5002,4.3486,4.3438,4.2922,4.2347,4.3216,4.4093,4.495,0.0,0.0,0.0,0.0,0.0,0.0,0.0,3.498,0.0,0.0,0.0,0.0,0.0,3.5765,3.5786,0.0,0.0,3.5861,3.5861,3.5861,0.0,0.0,0.0,3.5773,0.0,0.0,0.0,0.0,0.0,0.0,0.0,0.0,0.0,0.0,0.0,3.5918,0.0,0.0,0.0,0.0,0.0,3.635,3.6864,0.0,0.0,3.6865,3.7457,3.7654,0.0,3.7654,3.7654,3.7655,3.7702,3.7286,3.6808,3.6853,3.646,0.0,0.0,0.0,3.5966,3.5908,0.0,0.0,0.0,0.0,0.0,0.0,0.0,0.0,0.0,0.0,0.0,0.0,0.0,0.0,0.0,0.0,0.0,0.0,0.0,0.0,0.0,0.0,0.0,3.7673,3.7985,3.8629,0.0,4.0073,4.0493,4.1071,4.1093,4.1067,4.1005,4.1003,4.0974,4.0907,4.0907,4.0907,4.0907,4.0907,4.0907,4.1005,4.2731,4.3508,4.3585,4.4724,4.4532,4.3449,4.284,4.2085,4.1507,4.2924,4.3984,4.4863,3.5706,0.0,0.0,0.0,0.0,0.0,0.0,0.0,0.0,0.0,3.5745,0.0,3.5799,0.0,3.5834,0.0,3.5894,3.591,3.5901,3.5892,0.0,3.5832,3.5835,0.0,0.0,0.0,0.0,0.0,0.0,3.5841,0.0,0.0,0.0,0.0,0.0,3.5942,3.5991,0.0,3.5961,0.0,0.0,3.6985,0.0,0.0,3.7974,0.0,0.0,3.8543,3.8543,3.8543,3.8543,3.8544,3.859,3.8174,3.7717,3.7743,3.7154,3.6464,3.6461,3.6249,0.0,0.0,3.596,0.0,3.5921,0.0,0.0,0.0,0.0,0.0,0.0,0.0,0.0,0.0,0.0,0.0,0.0,3.6,0.0,0.0,0.0,0.0,0.0,0.0,3.6226,3.6793,3.7126,3.777,0.0,0.0,4.0063,4.0622,4.0937,4.1067,4.1007,4.1003,4.0974,4.0907,4.0907,4.0907,4.0907,4.0907,4.0907,4.0985,4.2422,4.3216,4.3547,4.408,4.3986,4.3411,4.2549,4.1677,4.106,4.2458,4.3707,4.4827,0.0,0.0,0.0,0.0,3.5767,0.0,0.0,0.0,3.5817,0.0,3.5871,3.5872,3.5931,3.5987,3.5982,3.5874,3.592,0.0,3.5908,3.5897,0.0,0.0,3.5894,3.5897,3.5897,0.0,0.0,0.0,0.0,0.0,0.0,0.0,0.0,0.0,3.5929,0.0,3.5992,3.5996,3.6013,3.6138,3.7006,3.7888,3.8747,3.9507,0.0,3.8728,3.8728,3.8728,3.8728,3.8728,3.8728,3.8728,3.8728,3.8689,3.8669,3.8669,3.8044,3.7359,3.7351,3.6724,3.6057,3.6067,0.0,0.0,0.0,0.0,3.5891,0.0,0.0,0.0,0.0,0.0,0.0,0.0,0.0,0.0,0.0,0.0,0.0,0.0,0.0,0.0,0.0,3.5992,3.5992,3.5992,3.6774,3.7243,0.0,0.0,0.0,3.9802,4.0642,4.1051,4.1009,4.1,4.0951,4.0907,4.0907,4.0907,4.0907,4.0907,4.0907,4.0946,4.1823,4.2677,4.3428,4.336,4.3385,4.335,4.2473,4.1624,4.1002,4.1917,4.3298,4.4824,3.5771,3.5803,3.5848,0.0,3.5819,3.5803,0.0,0.0,0.0,0.0,3.68,3.7024,3.7732,3.7773,3.7498,3.6814,3.6776,0.0,0.0,0.0,0.0,3.5898,3.5898,3.5898,3.5898,3.5876,0.0,3.5875,0.0,0.0,3.5968,0.0,0.0,0.0,0.0,0.0,3.6007,3.595,3.6335,3.7045,3.7926,3.8766,0.0,0.0,4.0077,4.0452,4.0467,4.0465,4.0465,4.0465,4.0465,4.0465,4.0465,4.0015,3.9488,3.9488,3.8903,3.8278,3.8277,3.7631,3.6964,3.6976,3.6485,3.5994,0.0,0.0,0.0,0.0,0.0,0.0,0.0,0.0,0.0,0.0,0.0,0.0,0.0,0.0,0.0,3.6004,0.0,0.0,3.6002,3.6008,3.5992,3.5992,3.6207,0.0,0.0,0.0,0.0,3.9783,4.0602,4.1026,4.0998,4.0947,4.0913,4.0907,4.0907,4.0907,4.0907,4.0907,4.0907,4.0946,4.1823,4.2328,4.2522,4.2515,4.2515,4.2442,4.1561,4.1102,4.1089,4.2545,4.3768,4.4812,3.5805,0.0,0.0,3.7011,0.0,0.0,3.6515,0.0,0.0,3.7734,3.7752,0.0,3.8444,3.8469,3.8239,3.7704,3.7665,0.0,3.7024,0.0,0.0,3.6488,3.6479,3.6298,3.5909,3.5905,0.0,3.5901,0.0,0.0,3.5969,0.0,0.0,0.0,0.0,3.5916,0.0,3.6328,3.7007,3.7946,3.8786,0.0,0.0,4.037,4.0666,4.1099,4.1099,4.1097,4.1093,4.109,4.1109,4.1109,4.1109,4.0757,4.0366,4.0366,3.9781,3.9117,3.9117,3.8512,3.7789,3.7394,3.6924,3.6472,3.6092,3.5992,3.5992,0.0,0.0,0.0,0.0,0.0,0.0,0.0,0.0,0.0,0.0,0.0,0.0,0.0,3.5961,0.0,3.5967,3.5984,3.5992,3.5992,0.0,0.0,0.0,0.0,0.0,0.0,4.0032,4.0609,4.0994,4.0935,4.0907,4.0907,4.0907,4.0907,4.0907,4.0907,4.0907,4.0927,4.1415,4.1842,4.2172,4.1784,4.1862,4.2114,4.1238,4.0898,4.1056,4.2385,4.3411,4.4257,0.0,0.0,0.0,0.0,0.0,0.0,0.0,3.8164,0.0,3.8722,0.0,3.8702,3.8819,3.8811,3.8741,3.8574,0.0,3.8527,3.8404,3.8407,3.8089,3.7388,3.724,3.6832,3.6072,3.5954,0.0,0.0,0.0,3.5902,3.589,0.0,0.0,0.0,0.0,0.0,0.0,3.7005,3.7909,0.0,3.9636,4.0416,4.1097,4.1083,4.1083,4.1101,4.1106,4.1104,4.1098,4.1093,4.111,4.1109,4.1109,4.1109,4.1109,4.1109,4.0562,3.9976,3.9976,3.9371,3.8572,3.7828,3.7555,3.7241,3.6374,3.6177,3.6138,3.6021,3.5995,0.0,0.0,0.0,0.0,0.0,0.0,0.0,0.0,0.0,0.0,0.0,0.0,0.0,0.0,3.5957,3.5991,0.0,0.0,0.0,0.0,0.0,0.0,0.0,3.9256,0.0,4.0816,0.0,4.09,4.0907,4.0907,4.0907,4.0907,4.0907,4.0907,4.0907,4.0907,4.1335,4.1978,4.1218,4.1357,4.1959,4.1199,4.0905,4.0997,4.1754,4.2601,4.3524,0.0,0.0,0.0,0.0,0.0,3.9447,3.9296,3.8846,3.8767,3.941,3.9499,3.9767,4.0487,4.0509,4.0207,3.9537,3.9477,0.0,0.0,0.0,0.0,3.8191,3.7498,3.7045,3.689,3.6234,3.59,0.0,3.5906,3.5897,3.591,3.5897,3.5908,0.0,0.0,0.0,3.6952,3.7882,0.0,3.9577,4.0432,4.091,4.1094,4.1034,4.1055,4.111,4.1108,4.1104,4.1099,4.1097,4.1094,4.1109,4.1109,4.1109,4.1109,4.1109,4.0991,4.0874,4.0874,4.025,3.9546,3.9409,3.8864,3.8141,3.7261,3.7065,3.687,3.6146,3.6009,3.6009,3.5991,0.0,0.0,0.0,0.0,0.0,0.0,0.0,0.0,0.0,0.0,0.0,0.0,0.0,0.0,0.0,0.0,0.0,0.0,0.0,0.0,0.0,0.0,0.0,0.0,0.0,0.0,4.0907,4.0907,4.0907,4.0907,4.0907,4.0907,4.0907,4.0907,4.0985,4.1121,4.0966,4.0985,4.1102,4.0966,4.0893,4.0912,4.1068,4.2093,4.3521,0.0,0.0,0.0,0.0,0.0,0.0,0.0,3.9994,0.0,4.0323,4.0349,4.0474,4.0902,4.0888,4.0691,4.0303,4.0264,4.009,3.9665,3.9677,3.949,3.9046,3.8647,0.0,3.712,3.6713,3.6297,3.5848,3.5847,3.5856,3.5856,3.5856,3.5845,3.5879,0.0,3.6738,0.0,0.0,0.0,3.9776,4.0648,4.1036,4.1091,4.1028,4.1033,4.1092,4.1131,4.1129,4.1106,4.1104,4.11,4.1095,4.1095,4.1092,4.1109,4.1109,4.1109,4.1109,4.1109,4.0796,4.0366,3.9917,3.9507,3.9,3.8161,3.7966,3.7732,3.6852,3.6676,3.6538,3.6085,3.5999,0.0,0.0,0.0,0.0,0.0,0.0,0.0,0.0,0.0,0.0,0.0,0.0,0.0,0.0,0.0,0.0,0.0,0.0,0.0,0.0,0.0,0.0,0.0,0.0,0.0,4.0907,4.0907,4.0907,4.0907,4.0907,4.0907,4.0907,4.0907,4.0898,4.0905,4.0905,4.0893,4.0907,4.0907,4.0898,4.0905,4.0905,4.1676,4.2842,0.0,3.9969,0.0,0.0,4.0951,0.0,4.0887,4.0886,4.0893,4.0947,4.0917,4.0885,4.0885,4.0829,4.0807,4.0807,4.0807,4.0807,4.0807,4.0845,4.0567,3.9871,3.9733,3.9044,3.7665,3.7264,3.674,0.0,3.589,3.5795,3.5795,3.5795,3.5892,0.0,0.0,0.0,0.0,0.0,3.9787,3.9994,4.0686,4.1012,4.1064,4.1014,4.1048,4.1132,4.1172,4.1172,4.1112,4.111,4.1106,4.1099,4.1099,4.1095,4.1109,4.1109,4.1109,4.1109,4.1109,4.1109,4.0933,4.0249,4.0073,3.9858,3.9039,3.8864,3.861,3.7751,3.7438,3.7026,3.616,3.5996,0.0,0.0,0.0,0.0,0.0,0.0,0.0,0.0,0.0,0.0,0.0,0.0,0.0,0.0,0.0,0.0,0.0,0.0,0.0,0.0,0.0,0.0,3.9418,0.0,4.0909,0.0,4.0907,4.0907,4.0907,4.0907,4.0907,4.0907,4.09,4.0905,4.0902,4.091,4.0905,4.0907,4.0907,4.0907,4.0905,4.09,4.1415,4.2225,0.0,0.0,0.0,0.0,0.0,0.0,0.0,4.0815,4.0818,4.0811,4.0806,4.0801,4.0801,4.0793,4.0807,4.0807,4.0807,4.0807,4.0807,4.0809,4.0773,4.0696,3.9998,3.953,3.9375,3.7824,3.6963,0.0,0.0,3.5795,3.5795,3.5795,3.6224,0.0,0.0,0.0,0.0,3.9549,4.0024,4.0705,4.0793,4.0902,4.1008,4.0991,4.1083,4.1191,4.1191,4.1191,4.1191,4.1191,4.1149,4.1099,4.1099,4.1095,4.1109,4.1109,4.1109,4.1109,4.1109,4.1109,4.109,4.0991,4.0972,4.0757,3.9878,3.9683,3.9468,3.865,3.7849,3.7027,3.6167,3.5991,3.6007,0.0,0.0,0.0,0.0,0.0,0.0,0.0,0.0,0.0,0.0,3.5946,0.0,0.0,0.0,0.0,0.0,0.0,0.0,0.0,0.0,3.8504,3.8513,4.0163,0.0,4.0907,4.0907,4.0907,4.0907,4.0907,4.0907,4.0905,4.09,4.0905,4.0905,4.0893,4.0905,4.0907,4.0907,4.0907,4.0907,4.0905,4.1414,4.2228,0.0,0.0,0.0,0.0,0.0,0.0,0.0,4.0798,4.0792,4.0797,4.0806,4.0798,4.0798,4.0803,4.0794,4.0794,4.0794,4.0794,4.0794,4.0809,4.0798,4.0798,4.0486,4.0087,3.9599,3.8408,3.7521,0.0,0.0,0.0,0.0,3.5736,0.0,0.0,0.0,3.8981,3.964,4.0125,4.0507,4.0804,4.0792,4.0859,4.094,4.0982,4.1063,4.1145,4.1191,4.1191,4.1191,4.1191,4.1151,4.1108,4.1108,4.1103,4.1095,4.1095,4.1093,4.1109,4.1109,4.1109,4.1109,4.1109,4.1109,4.1011,4.0659,4.0581,4.0347,3.9488,3.8238,3.7184,3.6832,3.634,3.6005,0.0,0.0,0.0,0.0,0.0,0.0,0.0,0.0,0.0,0.0,0.0,3.5975,0.0,0.0,0.0,0.0,0.0,0.0,3.5891,0.0,3.7932,3.8395,3.9615,4.0455,4.0907,4.0907,4.0907,4.0907,4.0907,4.0907,4.0905,4.0895,4.0893,4.091,4.0903,4.0893,4.0907,4.0907,4.0907,4.0907,4.0907,4.1097,4.1587,4.0796,0.0,4.079,0.0,4.0801,4.0792,4.0808,4.0805,4.0799,4.0797,4.0793,4.0805,4.0805,4.0806,4.0797,4.0797,4.0797,4.0797,4.0797,4.0793,4.0805,4.0805,4.0809,0.0,3.9965,3.9102,3.8351,3.7745,3.6883,0.0,0.0,0.0,0.0,0.0,3.9029,3.9705,3.9996,4.056,4.0809,4.0801,4.0794,4.084,4.0904,4.097,4.103,4.1113,4.117,4.1191,4.1191,4.1191,4.1172,4.1132,4.1111,4.1107,4.1099,4.1099,4.1095,4.1109,4.1109,4.1109,4.1109,4.1109,4.1109,4.1109,4.1109,4.1109,4.0855,3.9976,3.8863,3.7887,3.7399,3.6808,3.6298,0.0,0.0,0.0,0.0,0.0,0.0,0.0,3.6008,3.6004,3.6003,0.0,0.0,0.0,0.0,0.0,0.0,0.0,0.0,0.0,0.0,0.0,0.0,0.0,4.0099,4.0907,4.0907,4.0907,4.0907,4.0907,4.0903,4.0893,4.0903,4.0903,4.0893,4.09,4.0908,4.0907,4.0907,4.0907,4.0907,4.0907,4.0908,4.1137,4.0803,4.0797,4.0808,4.08,4.0797,4.0797,4.0797,4.0797,4.0797,4.0797,4.0797,4.0797,4.0797,4.0797,4.0797,4.0797,4.0797,4.0797,4.0797,4.0797,4.0797,0.0,0.0,4.0797,4.0797,3.9934,3.9483,3.9464,0.0,0.0,3.8267,0.0,0.0,3.9561,3.9514,3.9987,4.0797,4.0797,4.0802,4.0797,4.0797,4.0832,4.0919,4.0965,4.103,4.1113,4.117,4.1191,4.1191,4.1191,4.1191,4.1191,4.1112,4.1107,4.1099,4.1099,4.1095,4.1109,4.1109,4.1109,4.1109,4.1109,4.1109,4.1109,4.1109,4.1109,4.0855,3.9976,3.978,3.9253,3.7614,3.7282,3.7006,3.6138,0.0,0.0,0.0,0.0,0.0,0.0,3.5997,3.5994,3.5991,0.0,0.0,0.0,0.0,0.0,0.0,0.0,0.0,3.5893,3.6674,0.0,3.8387,3.9268,4.0103,4.0907,4.0907,4.0907,4.0907,4.0907,4.0893,4.0905,4.0896,4.0891,4.0905,4.0896,4.0907,4.0907,4.0907,4.0907,4.0907,4.0907,4.0908,4.1159,4.0739,4.0771,4.0806,4.0797,4.0797,4.0797,4.0797,4.0797,4.0797,4.0797,4.0797,4.0797,4.0797,4.0797,4.0797,0.0,4.0797,4.0797,0.0,4.0797,4.0797,4.0797,4.0797,4.0797,4.0797,3.9955,3.9496,3.9496,0.0,0.0,0.0,3.8819,3.9247,3.9566,4.0138,4.0538,4.0809,4.0809,4.0803,4.0797,4.0797,4.0818,4.0837,4.0964,4.1004,4.1053,4.1168,4.1191,4.1191,4.1191,4.1191,4.1191,4.1172,4.113,4.1105,4.1105,4.1099,4.1109,4.1109,4.1109,4.1109,4.1109,4.1109,4.1109,4.1109,4.1109,4.1011,4.0738,4.021,3.9644,3.9097,3.8063,3.7203,3.6927,0.0,0.0,0.0,0.0,0.0,0.0,0.0,3.6007,0.0,3.6002,0.0,0.0,0.0,0.0,0.0,0.0,0.0,0.0,3.6144,0.0,3.8387,3.8688,3.9522,4.0907,4.0907,4.0907,4.0907,4.0907,4.0903,4.0893,4.0903,4.0903,4.0896,4.0903,4.0907,4.0907,4.0907,4.0907,4.0907,4.0907,4.0903,4.1148,4.1221,4.1209,4.1136,4.0797,4.0746,4.0755,4.0755,4.0746,4.0746,4.079,4.0781,4.0778,4.0794,4.0797,0.0,4.0797,4.0797,0.0,4.0797,4.0797,4.0797,4.0797,4.0797,4.0797,4.0797,0.0,0.0,3.9984,3.9437,3.9185,3.9185,3.973,3.9984,4.0004,4.0565,4.0797,4.0797,4.0797,4.0797,4.0797,4.0797,4.0797,4.0805,4.0955,4.1187,4.1439,4.1264,4.1387,4.1601,4.1308,4.1191,4.1191,4.1191,4.1151,4.1107,4.1107,4.11,4.1109,4.1109,4.1109,4.1109,4.1109,4.1109,4.1109,4.1109,4.1109,4.1109,4.1109,4.0679,4.019,3.9858,3.8941,3.8024,3.7399,0.0,0.0,0.0,0.0,0.0,0.0,0.0,0.0,0.0,3.6007,0.0,0.0,0.0,0.0,0.0,0.0,0.0,3.5856,3.6184,0.0,3.8387,3.8715,3.9567,4.0907,4.0907,4.0907,4.0907,4.0907,4.0907,4.0907,4.0907,4.0907,4.0907,4.0907,4.0907,4.0907,4.0907,4.0907,4.0907,4.0907,4.0907,4.116,4.2139,4.2037,0.0,0.0,4.0731,0.0,4.0694,4.0631,4.0638,4.0762,4.0736,4.0729,4.0787,4.079,4.0794,4.0794,0.0,0.0,0.0,4.0797,4.0797,4.0797,4.0797,0.0,4.0797,4.0797,4.0797,4.0797,4.0797,4.0797,4.0797,4.0797,4.0797,4.0797,4.0797,4.0797,4.0797,4.0797,4.0797,4.0797,4.0797,4.0797,4.0805,4.0955,4.1461,4.2046,4.1478,4.1758,4.2285,4.1601,4.1367,4.1367,4.1367,4.1287,4.1185,4.1127,4.11,4.1109,4.1109,4.1109,4.1109,4.1109,4.1109,4.1109,4.1109,4.1109,4.1109,4.1109,4.1109,4.0855,4.0034,3.9839,3.9273,3.7653,3.734,3.7009,3.6129,0.0,0.0,0.0,0.0,0.0,0.0,3.5992,3.5992,0.0,0.0,0.0,0.0,0.0,0.0,3.5898,3.6671,3.7547,3.8482,3.9295,4.0109,4.0907,4.0966,4.0966,4.0907,4.0966,4.0966,4.0907,4.0907,4.0907,4.0907,4.0907,4.0907,4.0907,4.0907,4.0907,4.0907,4.0907,4.0946,4.1238,0.0,0.0,4.2636,4.1742,4.161,4.1386,4.0737,4.0617,4.0617,4.0635,4.0628,4.0654,4.0726,4.0713,4.0742,4.0794,4.0797,4.0797,4.0797,4.0797,4.0797,4.0797,4.0797,4.0797,4.0797,4.0797,4.0797,4.0797,4.0797,4.0797,4.0797,4.0797,4.0797,4.0797,4.0797,4.0797,4.0797,4.0797,4.0797,4.0797,4.0797,4.0797,4.0805,4.0955,4.1128,4.1361,4.1927,4.2246,4.2461,4.2949,4.3105,4.3104,4.3104,4.2632,4.1962,4.1301,4.11,4.1109,4.1109,4.1109,4.1109,4.1109,4.1109,4.1109,4.1109,4.1109,4.1109,4.1109,4.1109,4.103,4.0835,4.0249,3.9468,3.8454,3.7732,3.7009,3.6129,0.0,0.0,0.0,3.5992,3.5992,3.5992,3.5992,3.5992,0.0,0.0,0.0,0.0,0.0,3.6851,3.6794,3.6984,3.7838,3.9371,3.9604,4.0109,4.0907,4.157,4.1531,4.0927,4.159,4.1531,4.0907,4.0907,4.0907,4.0907,4.0907,4.0907,4.0907,4.0907,4.0907,4.0907,4.0907,4.1315,4.2056,4.3723,4.3709,4.3478,4.2591,4.2453,4.2294,4.1816,4.1396,4.1172,4.1226,4.0872,4.0631,4.0739,4.0746,4.0752,4.0794,4.0797,4.0797,4.0797,4.0797,4.0797,4.0797,4.0797,4.0797,4.0797,4.0797,4.0797,4.0797,4.0797,4.0797,4.0797,4.0797,4.0797,4.0797,4.0797,4.0797,4.0797,4.0797,4.0797,4.0797,4.0797,4.0797,4.0805,4.0955,4.1226,4.1577,4.1771,4.2344,4.3008,4.3086,4.3378,4.3709,4.3709,4.3373,4.2895,4.243,4.1722,4.1109,4.1109,4.1109,4.1109,4.1109,4.1109,4.1109,4.1109,4.1109,4.1109,4.1109,4.1109,4.1109,4.1109,4.0718,4.0113,3.9274,3.8434,3.7595,3.6715,3.6246,0.0,3.5992,3.5992,3.5992,3.5992,3.5992,3.5992,3.5992,0.0,0.0,3.6482,3.6947,3.7163,3.7107,3.7877,3.8749,3.9681,4.005,4.0674,4.1492,4.1978,4.1959,4.1512,4.1978,4.1726,4.0907,4.0907,4.0907,4.0907,4.0907,4.0907,4.0907,4.0907,4.0907,4.0907,4.0907,4.1454,4.2328,4.4836,4.4746,4.447,4.3455,4.3272,4.3238,4.3123,4.2475,4.2044,4.2153,4.1374,4.0844,4.0971,4.0865,4.079,4.0794,4.0797,4.0797,4.0797,4.0797,4.0797,4.0797,4.0797,4.0797,4.0797,4.0797,4.0797,4.0797,4.0797,4.0797,4.0797,4.0797,4.0797,4.0797,4.0797,4.0797,4.0797,4.0797,4.0797,4.0797,4.0815,4.0824,4.0831,4.0954,4.1437,4.198,4.1538,4.2305,4.3418,4.2793,4.3183,4.3904,4.3904,4.3898,4.3907,4.3907,4.2753,4.146,4.1323,4.1206,4.1109,4.1109,4.1109,4.1109,4.1109,4.1109,4.1109,4.1109,4.1109,4.1109,4.1109,4.1109,4.0816,3.9937,3.9235,3.8434,3.7438,0.0,3.6148,3.6012,3.5992,3.5992,3.5992,3.5992,3.6051,3.6187,3.6207,0.0,0.0,3.7512,3.7553,3.7493,3.8924,3.9759,3.9876,4.0694,4.1473,4.2194,4.2464,4.2444,4.2192,4.2347,4.1842,4.0907,4.0907,4.0907,4.0907,4.0907,4.0907,4.0907,4.0907,4.0907,4.0907,4.0907,4.1529,4.2503,4.6524,4.6509,4.5994,4.4393,4.4113,4.3886,4.3194,4.2993,4.2913,4.293,4.2202,4.1727,4.1821,4.1151,4.0739,4.0794,4.0797,4.0797,4.0797,4.0797,4.0797,4.0797,4.0797,4.0797,4.0797,4.0797,4.0797,4.0797,4.0797,4.0797,4.0797,4.0797,4.0797,4.0797,4.0797,4.0797,4.0797,4.0797,4.0797,4.0806,4.0867,4.0883,4.0907,4.1025,4.1159,4.134,4.199,4.2383,4.2695,4.3301,4.4081,4.4799,4.4799,4.4791,4.4798,4.4798,4.4095,4.3138,4.2396,4.1655,4.1109,4.1109,4.1109,4.1109,4.1109,4.1109,4.1109,4.1109,4.1109,4.1109,4.1109,4.1109,4.0816,3.9937,3.9702,3.9078,0.0,0.0,3.6832,3.609,3.5992,3.5992,3.5992,3.5992,3.6305,3.7048,3.7106,3.7457,3.8261,3.8939,3.9308,3.93,3.9565,4.0031,4.0713,4.157,4.2075,4.2214,4.3688,4.3629,4.2211,4.2966,4.242,4.0907,4.0907,4.0907,4.0907,4.0907,4.0907,4.0907,4.0907,4.0907,4.0907,4.0907,4.1917,4.3313,4.6985,4.6908,4.6504,4.5225,4.4994,4.4878,4.4494,4.4072,4.3793,4.379,4.3107,4.2623,4.2691,4.2331,4.2105,4.2144,4.2144,4.2144,4.2144,4.1296,4.0797,4.0797,4.0797,4.0797,4.0797,4.0797,4.0797,4.0797,4.0797,4.0797,4.0797,4.0797,4.0797,4.0797,4.0797,4.0797,4.0797,4.0797,4.0817,4.0859,4.0888,4.0917,4.0954,4.1067,4.1109,4.1152,4.16,4.2031,4.246,4.2851,4.3571,4.4384,4.4852,4.5001,4.5089,4.5558,4.4758,4.3607,4.3216,4.2807,4.2494,4.2494,4.2143,4.1791,4.1791,4.144,4.1109,4.1109,4.1109,4.1109,4.1109,4.1109,4.0972,4.0562,4.0112,0.0,0.0,3.8278,3.7673,3.6793,3.6696,3.6696,3.6696,3.6696,3.7067,3.7927,3.8005,3.8336,3.9119,3.9504,3.9892,4.0329,4.0342,4.0519,4.0907,4.1764,4.2444,4.2928,4.419,4.4132,4.2908,4.3313,4.2556,4.0907,4.0907,4.0907,4.0907,4.0907,4.0907,4.0893,4.0943,4.0932,4.0953,4.147,4.2447,4.3573,4.7331,4.7178,4.6855,4.5782,4.5594,4.5594,4.5594,4.5081,4.468,4.4704,4.399,4.3508,4.3588,4.3417,4.3301,4.3301,4.3301,4.3301,4.3301,4.2106,4.1374,4.1374,4.1374,4.1374,4.1374,4.1374,4.1374,4.1374,4.1374,4.1374,4.1374,4.1161,4.1084,4.1067,4.0905,4.082,4.0822,4.0848,4.0871,4.0922,4.0945,4.0988,4.1021,4.1107,4.1119,4.1121,4.1171,4.1601,4.2128,4.2107,4.267,4.3503,4.4184,4.453,4.4874,4.5734,4.5188,4.4251,4.4056,4.3841,4.3705,4.3705,4.3196,4.2708,4.2708,4.2182,4.1655,4.144,4.1401,4.1343,4.1147,4.1109,4.1109,4.1109,0.0,0.0,0.0,3.9274,3.8551,3.7692,3.7595,3.7595,3.7595,3.7595,3.7966,3.8806,3.8884,3.9214,3.9986,4.0016,4.0361,4.1186,4.1005,4.1005,4.1199,4.2075,4.2947,4.3819,4.4481,4.4345,4.3488,4.3294,4.2364,4.0907,4.0911,4.092,4.092,4.092,4.0915,4.0937,4.0977,4.0969,4.1038,4.1953,4.2813,4.3646,4.8178,4.8005,4.7509,4.5879,4.5594,4.5594,4.5594,4.5556,4.5533,4.5599,4.4851,4.4357,4.449,4.3785,4.3301,4.3301,4.3301,4.3301,4.3301,4.3185,4.3131,4.3131,4.3131,4.3131,4.3131,4.3131,4.3131,4.3131,4.3131,4.3131,4.3092,4.2299,4.1912,4.188,4.1199,4.0896,4.0903,4.0966,4.0998,4.101,4.1065,4.1083,4.1108,4.1169,4.1191,4.1191,4.1191,4.123,4.1289,4.1229,4.1773,4.2511,4.2565,4.3145,4.3978,4.4835,4.5578,4.5929,4.5128,4.4309,4.3705,4.3705,4.3646,4.3607,4.3607,4.3548,4.3275,4.2474,4.2298,4.2064,4.1245,4.1109,4.1109,4.1109,0.0,0.0,3.9917,3.9741,3.9409,3.8591,3.8494,3.8494,3.8494,3.8494,3.8844,3.9644,3.9702,4.0086,4.0957,4.0946,4.1263,4.2082,4.1315,4.1296,4.2095,4.2966,4.3838,4.4695,4.4773,4.4345,4.3469,4.2658,4.1784,4.0893,4.0974,4.0984,4.0984,4.0984,4.0981,4.098,4.0995,4.1005,4.1101,4.1984,4.2841,4.3716,4.8375,4.8101,4.7567,4.5898,4.5594,4.5603,4.5652,4.5658,4.5699,4.5758,4.5471,4.5284,4.5336,4.5049,4.4856,4.4856,4.4856,4.4856,4.4856,4.4856,4.4388,4.334,4.3301,4.3301,4.3301,4.3301,4.3301,4.3301,4.3301,4.3301,4.3282,4.2957,4.283,4.2851,4.2582,4.2168,4.1717,4.1724,4.1485,4.1068,4.1084,4.1119,4.1169,4.1191,4.1191,4.1191,4.1191,4.1172,4.1132,4.111,4.1321,4.1687,4.2227,4.2633,4.3079,4.3938,4.4427,4.4622,4.4289,4.4739,4.5305,4.5305,4.4914,4.4504,4.4504,4.4094,4.3451,4.2571,4.2395,4.2123,4.1265,4.1109,4.1109,4.1109,0.0,4.0972,4.0659,4.0601,4.0289,3.9449,3.9332,3.9332,3.9332,3.9332,3.9703,4.0542,4.0601,4.0749,4.1074,4.1048,4.1378,4.2177,4.1881,4.2114,4.3005,4.3879,4.421,4.3993,4.454,4.4054,4.2677,4.2347,4.1758,4.0953,4.1,4.0995,4.1007,4.1007,4.0998,4.0992,4.1057,4.1369,4.1913,4.2786,4.3661,4.4528,4.8432,4.8101,4.7567,4.5898,4.5594,4.5627,4.5693,4.5706,4.5727,4.58,4.5791,4.5793,4.5803,4.5803,4.5803,4.5803,4.5803,4.5803,4.5803,4.5803,4.5281,4.4136,4.4098,4.4098,4.4098,4.4098,4.4098,4.4098,4.4098,4.4098,4.4078,4.3824,4.3721,4.3774,4.3535,4.3129,4.2617,4.2655,4.2372,4.1883,4.163,4.1539,4.1543,4.1308,4.1191,4.1191,4.1172,4.1132,4.1091,4.1107,4.1102,4.1195,4.1793,4.2181,4.2512,4.3118,4.349,4.3705,4.3705,4.4563,4.5481,4.5481,4.5031,4.4582,4.4582,4.4133,4.3451,4.2571,4.2395,4.2123,4.1265,4.1109,4.1109,4.1109,4.1109,4.1109,4.1109,4.1109,4.0874,4.0288,4.021,4.021,4.021,4.021,4.0464,4.1051,4.1109,4.1101,4.1094,4.1045,4.1373,4.2218,4.2231,4.2644,4.3495,4.4088,4.4093,4.3508,4.3821,4.3357,4.2194,4.193,4.1527,4.0994,4.1012,4.1024,4.1024,4.1024,4.1028,4.1032,4.1074,4.1601,4.2439,4.33,4.418,4.5057,4.8432,4.8082,4.7567,4.5898,4.5594,4.5627,4.5693,4.5701,4.5714,4.5796,4.5807,4.5803,4.58,4.5803,4.5803,4.5803,4.5803,4.5803,4.5803,4.5803,4.5803,4.5803,4.5803,4.5803,4.5803,4.5803,4.5803,4.5803,4.5803,4.5803,4.5784,4.4987,4.4617,4.4572,4.3843,4.353,4.352,4.3644,4.3711,4.3613,4.2754,4.2402,4.2324,4.1523,4.1211,4.1191,4.1132,4.1111,4.1091,4.1102,4.1099,4.1097,4.1091,4.1693,4.2395,4.2395,4.3001,4.3685,4.3685,4.3685,4.3685,4.3705,4.3705,4.3705,4.3705,4.3705,4.3451,4.2571,4.2395,4.2123,4.1265,4.1109,4.1109,4.1109,4.1109,4.1109,4.1109,4.1109,4.1109,4.1109,4.1109,4.1109,4.1109,4.1109,4.1109,4.1109,4.1109,4.1101,4.1094,4.1045,4.14,4.2275,4.2309,4.2685,4.3484,4.3499,4.3508,4.3488,4.2619,4.2194,4.2158,4.1369,4.0992,4.1,4.1066,4.1094,4.1094,4.1094,4.1109,4.1093,4.1092,4.1636,4.2512,4.3373,4.425,4.5128,4.8312,4.7658,4.6913,4.5782,4.5594,4.562,4.5695,4.5707,4.5715,4.5798,4.5809,4.5793,4.5803,4.5803,4.5803,4.5803,4.5803,4.5803,4.5803,4.5803,4.5803,4.5803,4.5803,4.5803,4.5803,4.5803,4.5803,4.5803,4.5803,4.5803,4.5784,4.5552,4.549,4.5564,4.539,4.5015,4.449,4.4586,4.4258,4.3672,4.3418,4.3301,4.3281,4.3047,4.2578,4.2031,4.2011,4.1619,4.1091,4.1102,4.1099,4.1097,4.1091,4.1284,4.1499,4.1499,4.1675,4.1889,4.1889,4.1889,4.2162,4.3392,4.3705,4.3705,4.3705,4.3705,4.3451,4.2571,4.2395,4.2123,4.1265,4.1109,4.1109,4.1109,4.1109,4.1109,4.1109,4.1109,4.1109,4.1109,4.1109,4.1109,4.1109,4.1109,4.1109,4.1109,4.1109,4.1101,4.1094,4.1073,4.1457,4.2275,4.2302,4.2416,4.2666,4.3227,4.3188,4.258,4.2328,4.1896,4.1349,4.1119,4.1037,4.1066,4.1093,4.1092,4.1101,4.1101,4.1097,4.109,4.1099,4.2014,4.3334,4.3607,4.4641,4.5948,4.7793,4.7235,4.662,4.5744,4.5594,4.5625,4.5692,4.5704,4.5715,4.5796,4.5803,4.5803,4.5803,4.5803,4.5803,4.5803,4.5803,4.5803,4.5803,4.5803,4.5803,4.5803,4.5803,4.5803,4.5803,4.5803,4.5803,4.5803,4.5803,4.5803,4.5803,4.5803,4.5832,4.5916,4.6029,4.5804,4.5378,4.5456,4.5193,4.4707,4.4355,4.4219,4.418,4.3828,4.3379,4.291,4.2909,4.2575,4.2085,4.1727,4.139,4.1095,4.109,4.1109,4.1109,4.1109,4.1109,4.1109,4.1109,4.1109,4.1343,4.2416,4.267,4.267,4.267,4.267,4.2514,4.1986,4.1888,4.1713,4.1206,4.1109,4.1109,4.1109,4.1109,4.1109,4.1109,4.1109,4.1109,4.1109,4.1109,4.1109,4.1109,4.1109,4.1109,4.1109,4.1109,4.1097,4.1109,4.1093,4.1328,4.1814,4.1829,4.1812,4.1789,4.2295,4.2269,4.1721,4.1737,4.1461,4.0991,4.1029,4.1059,4.1094,4.1092,4.1104,4.1109,4.1109,4.1109,4.1109,4.1109,4.2162,4.3705,4.3705,4.4798,4.6301,4.7043,4.6831,4.6528,4.5744,4.5594,4.562,4.5688,4.5704,4.5715,4.5789,4.5803,4.5803,4.5803,4.5803,4.5803,4.5803,4.5803,4.5803,4.5803,4.5803,4.5803,4.5803,4.5803,4.5803,4.5803,4.5803,4.5803,4.5803,4.5803,4.5803,4.5803,4.5803,4.5803,4.581,4.5947,4.6039,4.6105,4.6165,4.6239,4.623,4.5449,4.5117,4.5039,4.4238,4.3887,4.3828,4.3827,4.3765,4.3586,4.278,4.1934,4.1226,4.1226,4.1167,4.1109,4.1109,4.1109,4.1109,4.1109,4.1109,4.1109,4.1109,4.1109,4.1109,4.1109,4.1109,4.1109,4.1109,4.1109,4.1109,4.1109,4.1109,4.1109,4.1109,4.1109,4.1109,4.1109,4.1109,4.1109,4.1109,4.1109,4.1109,4.1109,4.1109,4.1109,4.1109,4.1109,4.1109,4.1109,4.1109,4.109,4.109,4.1109,4.1073,4.1015,4.1073,4.1064,4.0992,4.0992,4.0993,4.1016,4.1072,4.1094,4.1093,4.11,4.1109,4.1109,4.1109,4.1109,4.1109,4.1109,4.2162,4.3705,4.3705,4.4798,4.6301,4.6928,4.6355,4.5821,4.5629,4.5594,4.5612,4.5686,4.5703,4.5723,4.5792,4.5805,4.5803,4.5803,4.5803,4.5803,4.5803,4.5803,4.5803,4.5803,4.5803,4.5803,4.5803,4.5803,4.5803,4.5803,4.5803,4.5803,4.5803,4.5803,4.5803,4.5803,4.5803,4.5803,4.581,4.5947,4.6039,4.6105,4.6165,4.6239,4.6289,4.6094,4.6016,4.5996,4.5801,4.5312,4.4726,4.4723,4.4271,4.3663,4.3477,4.2846,4.2123,4.2123,4.1655,4.1109,4.1109,4.1109,4.1109,4.1109,4.1109,4.1109,4.1109,4.1109,4.1109,4.1109,4.1109,4.1109,4.1109,4.1109,4.1109,4.1109,4.1109,4.1109,4.1109,4.1109,4.1109,4.1109,4.1109,4.1109,4.1109,4.1109,4.1109,4.1109,4.1109,4.1109,4.1109,4.1109,4.1109,4.1109,4.1095,4.1096,4.1109,4.1095,4.1089,4.1073,4.1089,4.1073,4.0992,4.0992,4.1023,4.1073,4.1094,4.1092,4.1099,4.1092,4.1109,4.1109,4.1109,4.1109,4.1109,4.1109,4.2162,4.3705,4.3705,4.4798,4.6301,4.6278,4.5917,4.5594,4.5594,4.5594,4.5627,4.5693,4.5699,4.5719,4.5781,4.5801,4.5803,4.5803,4.5803,4.5803,4.5803,4.5803,4.5803,4.5803,4.5803,4.5803,4.5803,4.5803,4.5803,4.5803,4.5803,4.5803,4.5803,4.5803,4.5803,4.5803,4.5803,4.5803,4.5807,4.5864,4.5964,4.6065,4.6125,4.6198,4.6264,4.6289,4.6308,4.6308,4.6308,4.6016,4.5625,4.5622,4.5052,4.4324,4.4313,4.3743,4.3021,4.3021,4.2709,4.226,4.1831,4.1713,4.1635,4.1206,4.1109,4.1109,4.1109,4.1109,4.1109,4.1109,4.1109,4.1109,4.1109,4.1109,4.1109,4.1109,4.1109,4.1109,4.1109,4.1109,4.1109,4.1109,4.1109,4.1109,4.1109,4.1109,4.1109,4.1109,4.1109,4.1109,4.1109,4.1109,4.1109,4.1109,4.1109,4.1109,4.1109,4.1109,4.1102,4.1094,4.1102,4.1072,4.1047,4.1051,4.1074,4.1108,4.1108,4.1102,4.1109,4.1109,4.1109,4.1109,4.1109,4.1109,4.1109,4.1109,4.2162,4.3705,4.3705,4.4798,4.6301,4.5594,4.5594,4.5594,4.5594,4.5594,4.5627,4.5693,4.5699,4.5719,4.5781,4.5801,4.5803,4.5803,4.5803,4.5803,4.5803,4.5803,4.5803,4.5803,4.5803,4.5803,4.5803,4.5803,4.5803,4.5803,4.5803,4.5803,4.5803,4.5803,4.5803,4.5803,4.5803,4.5803,4.5803,4.5958,4.6093,4.6248,4.6287,4.6358,4.6429,4.6346,4.6308,4.6308,4.6308,4.6308,4.6308,4.6307,4.5832,4.5215,4.5228,4.4641,4.3919,4.3919,4.3822,4.3568,4.2825,4.261,4.2454,4.1733,4.1538,4.1518,4.1362,4.1323,4.1284,4.1128,4.1109,4.1109,4.1109,4.1109,4.1109,4.1109,4.1109,4.1109,4.1109,4.1109,4.1109,4.1109,4.1109,4.1109,4.1109,4.1109,4.1109,4.1109,4.1109,4.1109,4.1109,4.1109,4.1109,4.1109,4.1109,4.1109,4.1109,4.1109,4.11,4.1093,4.1101,4.1101,4.1093,4.11,4.1109,4.1109,4.1109,4.1109,4.1109,4.1109,4.1109,4.1109,4.1109,4.1109,4.1109,4.1109,4.2162,4.3744,4.4036,4.5051,4.6301,4.5594,4.5594,4.5594,4.5594,4.5594,4.5627,4.5693,4.5699,4.5719,4.5781,4.5801,4.5803,4.5803,4.5803,4.5803,4.5803,4.5803,4.5803,4.5803,4.5803,4.5803,4.5803,4.5803,4.5803,4.5803,4.5803,4.5803,4.5803,4.5803,4.5803,4.5803,4.5803,4.5803,4.5823,4.6596,4.7033,4.7202,4.7164,4.7237,4.7343,4.6601,4.6308,4.6308,4.6308,4.6308,4.6307,4.6304,4.6218,4.6126,4.6125,4.5539,4.4815,4.4815,4.4309,4.3685,4.3568,4.3529,4.3509,4.3373,4.3353,4.3178,4.2415,4.2219,4.2025,4.1265,4.1109,4.1109,4.1109,4.1109,4.1109,4.1109,4.1109,4.1109,4.1109,4.1109,4.1109,4.1109,4.1109,4.1109,4.1109,4.1109,4.1109,4.1109,4.1109,4.1109,4.1109,4.1109,4.1109,4.1109,4.1109,4.1109,4.1109,4.1109,4.1091,4.1095,4.1091,4.1091,4.1095,4.1091,4.1109,4.1109,4.1109,4.1109,4.1109,4.1109,4.1109,4.1109,4.1109,4.1109,4.1109,4.1109,4.2162,4.388,4.5383,4.6105,4.6301,4.5594,4.5594,4.5594,4.5594,4.5594,4.5618,4.564,4.5683,4.5712,4.5731,4.5787,4.5803,4.5803,4.5803,4.5803,4.5803,4.5803,4.5803,4.5803,4.5803,4.5803,4.5803,4.5803,4.5803,4.5803,4.5803,4.5803,4.5803,4.5803,4.5803,4.5803,4.6306,4.6538,4.6558,4.7447,4.7895,4.8002,4.8028,4.7848,4.7512,4.7167,4.6738,4.6308,4.6308,4.6308,4.6306,4.63,4.6291,4.6301,4.6301,4.6046,4.5734,4.5734,4.546,4.5051,4.4563,4.4426,4.4328,4.3822,4.3705,4.3607,4.3216,4.3138,4.3021,4.2631,4.2182,4.1693,4.1206,4.1109,4.1109,4.1109,4.1109,4.1109,4.1109,4.1109,4.1109,4.1109,4.1109,4.1109,4.1109,4.1109,4.1109,4.1109,4.1109,4.1109,4.1109,4.1109,4.1109,4.1109,4.1109,4.1109,4.1109,4.1109,4.1109,4.1109,4.1109,4.1109,4.1109,4.1109,4.1109,4.1109,4.1109,4.1109,4.1109,4.1109,4.1109,4.1109,4.1109,4.1109,4.1109,4.1109,4.2162,4.3919,4.5657,4.6301,4.6301]}]]